[[{"header":{"parameterUnit":"m.s-1","parameterCategory":1,"la1":30.6,"la2":28.766,"lo1":-90.7593,"lo2":-88.6598,"dy":0.0162,"dx":0.0183,"nx":116,"ny":114,"refTime":"2023-06-11T12:00:00:Z","depth":0,"parameterNumber":2,"parameterNumberName":"U-component_of_WINDS"},"data":[0.0,0.0,0.0,0.0,0.0,0.0,0.0,0.0,0.0,0.0,0.0,0.0,0.0,0.0,0.0,0.0,0.0,0.0,0.0,0.0,0.0,0.0,0.0,0.0,0.0,0.0,0.0,0.0,0.0,0.0,0.0,0.0,0.0,0.0,0.0,0.0,0.0,0.0,0.0,0.0,0.0,0.0,0.0,0.0,0.0,0.0,0.0,0.0,0.0,0.0,0.0,0.0,0.0,0.0,0.0,0.0,0.0,0.0,0.0,0.0,0.0,0.0,0.0,0.0,0.0,0.0,0.0,0.0,0.0,0.0,0.0,0.0,0.0,0.0,0.0,0.0,0.0,0.0,0.0,0.0,0.0,0.0,0.0,0.0,0.0,0.0,0.0,0.0,0.0,0.0,0.0,0.0,0.0,0.0,0.0,0.0,0.0,0.0,0.0,0.0,0.0,0.0,0.0,0.0,0.0,0.0,0.0,0.0,0.0,0.0,0.0,0.0,0.0,0.0,0.0,0.0,0.0,0.0,0.0,0.0,0.0,0.0,0.0,0.0,0.0,0.0,0.0,0.0,0.0,0.0,0.0,0.0,0.0,0.0,0.0,0.0,0.0,0.0,0.0,0.0,0.0,0.0,0.0,0.0,0.0,0.0,0.0,0.0,0.0,0.0,0.0,0.0,0.0,0.0,0.0,0.0,0.0,0.0,0.0,0.0,0.0,0.0,0.0,0.0,0.0,0.0,0.0,0.0,0.0,0.0,0.0,0.0,0.0,0.0,0.0,0.0,0.0,0.0,0.0,0.0,0.0,0.0,0.0,0.0,0.0,0.0,0.0,0.0,0.0,0.0,0.0,0.0,0.0,0.0,0.0,0.0,0.0,0.0,0.0,0.0,0.0,0.0,0.0,0.0,0.0,0.0,0.0,0.0,0.0,0.0,0.0,0.0,0.0,0.0,0.0,0.0,0.0,0.0,0.0,0.0,0.0,0.0,0.0,0.0,0.0,0.0,0.0,0.0,0.0,0.0,0.0,0.0,0.0,0.0,0.0,0.0,0.0,0.0,0.0,0.0,0.0,0.0,0.0,0.0,0.0,0.0,0.0,0.0,0.0,0.0,0.0,0.0,0.0,0.0,0.0,0.0,0.0,0.0,0.0,0.0,0.0,0.0,0.0,0.0,0.0,0.0,0.0,0.0,0.0,0.0,0.0,0.0,0.0,0.0,0.0,0.0,0.0,0.0,0.0,0.0,0.0,0.0,0.0,0.0,0.0,0.0,0.0,0.0,0.0,0.0,0.0,0.0,0.0,0.0,0.0,0.0,0.0,0.0,0.0,0.0,0.0,0.0,0.0,0.0,0.0,0.0,0.0,0.0,0.0,0.0,0.0,0.0,0.0,0.0,0.0,0.0,0.0,0.0,0.0,0.0,0.0,0.0,0.0,0.0,0.0,0.0,0.0,0.0,0.0,0.0,0.0,0.0,0.0,0.0,0.0,0.0,0.0,0.0,0.0,0.0,0.0,0.0,0.0,0.0,0.0,0.0,0.0,0.0,0.0,0.0,0.0,0.0,0.0,0.0,0.0,0.0,0.0,0.0,0.0,0.0,0.0,0.0,0.0,0.0,0.0,0.0,0.0,0.0,0.0,0.0,0.0,0.0,0.0,0.0,0.0,0.0,0.0,0.0,0.0,0.0,0.0,0.0,0.0,0.0,0.0,0.0,0.0,0.0,0.0,0.0,0.0,0.0,0.0,0.0,0.0,0.0,0.0,0.0,0.0,0.0,0.0,0.0,0.0,0.0,0.0,0.0,0.0,0.0,0.0,0.0,0.0,0.0,0.0,0.0,0.0,0.0,0.0,0.0,0.0,0.0,0.0,0.0,0.0,0.0,0.0,0.0,0.0,0.0,0.0,0.0,0.0,0.0,0.0,0.0,0.0,0.0,0.0,0.0,0.0,0.0,0.0,0.0,0.0,0.0,0.0,0.0,0.0,0.0,0.0,0.0,0.0,0.0,0.0,0.0,0.0,0.0,0.0,0.0,0.0,0.0,0.0,0.0,0.0,0.0,0.0,0.0,0.0,0.0,0.0,0.0,0.0,0.0,0.0,0.0,0.0,0.0,0.0,0.0,0.0,0.0,0.0,0.0,0.0,0.0,0.0,0.0,0.0,0.0,0.0,0.0,0.0,0.0,0.0,0.0,0.0,0.0,0.0,0.0,0.0,0.0,0.0,0.0,0.0,0.0,0.0,0.0,0.0,0.0,0.0,0.0,0.0,0.0,0.0,0.0,0.0,0.0,0.0,0.0,0.0,0.0,0.0,0.0,0.0,0.0,0.0,0.0,0.0,0.0,0.0,0.0,0.0,0.0,0.0,0.0,0.0,0.0,0.0,0.0,0.0,0.0,0.0,0.0,0.0,0.0,0.0,0.0,0.0,0.0,0.0,0.0,0.0,0.0,0.0,0.0,0.0,0.0,0.0,0.0,0.0,0.0,0.0,0.0,0.0,0.0,0.0,0.0,0.0,0.0,0.0,0.0,0.0,0.0,0.0,0.0,0.0,0.0,0.0,0.0,0.0,0.0,0.0,0.0,0.0,0.0,0.0,0.0,0.0,0.0,0.0,0.0,0.0,0.0,0.0,0.0,0.0,0.0,0.0,0.0,0.0,0.0,0.0,0.0,0.0,0.0,0.0,0.0,0.0,0.0,0.0,0.0,0.0,0.0,0.0,0.0,0.0,0.0,0.0,0.0,0.0,0.0,0.0,0.0,0.0,0.0,0.0,0.0,0.0,0.0,0.0,0.0,0.0,0.0,0.0,0.0,0.0,0.0,0.0,0.0,0.0,0.0,0.0,0.0,0.0,0.0,0.0,0.0,0.0,0.0,0.0,0.0,0.0,0.0,0.0,0.0,0.0,0.0,0.0,0.0,0.0,0.0,0.0,0.0,0.0,0.0,0.0,0.0,0.0,0.0,0.0,0.0,0.0,0.0,0.0,0.0,0.0,0.0,0.0,0.0,0.0,0.0,0.0,0.0,0.0,0.0,0.0,0.0,0.0,0.0,0.0,0.0,0.0,0.0,0.0,0.0,0.0,0.0,0.0,0.0,0.0,0.0,0.0,0.0,0.0,0.0,0.0,0.0,0.0,0.0,0.0,0.0,0.0,0.0,0.0,0.0,0.0,0.0,0.0,0.0,0.0,0.0,0.0,0.0,0.0,0.0,0.0,0.0,0.0,0.0,0.0,0.0,0.0,0.0,0.0,0.0,0.0,0.0,0.0,0.0,0.0,0.0,0.0,0.0,0.0,0.0,0.0,0.0,0.0,0.0,0.0,0.0,0.0,0.0,0.0,0.0,0.0,0.0,0.0,0.0,0.0,0.0,0.0,0.0,0.0,0.0,0.0,0.0,0.0,0.0,0.0,0.0,0.0,0.0,0.0,0.0,0.0,0.0,0.0,0.0,0.0,0.0,0.0,0.0,0.0,0.0,0.0,0.0,0.0,0.0,0.0,0.0,0.0,0.0,0.0,0.0,0.0,0.0,0.0,0.0,0.0,0.0,0.0,0.0,0.0,0.0,0.0,0.0,0.0,0.0,0.0,0.0,0.0,0.0,0.0,0.0,0.0,0.0,0.0,0.0,0.0,0.0,0.0,0.0,0.0,0.0,0.0,0.0,0.0,0.0,0.0,0.0,0.0,0.0,0.0,0.0,0.0,0.0,0.0,0.0,0.0,0.0,0.0,0.0,0.0,0.0,0.0,0.0,0.0,0.0,0.0,0.0,0.0,0.0,0.0,0.0,0.0,0.0,0.0,0.0,0.0,0.0,0.0,0.0,0.0,0.0,0.0,0.0,0.0,0.0,0.0,0.0,0.0,0.0,0.0,0.0,0.0,0.0,0.0,0.0,0.0,0.0,0.0,0.0,0.0,0.0,0.0,0.0,0.0,0.0,0.0,0.0,0.0,0.0,0.0,0.0,0.0,0.0,0.0,0.0,0.0,0.0,0.0,0.0,0.0,0.0,0.0,0.0,0.0,0.0,0.0,0.0,0.0,0.0,0.0,0.0,0.0,0.0,0.0,0.0,0.0,0.0,0.0,0.0,0.0,0.0,0.0,0.0,0.0,0.0,0.0,0.0,0.0,0.0,0.0,0.0,0.0,0.0,0.0,0.0,0.0,0.0,0.0,0.0,0.0,0.0,0.0,0.0,0.0,0.0,0.0,0.0,0.0,0.0,0.0,0.0,0.0,0.0,0.0,0.0,0.0,0.0,0.0,0.0,0.0,0.0,0.0,0.0,0.0,0.0,0.0,0.0,0.0,0.0,0.0,0.0,0.0,0.0,0.0,0.0,0.0,0.0,0.0,0.0,0.0,0.0,0.0,0.0,0.0,0.0,0.0,0.0,0.0,0.0,0.0,0.0,0.0,0.0,0.0,0.0,0.0,0.0,0.0,0.0,0.0,0.0,0.0,0.0,0.0,0.0,0.0,0.0,0.0,0.0,0.0,0.0,0.0,0.0,0.0,0.0,0.0,0.0,0.0,0.0,0.0,0.0,0.0,0.0,0.0,0.0,0.0,0.0,0.0,0.0,0.0,0.0,0.0,0.0,0.0,0.0,0.0,0.0,0.0,0.0,0.0,0.0,0.0,0.0,0.0,0.0,0.0,0.0,0.0,0.0,0.0,0.0,0.0,0.0,0.0,0.0,0.0,0.0,0.0,0.0,0.0,0.0,0.0,0.0,0.0,0.0,0.0,0.0,0.0,0.0,0.0,0.0,0.0,0.0,0.0,0.0,0.0,0.0,0.0,0.0,0.0,0.0,0.0,0.0,0.0,0.0,0.0,0.0,0.0,0.0,0.0,0.0,0.0,0.0,0.0,0.0,0.0,0.0,0.0,0.0,0.0,0.0,0.0,0.0,0.0,0.0,0.0,0.0,0.0,0.0,0.0,0.0,0.0,0.0,0.0,0.0,0.0,0.0,0.0,0.0,0.0,0.0,0.0,0.0,0.0,0.0,0.0,0.0,0.0,0.0,0.0,0.0,0.0,0.0,0.0,0.0,0.0,0.0,0.0,0.0,0.0,0.0,0.0,0.0,0.0,0.0,0.0,0.0,0.0,0.0,0.0,0.0,0.0,0.0,0.0,0.0,0.0,0.0,0.0,0.0,0.0,0.0,0.0,0.0,0.0,0.0,0.0,0.0,0.0,0.0,0.0,0.0,0.0,0.0,0.0,0.0,0.0,0.0,0.0,0.0,0.0,0.0,0.0,0.0,0.0,0.0,0.0,0.0,0.0,0.0,0.0,0.0,0.0,0.0,0.0,0.0,0.0,0.0,0.0,0.0,0.0,0.0,0.0,0.0,0.0,0.0,0.0,0.0,0.0,0.0,0.0,0.0,0.0,0.0,0.0,0.0,0.0,0.0,0.0,0.0,0.0,0.0,0.0,0.0,0.0,0.0,0.0,0.0,0.0,0.0,0.0,0.0,0.0,0.0,0.0,0.0,0.0,0.0,0.0,0.0,0.0,0.0,0.0,0.0,0.0,0.0,0.0,0.0,0.0,0.0,0.0,0.0,0.0,0.0,0.0,0.0,0.0,0.0,0.0,0.0,0.0,0.0,0.0,0.0,0.0,0.0,0.0,0.0,0.0,0.0,0.0,0.0,0.0,0.0,0.0,0.0,0.0,0.0,0.0,0.0,0.0,0.0,0.0,0.0,0.0,0.0,0.0,0.0,0.0,0.0,0.0,0.0,0.0,0.0,0.0,0.0,0.0,0.0,0.0,0.0,0.0,0.0,0.0,0.0,0.0,0.0,0.0,0.0,0.0,0.0,0.0,0.0,0.0,0.0,0.0,0.0,0.0,0.0,0.0,0.0,0.0,0.0,0.0,0.0,0.0,0.0,0.0,0.0,0.0,0.0,0.0,0.0,0.0,0.0,0.0,0.0,0.0,0.0,0.0,0.0,0.0,0.0,0.0,0.0,0.0,0.0,0.0,0.0,0.0,0.0,0.0,0.0,0.0,0.0,0.0,0.0,0.0,0.0,0.0,0.0,0.0,0.0,0.0,0.0,0.0,0.0,0.0,0.0,0.0,0.0,0.0,0.0,0.0,0.0,0.0,0.0,0.0,0.0,-4.9001,0.0,0.0,0.0,0.0,0.0,0.0,0.0,0.0,0.0,0.0,0.0,0.0,0.0,0.0,0.0,0.0,0.0,0.0,0.0,0.0,0.0,0.0,0.0,0.0,0.0,0.0,0.0,0.0,0.0,0.0,0.0,0.0,0.0,0.0,0.0,0.0,0.0,0.0,0.0,0.0,0.0,0.0,0.0,0.0,0.0,0.0,0.0,0.0,0.0,0.0,0.0,0.0,0.0,0.0,0.0,0.0,0.0,0.0,0.0,0.0,0.0,0.0,0.0,0.0,0.0,0.0,0.0,0.0,0.0,0.0,0.0,0.0,0.0,0.0,0.0,0.0,0.0,0.0,0.0,0.0,0.0,0.0,0.0,0.0,0.0,0.0,0.0,0.0,0.0,0.0,0.0,0.0,0.0,0.0,0.0,0.0,0.0,0.0,0.0,0.0,0.0,0.0,0.0,0.0,0.0,0.0,0.0,0.0,0.0,0.0,0.0,0.0,0.0,0.0,0.0,0.0,-4.897,0.0,0.0,0.0,0.0,0.0,0.0,0.0,0.0,0.0,0.0,0.0,0.0,0.0,0.0,0.0,0.0,0.0,0.0,0.0,0.0,0.0,0.0,0.0,0.0,0.0,0.0,0.0,0.0,0.0,0.0,0.0,0.0,0.0,0.0,0.0,0.0,0.0,0.0,0.0,0.0,0.0,0.0,0.0,0.0,0.0,0.0,0.0,0.0,0.0,0.0,0.0,0.0,0.0,0.0,0.0,0.0,0.0,0.0,0.0,0.0,0.0,0.0,0.0,0.0,0.0,0.0,0.0,0.0,0.0,0.0,0.0,0.0,0.0,0.0,0.0,0.0,0.0,0.0,0.0,0.0,0.0,0.0,0.0,0.0,0.0,0.0,0.0,0.0,0.0,0.0,0.0,0.0,0.0,0.0,0.0,0.0,0.0,0.0,0.0,0.0,0.0,0.0,0.0,0.0,0.0,0.0,0.0,0.0,-4.9001,-4.9001,-4.9001,-4.9001,-4.9069,-4.9187,-4.9187,-4.9111,-4.9022,0.0,0.0,0.0,0.0,0.0,0.0,0.0,0.0,0.0,0.0,0.0,0.0,0.0,0.0,0.0,0.0,0.0,0.0,0.0,0.0,0.0,0.0,0.0,0.0,0.0,0.0,0.0,0.0,0.0,0.0,0.0,0.0,0.0,0.0,0.0,0.0,0.0,0.0,0.0,-3.7209,-3.721,-3.7242,-3.737,-3.7673,0.0,0.0,0.0,0.0,0.0,0.0,0.0,0.0,0.0,0.0,0.0,0.0,0.0,0.0,0.0,0.0,0.0,0.0,0.0,0.0,0.0,0.0,0.0,0.0,0.0,0.0,0.0,0.0,0.0,0.0,0.0,0.0,0.0,0.0,0.0,0.0,0.0,0.0,0.0,0.0,0.0,0.0,0.0,-4.4572,-4.4702,0.0,0.0,0.0,0.0,0.0,0.0,0.0,0.0,0.0,0.0,0.0,0.0,0.0,0.0,-4.8818,-4.8909,-4.9001,-4.9001,-4.9001,-4.9001,-4.9001,-4.9001,-4.9357,-4.9949,-4.9949,0.0,-4.9714,-5.0324,0.0,0.0,0.0,0.0,0.0,0.0,0.0,0.0,0.0,0.0,0.0,0.0,0.0,0.0,0.0,0.0,0.0,0.0,0.0,0.0,0.0,0.0,0.0,0.0,0.0,0.0,0.0,0.0,0.0,0.0,0.0,0.0,0.0,0.0,0.0,0.0,-3.7301,-3.7053,-3.7136,-3.7255,-3.7322,-3.7322,-3.7658,-3.7639,-3.7328,-3.7385,0.0,0.0,0.0,0.0,0.0,0.0,0.0,0.0,0.0,0.0,0.0,0.0,0.0,0.0,0.0,0.0,0.0,0.0,0.0,0.0,0.0,0.0,0.0,0.0,0.0,0.0,0.0,0.0,0.0,0.0,0.0,0.0,0.0,0.0,0.0,0.0,0.0,0.0,0.0,-4.4241,-4.4837,-4.5251,-4.5963,-4.6709,0.0,0.0,0.0,0.0,0.0,0.0,0.0,0.0,0.0,-4.8356,-4.8452,-4.861,-4.8925,-4.897,-4.9001,-4.9001,-4.9001,-4.9001,-4.9018,-4.9424,-4.9779,-5.0135,-5.098,-5.1173,-5.0944,-5.1212,-5.1344,-5.1401,0.0,0.0,0.0,0.0,0.0,-5.2409,0.0,0.0,0.0,0.0,0.0,0.0,0.0,0.0,0.0,0.0,0.0,0.0,0.0,0.0,0.0,0.0,0.0,0.0,0.0,0.0,0.0,0.0,0.0,0.0,0.0,0.0,0.0,0.0,-3.7458,-3.7287,-3.7201,-3.7431,-3.7535,-3.7521,-3.7865,-3.7593,-3.6816,-3.694,-3.7138,0.0,0.0,0.0,0.0,0.0,0.0,0.0,0.0,0.0,0.0,0.0,0.0,0.0,0.0,0.0,0.0,0.0,0.0,0.0,0.0,0.0,0.0,0.0,0.0,0.0,0.0,0.0,0.0,0.0,0.0,0.0,0.0,0.0,0.0,0.0,0.0,0.0,0.0,-4.4522,-4.5251,-4.598,-4.6725,-4.7404,0.0,0.0,0.0,0.0,0.0,0.0,-4.8001,-4.8001,-4.8147,-4.8483,-4.8515,-4.8673,-4.9001,-4.9187,-4.9272,-4.9272,-4.9475,-4.956,-4.9593,-5.0135,-5.0473,-5.071,-5.181,-5.2202,-5.2066,-5.2066,-5.1877,-5.1647,-5.221,-5.2409,-5.2409,-5.2409,-5.2409,-5.2409,0.0,0.0,0.0,0.0,0.0,0.0,0.0,0.0,0.0,0.0,0.0,0.0,0.0,0.0,0.0,0.0,0.0,0.0,0.0,0.0,0.0,0.0,0.0,0.0,0.0,0.0,0.0,-3.7336,-3.6866,-3.6906,-3.7485,-3.7752,-3.7845,-3.7801,-3.8206,-3.7941,-3.7191,-3.7191,-3.7014,-3.6769,0.0,0.0,0.0,0.0,0.0,0.0,0.0,0.0,0.0,0.0,0.0,0.0,0.0,0.0,0.0,0.0,0.0,0.0,0.0,0.0,0.0,0.0,0.0,0.0,0.0,0.0,0.0,0.0,0.0,0.0,0.0,0.0,0.0,0.0,0.0,0.0,0.0,0.0,0.0,-4.6758,-4.7504,0.0,0.0,0.0,0.0,-4.8001,-4.8001,-4.8001,-4.8001,-4.8001,-4.8147,-4.8483,-4.8515,-4.8673,-4.9001,-4.9678,-5.0033,-5.005,-5.076,-5.1099,-5.1083,-5.1117,-5.1539,-5.2198,-5.2118,-5.2387,-5.2836,-5.2836,-5.2661,-5.2359,-5.2409,-5.2409,-5.2409,-5.2409,-5.2409,-5.2409,0.0,0.0,0.0,0.0,0.0,0.0,0.0,0.0,0.0,0.0,0.0,0.0,0.0,0.0,0.0,0.0,0.0,0.0,0.0,0.0,0.0,0.0,0.0,0.0,0.0,0.0,-3.868,-3.8068,-3.7901,-3.7872,-3.7943,-3.8311,-3.8458,-3.8443,-3.8856,-3.8647,-3.7967,-3.7661,-3.7266,-3.6883,-3.7044,-3.7049,0.0,0.0,0.0,0.0,0.0,0.0,0.0,0.0,0.0,0.0,0.0,0.0,0.0,0.0,0.0,0.0,0.0,0.0,0.0,0.0,0.0,0.0,0.0,0.0,0.0,0.0,0.0,0.0,0.0,0.0,0.0,0.0,0.0,0.0,0.0,0.0,0.0,-4.6874,-4.7554,0.0,-4.8001,-4.8001,-4.8001,-4.8001,-4.8001,-4.8001,-4.8001,-4.8465,-4.8796,-4.9008,-4.959,-5.0021,-5.028,-5.0629,-5.0811,-5.0811,-5.1082,-5.1185,-5.1202,-5.1594,-5.1932,-5.2202,-5.2488,-5.2653,-5.2694,-5.2696,-5.2572,-5.2409,-5.2409,-5.2409,-5.2373,-5.2263,-5.2208,-5.2208,0.0,0.0,0.0,0.0,0.0,0.0,0.0,0.0,0.0,0.0,0.0,0.0,0.0,0.0,0.0,0.0,0.0,0.0,0.0,0.0,0.0,0.0,0.0,0.0,0.0,-3.9104,-3.8738,-3.8404,-3.8404,-3.8366,-3.8315,-3.8634,-3.8819,-3.8907,-3.9265,-3.917,-3.8706,-3.8427,-3.7839,-3.7159,-3.7309,-3.7231,-3.7026,0.0,0.0,0.0,0.0,0.0,0.0,0.0,0.0,0.0,0.0,0.0,0.0,0.0,0.0,0.0,0.0,0.0,0.0,0.0,0.0,0.0,0.0,0.0,0.0,0.0,0.0,0.0,0.0,0.0,0.0,0.0,0.0,0.0,0.0,0.0,-4.699,-4.7239,-4.7703,-4.8001,-4.8001,-4.8001,-4.8001,-4.8001,-4.8233,-4.8382,-4.8382,-4.9077,-4.9526,-4.9676,-5.0343,-5.0793,-5.1007,-5.1373,-5.1589,-5.1589,-5.186,-5.1946,-5.1897,-5.2303,-5.2421,-5.2387,-5.2653,-5.2732,-5.2607,-5.2555,-5.2466,-5.2409,-5.2409,-5.2354,-5.2283,-5.2135,-5.215,-5.2207,0.0,0.0,0.0,0.0,0.0,0.0,0.0,0.0,0.0,0.0,0.0,0.0,0.0,0.0,0.0,0.0,0.0,0.0,0.0,0.0,0.0,0.0,0.0,0.0,-3.9104,-3.8701,-3.8404,-3.8202,-3.8217,-3.8358,-3.8545,-3.8767,-3.8966,-3.9164,-3.9361,-3.9433,-3.9418,-3.9418,-3.8691,-3.7464,-3.7635,-3.7722,-3.7707,0.0,0.0,0.0,0.0,0.0,0.0,0.0,0.0,0.0,0.0,0.0,0.0,0.0,0.0,0.0,0.0,0.0,0.0,0.0,0.0,0.0,0.0,0.0,0.0,0.0,0.0,0.0,0.0,0.0,0.0,0.0,0.0,0.0,-4.6924,-4.6924,-4.7206,-4.7918,-4.8001,-4.8001,-4.8017,-4.8034,-4.805,-4.805,-4.873,-4.9144,-4.9144,-4.9839,-5.0289,-5.0408,-5.066,-5.0843,-5.1041,-5.1897,-5.2301,-5.2317,-5.3112,-5.3416,-5.3229,-5.3229,-5.3127,-5.2957,-5.2727,-5.2657,-5.2659,-5.2497,-5.2423,-5.2442,-5.239,-5.2299,-5.2116,-5.2096,-5.2284,-5.2469,0.0,0.0,0.0,0.0,0.0,0.0,0.0,0.0,0.0,0.0,0.0,0.0,0.0,0.0,0.0,0.0,0.0,0.0,0.0,0.0,0.0,0.0,0.0,0.0,0.0,-3.8501,-3.824,-3.8202,-3.8818,-3.9165,-3.9218,-4.0081,-4.0431,-4.0341,-4.0696,-4.0502,-3.9921,-4.0054,-3.9634,-3.8826,-3.8367,-3.7907,-3.7488,0.0,0.0,0.0,0.0,0.0,0.0,0.0,0.0,0.0,0.0,0.0,0.0,0.0,0.0,0.0,0.0,0.0,0.0,0.0,0.0,0.0,0.0,0.0,0.0,0.0,0.0,0.0,0.0,0.0,0.0,0.0,0.0,-4.7703,-4.7703,-4.7703,-4.7769,-4.7984,-4.8001,-4.8001,-4.7985,-4.8481,-4.8845,-4.8992,-4.9573,-4.9906,-4.9906,-5.0601,-5.1,-5.107,-5.1723,-5.2094,-5.2163,-5.2519,-5.2739,-5.2739,-5.3511,-5.3829,-5.3794,-5.4196,-5.4324,-5.4281,-5.406,-5.3987,-5.3937,-5.3347,-5.3132,-5.3086,-5.2572,-5.2283,-5.2132,-5.231,-5.2243,-5.2089,0.0,0.0,0.0,0.0,0.0,0.0,0.0,0.0,0.0,0.0,0.0,0.0,0.0,0.0,0.0,0.0,0.0,0.0,0.0,0.0,0.0,0.0,0.0,0.0,0.0,0.0,-3.8647,-3.876,-3.9531,-4.0021,-4.0174,-4.071,-4.0965,-4.0926,-4.1041,-4.0872,-4.0515,-4.0345,-4.004,-3.9644,-3.8973,-3.8516,-3.8222,-3.8137,-3.8172,-3.8372,-3.8973,-3.9284,-3.9554,-4.0228,0.0,0.0,0.0,0.0,0.0,0.0,0.0,0.0,0.0,0.0,0.0,0.0,0.0,0.0,0.0,0.0,0.0,0.0,0.0,0.0,0.0,0.0,0.0,0.0,-4.8001,-4.8001,-4.8001,-4.8001,-4.8117,-4.8431,-4.8465,-4.8498,-4.8577,-4.9192,-4.9689,-4.9986,-5.0418,-5.0651,-5.0651,-5.1347,-5.1779,-5.1779,-5.2319,-5.2738,-5.3073,-5.3238,-5.3529,-5.3847,-5.4245,-5.4405,-5.4364,-5.4667,-5.4739,0.0,-5.4469,-5.4373,-5.4331,-5.3832,-5.3618,0.0,0.0,0.0,0.0,0.0,-5.2377,-5.2072,0.0,0.0,0.0,0.0,0.0,0.0,0.0,0.0,0.0,0.0,0.0,0.0,0.0,0.0,0.0,0.0,0.0,0.0,0.0,0.0,0.0,0.0,0.0,0.0,0.0,0.0,-3.9304,-3.9519,-4.0266,-4.0827,-4.1213,-4.1104,-4.1148,-4.1279,-4.1056,-4.1026,-4.113,-4.059,-4.0271,-4.0062,-3.9446,-3.9252,-3.9301,-3.9141,-3.9068,-3.9104,-3.9265,-3.9337,-3.9409,-3.9783,0.0,0.0,0.0,0.0,0.0,0.0,0.0,0.0,0.0,0.0,0.0,0.0,0.0,0.0,0.0,0.0,0.0,0.0,0.0,0.0,0.0,0.0,0.0,0.0,-4.8067,-4.8133,-4.8133,-4.8199,-4.8465,-4.9044,-4.9177,-4.9308,-4.9552,-5.0018,-5.052,-5.1021,-5.1284,-5.1431,-5.1431,0.0,0.0,0.0,0.0,-5.3055,-5.377,-5.398,-5.439,-5.5043,-5.5116,-5.5048,-5.4907,-5.4944,-5.4862,-5.4698,-5.4486,-5.4383,-5.4344,-5.4076,-5.3956,-5.3819,-5.3273,-5.2839,-5.2553,-5.2612,-5.2496,0.0,0.0,0.0,0.0,0.0,0.0,0.0,0.0,0.0,0.0,0.0,0.0,0.0,0.0,0.0,0.0,0.0,0.0,0.0,0.0,0.0,0.0,0.0,0.0,0.0,0.0,0.0,0.0,-3.9519,-4.0808,-4.1632,-4.1935,-4.2347,-4.2505,-4.24,-4.2505,-4.2169,-4.1617,-4.185,-4.1241,-4.0107,-3.9973,-3.9491,-3.8907,-3.887,-3.887,-3.887,-3.8907,-3.9017,-3.9177,-3.925,-3.9373,-3.9622,-4.0147,-4.0586,0.0,0.0,0.0,0.0,0.0,0.0,0.0,0.0,0.0,0.0,0.0,0.0,0.0,0.0,0.0,0.0,0.0,0.0,0.0,-4.8001,-4.8514,-4.8895,-4.8895,-4.9409,-4.9624,-4.916,-4.9641,-5.0153,-5.058,-5.0898,-5.1382,-5.2045,-5.2161,-5.221,-5.221,-5.2343,0.0,-5.3202,-5.3238,-5.3603,-5.4332,-5.4393,-5.4479,-5.4608,0.0,0.0,-5.5454,-5.5875,-5.6062,-5.6006,-5.5837,-5.5623,-5.535,-5.4763,-5.4242,-5.368,-5.3156,-5.2885,-5.2784,-5.2313,-5.2065,-5.1896,0.0,0.0,0.0,0.0,0.0,0.0,0.0,0.0,0.0,0.0,0.0,0.0,0.0,0.0,0.0,0.0,0.0,0.0,0.0,0.0,0.0,0.0,0.0,0.0,0.0,0.0,0.0,0.0,-4.1047,-4.1852,-4.2391,-4.2621,-4.2662,-4.2541,-4.2648,-4.2511,-4.2172,-4.1891,-4.1299,-4.053,-3.9773,-3.9129,-3.8649,-3.8649,-3.8649,-3.8649,-3.8649,-3.8701,-3.8848,-3.9031,-3.94,-3.9853,-4.0255,-4.101,-4.1858,0.0,0.0,0.0,0.0,0.0,0.0,0.0,0.0,0.0,0.0,0.0,0.0,0.0,0.0,-4.8001,0.0,0.0,-4.8133,-4.8498,-4.8862,-4.9243,-4.9607,-5.0286,-5.0601,-5.0237,-5.0518,-5.0999,-5.1593,-5.1777,-5.2161,-5.2854,-5.2904,-5.3053,-5.3434,-5.345,-5.3616,-5.3964,-5.3964,-5.4291,-5.5036,-5.5061,-5.5243,-5.5603,-5.5984,-5.615,-5.6166,-5.6331,-5.634,-5.6244,-5.5815,-5.5458,-5.514,-5.4457,-5.3871,-5.3332,-5.2928,-5.2879,-5.2875,-5.2204,-5.1805,-5.1433,0.0,0.0,0.0,0.0,0.0,0.0,0.0,0.0,0.0,0.0,0.0,0.0,0.0,0.0,0.0,0.0,0.0,0.0,0.0,0.0,0.0,0.0,0.0,0.0,0.0,0.0,0.0,0.0,0.0,-4.1605,-4.232,-4.225,-4.2202,-4.2202,-4.2333,-4.2426,-4.2397,-4.1601,-4.1101,-4.0683,-3.949,-3.8767,-3.8441,-3.8441,-3.8441,-3.8441,-3.8441,-3.8478,-3.8582,-3.9018,-3.9565,-4.0129,-4.0509,-4.1504,-4.2672,-4.3236,-4.4238,0.0,0.0,0.0,0.0,0.0,0.0,0.0,0.0,0.0,-4.8001,-4.8001,-4.8001,-4.805,-4.8199,-4.8216,-4.8465,-4.9193,-4.9442,-4.974,-5.0336,-5.1032,-5.1531,-5.1531,-5.1531,-5.1812,-5.2506,-5.2572,-5.287,-5.3566,-5.3596,-5.3881,-5.4481,-5.4514,-5.458,-5.4713,-5.4692,-5.5036,-5.5737,-5.5769,-5.6051,-5.6564,-5.6564,-5.6564,-5.6564,-5.6307,-5.6109,-5.587,-5.5097,-5.4623,-5.4322,-5.3679,-5.3214,-5.2831,-5.2577,-5.2577,-5.2652,-5.2079,-5.1526,-5.1073,0.0,0.0,0.0,0.0,0.0,0.0,0.0,0.0,0.0,0.0,0.0,0.0,0.0,0.0,0.0,0.0,0.0,0.0,0.0,0.0,0.0,0.0,0.0,0.0,0.0,0.0,0.0,0.0,0.0,-4.0725,-4.1032,-4.1356,-4.15,-4.1529,-4.2129,-4.2056,-4.1565,-4.1814,-4.105,-3.9698,-3.9702,-3.9103,-3.824,-3.824,-3.824,-3.824,-3.824,-3.8366,-3.8603,-3.9249,-3.9612,-4.0043,-4.1179,-4.1794,-4.233,-4.3499,-4.4426,-4.5311,-4.6072,-4.6963,-4.7704,-4.7935,-4.8001,-4.8001,0.0,0.0,-4.8001,-4.8001,-4.8001,-4.8199,-4.8862,-4.8978,-4.9226,-4.9972,-5.0618,-5.11,-5.1183,-5.1829,-5.2293,-5.2293,-5.2293,-5.2523,-5.3235,-5.3301,-5.3599,-5.4307,-5.4394,-5.4415,-5.4512,-5.4512,-5.4778,-5.5468,-5.5472,-5.5764,-5.6297,-5.6325,-5.6264,-5.6165,-5.6165,-5.6165,-5.6165,-5.5693,-5.5385,-5.5155,-5.4071,-5.3465,-5.3142,-5.2652,-5.2427,-5.2336,-5.1895,-5.1726,-5.1757,-5.1665,-5.1293,-5.0822,0.0,0.0,0.0,0.0,0.0,0.0,0.0,0.0,0.0,0.0,0.0,0.0,0.0,0.0,0.0,0.0,0.0,0.0,0.0,0.0,0.0,0.0,0.0,0.0,0.0,0.0,0.0,0.0,0.0,0.0,-4.0393,-4.0577,-4.0654,-4.0669,-4.1109,-4.1119,-4.0881,-4.0757,-4.0324,-3.9642,-3.9222,-3.8764,-3.8366,-3.824,-3.8202,-3.8202,-3.8202,-3.8487,0.0,0.0,-4.0055,-4.0852,-4.1514,-4.21,-4.2718,-4.35,-4.4297,-4.5221,-4.6477,-4.7201,-4.7654,0.0,-4.8001,-4.8001,-4.8001,-4.8001,-4.8001,-4.8001,-4.8349,-4.8746,-4.9044,-4.9458,-4.9988,0.0,-5.1116,-5.1464,-5.1895,-5.2227,-5.2523,-5.2937,-5.2986,-5.3086,-5.3384,-5.3814,-5.4361,-5.5069,-5.5135,-5.5322,-5.5745,-5.5762,-5.5857,-5.6079,-5.6051,-5.6134,-5.6238,-5.6221,-5.6339,-5.6523,-5.6523,-5.6556,-5.6682,-5.6363,-5.557,-5.4411,-5.3658,-5.2885,-5.217,-5.1987,-5.1803,-5.1618,-5.1448,-5.1354,-5.1354,-5.1354,-5.1026,-5.0614,0.0,0.0,0.0,0.0,0.0,0.0,0.0,0.0,0.0,0.0,0.0,0.0,0.0,0.0,0.0,0.0,0.0,0.0,0.0,0.0,0.0,0.0,0.0,0.0,0.0,0.0,0.0,0.0,0.0,0.0,-3.9581,-3.977,-3.9842,-3.9857,-4.0217,-4.0295,-4.0105,-3.9853,-3.9583,-3.9302,-3.8743,-3.8595,-3.8681,-3.8516,-3.858,-3.8696,-3.8536,-3.8797,0.0,0.0,-4.0543,-4.1387,-4.1712,-4.2345,-4.3076,-4.3472,-4.4373,-4.5515,-4.6927,0.0,0.0,-4.7935,-4.8001,-4.8001,-4.8001,-4.8001,-4.8067,-4.8266,-4.873,-4.9226,-4.9624,-5.0137,-5.0734,-5.1498,-5.1614,-5.1796,-5.2343,-5.2539,-5.2854,-5.3351,-5.3781,-5.403,-5.403,-5.451,-5.5085,-5.5868,-5.5918,-5.615,-5.6663,-5.6658,-5.6535,-5.6412,-5.6277,-5.6154,-5.6092,-5.6051,-5.6197,-5.6492,-5.6492,-5.652,-5.6595,-5.6303,-5.5395,-5.3945,-5.3544,-5.2743,-5.1765,-5.1765,-5.1566,-5.1214,-5.1214,-5.1214,-5.1167,-5.112,-5.0852,-5.0501,0.0,0.0,0.0,0.0,0.0,0.0,0.0,0.0,0.0,0.0,0.0,0.0,0.0,0.0,0.0,0.0,0.0,0.0,0.0,0.0,0.0,0.0,0.0,0.0,0.0,0.0,0.0,0.0,0.0,0.0,0.0,-3.8928,-3.9233,-3.9247,-3.9842,-3.977,-3.9271,-3.9419,-3.904,-3.8269,-3.8441,-3.876,-3.9175,-3.9175,-3.9538,-3.9958,-3.9378,0.0,0.0,0.0,-4.1062,-4.1207,-4.186,-4.2526,0.0,-4.3472,-4.4849,-4.6442,-4.7251,0.0,-4.7737,-4.7968,-4.8001,-4.8001,-4.8001,-4.8001,-4.8199,-4.8928,-4.9094,-4.9541,-5.0984,-5.1265,-5.1514,-5.226,-5.2393,-5.2393,-5.2409,-5.2953,-5.3384,-5.3417,-5.4638,-5.5516,0.0,-5.5532,-5.5885,-5.6597,-5.6663,-5.6663,-5.668,-5.6513,-5.6399,-5.6402,-5.5945,-5.5834,-5.6123,-5.589,-5.578,-5.5707,-5.5707,-5.5601,-5.5313,-5.4885,-5.4387,-5.3899,-5.3706,-5.3041,-5.2172,-5.2172,-5.1798,-5.1214,-5.1214,-5.1214,-5.1167,-5.0917,-5.0695,-5.0453,0.0,0.0,0.0,0.0,0.0,0.0,0.0,0.0,0.0,0.0,0.0,0.0,0.0,0.0,0.0,0.0,0.0,0.0,0.0,0.0,0.0,0.0,0.0,0.0,0.0,0.0,0.0,0.0,0.0,0.0,0.0,0.0,-3.8536,-3.8551,-3.8754,-3.8725,-3.8536,-3.8612,-3.8481,-3.8246,-3.8772,-3.9039,-3.9247,-3.9639,-3.9915,-4.0133,0.0,0.0,0.0,0.0,-4.1395,-4.1802,-4.2034,-4.25,-4.326,-4.4434,-4.5515,-4.6477,-4.7285,-4.7588,-4.7754,-4.7968,-4.8001,-4.8133,-4.863,-4.873,-4.8945,-4.969,-5.022,-5.0701,-5.1216,-5.1713,-5.2127,-5.2376,-5.2409,-5.2539,-5.3003,-5.3268,-5.3781,-5.4721,-5.5284,0.0,0.0,0.0,0.0,-5.6663,-5.668,-5.6641,-5.6502,-5.6441,-5.6119,-5.5547,-5.582,-5.5729,-5.5184,-5.5531,-5.5783,-5.5922,-5.6029,-5.6055,-5.5944,-5.546,-5.494,-5.4337,-5.4108,-5.3586,-5.2845,-5.2845,-5.2456,-5.1872,-5.1872,-5.1494,-5.0917,-5.071,-5.0438,-5.0246,0.0,0.0,0.0,0.0,0.0,0.0,0.0,0.0,0.0,0.0,0.0,0.0,0.0,0.0,0.0,0.0,0.0,0.0,0.0,0.0,0.0,0.0,0.0,0.0,0.0,0.0,0.0,0.0,0.0,0.0,0.0,0.0,-3.8202,-3.8202,-3.8202,-3.8202,-3.8202,-3.8202,-3.8333,-3.8594,-3.903,-3.9465,-3.9929,-4.0307,-4.0612,0.0,0.0,0.0,0.0,0.0,-4.1744,-4.2092,-4.2175,-4.2809,-4.378,-4.5163,-4.6052,-4.6738,-4.7335,-4.7654,-4.7853,-4.7968,-4.8199,-4.8531,-4.8995,-4.9309,-4.9707,-5.0436,-5.0949,-5.1398,-5.1647,-5.2094,-5.2409,-5.2409,-5.2409,-5.2622,-5.3318,-5.3649,-5.4225,-5.545,-5.5776,-5.6068,0.0,0.0,0.0,-5.658,-5.6541,-5.6424,-5.6307,-5.607,-5.5612,-5.4957,-5.5293,-5.5253,-5.4691,-5.5269,-5.5674,-5.5877,-5.5883,-5.5899,-5.5884,-5.5566,-5.5205,-5.4799,-5.4601,-5.4177,-5.3548,-5.3548,-5.3159,-5.2546,-5.2449,-5.1902,-5.1131,-5.0777,-5.0436,-5.0086,0.0,0.0,0.0,0.0,0.0,0.0,0.0,0.0,0.0,0.0,0.0,0.0,0.0,0.0,0.0,0.0,0.0,0.0,0.0,0.0,0.0,0.0,0.0,0.0,0.0,0.0,0.0,0.0,0.0,0.0,0.0,0.0,0.0,-3.8202,-3.8202,-3.8217,-3.826,-3.826,-3.8638,-3.9247,-3.9276,-4.0017,-4.1091,-4.1134,0.0,0.0,0.0,0.0,0.0,0.0,0.0,-4.2175,-4.2392,-4.3379,-4.4662,-4.5562,-4.6474,-4.7251,-4.7436,-4.777,-4.8067,-4.8067,-4.8614,-4.9177,-4.921,-4.9756,-5.0469,-5.1216,-5.1365,-5.158,0.0,-5.2409,-5.2409,-5.2409,-5.2409,-5.2638,-5.3367,-5.408,-5.4771,0.0,0.0,0.0,0.0,0.0,0.0,-5.6346,0.0,-5.6086,-5.6046,-5.5426,-5.4915,-5.4617,-5.4489,-5.451,-5.4636,-5.5105,-5.539,-5.5581,-5.5345,-5.5194,-5.5194,-5.5194,-5.5194,-5.5194,-5.5194,-5.4835,-5.4266,-5.4266,-5.3862,-5.3185,-5.294,-5.2407,-5.1717,-5.1199,-5.0608,-5.0082,0.0,0.0,0.0,0.0,0.0,0.0,0.0,0.0,0.0,0.0,0.0,0.0,0.0,0.0,0.0,0.0,0.0,0.0,0.0,0.0,0.0,0.0,0.0,0.0,0.0,0.0,0.0,0.0,0.0,0.0,0.0,0.0,0.0,0.0,-3.8202,-3.8478,-3.8942,-3.8942,-3.9305,-3.9915,0.0,-4.08,-4.1149,0.0,0.0,0.0,0.0,0.0,0.0,0.0,0.0,0.0,0.0,-4.3834,-4.4699,-4.5821,-4.6668,-4.7285,-4.7588,-4.8233,-4.8829,-4.8829,-4.9375,-5.0071,-5.0601,-5.0866,-5.1214,-5.1978,-5.2127,-5.2194,-5.2393,-5.2409,-5.2409,-5.2409,-5.2409,0.0,-5.4063,-5.4394,0.0,-5.6266,0.0,-5.6385,-5.6385,-5.591,0.0,0.0,-5.5733,-5.5653,-5.536,-5.4874,-5.4226,-5.3434,-5.4187,-5.4405,-5.3895,-5.4752,-5.5265,-5.528,-5.5244,-5.5194,-5.5194,-5.5194,-5.5194,-5.5194,-5.5194,-5.5089,-5.494,-5.494,-5.4436,-5.3625,-5.3575,-5.2876,-5.1845,-5.1213,-5.0802,-5.045,0.0,0.0,0.0,0.0,0.0,0.0,0.0,0.0,0.0,0.0,0.0,0.0,0.0,0.0,0.0,0.0,0.0,0.0,0.0,0.0,0.0,0.0,0.0,0.0,0.0,0.0,0.0,0.0,0.0,0.0,0.0,0.0,0.0,-3.8217,-3.8507,-3.8855,-3.9218,0.0,0.0,0.0,0.0,0.0,0.0,0.0,0.0,0.0,0.0,0.0,0.0,0.0,0.0,-4.2809,-4.3615,-4.4412,-4.5221,-4.6143,0.0,-4.7519,-4.8033,-4.8629,-4.9193,-4.9508,-5.0137,-5.0783,-5.1216,-5.1564,-5.1912,-5.2291,-5.2409,-5.2409,-5.2409,-5.2409,-5.2409,0.0,0.0,0.0,-5.4311,-5.449,-5.5019,0.0,-5.629,0.0,-5.583,-5.5287,-5.4915,0.0,-5.5024,-5.4982,-5.4697,-5.4114,-5.3574,-5.3143,-5.3836,-5.4263,-5.4318,-5.492,-5.5194,-5.5194,-5.5194,-5.5194,-5.5194,-5.5194,-5.5194,-5.5194,0.0,-5.5194,-5.5194,-5.5093,-5.4717,-5.4223,-5.3955,-5.3252,-5.2354,-5.156,-5.1002,-5.0618,0.0,0.0,0.0,0.0,0.0,0.0,0.0,0.0,0.0,0.0,0.0,0.0,0.0,0.0,0.0,0.0,0.0,0.0,0.0,0.0,0.0,0.0,0.0,0.0,0.0,0.0,0.0,0.0,0.0,0.0,0.0,0.0,0.0,0.0,0.0,0.0,0.0,0.0,0.0,0.0,0.0,0.0,0.0,0.0,0.0,0.0,0.0,0.0,0.0,0.0,-4.2729,-4.318,-4.3989,-4.4924,-4.5841,-4.6477,-4.7215,-4.7984,-4.8677,-4.9092,-4.9558,-5.0204,-5.0899,-5.1464,-5.1464,-5.1962,-5.2409,-5.2409,0.0,-5.2409,-5.2409,-5.2409,-5.2409,-5.2409,0.0,-5.287,-5.4291,-5.4452,-5.4944,-5.622,-5.5934,-5.5491,-5.5097,-5.4581,-5.42,-5.3958,-5.4071,-5.4055,-5.3958,-5.3246,-5.3006,-5.3267,-5.3557,-5.4183,-5.5179,-5.5194,-5.5194,-5.5194,-5.5194,-5.5194,-5.5194,-5.5194,-5.5194,-5.5194,0.0,0.0,-5.5143,-5.4905,-5.4737,-5.4634,-5.4075,-5.3531,-5.2939,-5.2078,-5.1352,-5.0699,0.0,0.0,0.0,0.0,0.0,0.0,0.0,0.0,0.0,0.0,-3.9915,-3.916,0.0,0.0,0.0,0.0,0.0,0.0,0.0,0.0,0.0,0.0,0.0,0.0,0.0,0.0,0.0,0.0,0.0,0.0,0.0,0.0,0.0,0.0,0.0,0.0,0.0,0.0,0.0,0.0,0.0,0.0,0.0,0.0,0.0,0.0,0.0,0.0,0.0,0.0,-4.3061,-4.3403,-4.4167,-4.5147,-4.6108,-4.6876,-4.7795,-4.8677,-4.896,-4.9938,-5.0967,-5.1065,-5.168,-5.2227,-5.2227,-5.2326,0.0,0.0,-5.2409,-5.2409,-5.2409,-5.2409,-5.2409,-5.2409,0.0,0.0,0.0,0.0,-5.4733,0.0,-5.575,-5.5271,-5.48,-5.4184,0.0,0.0,0.0,0.0,-5.3142,-5.2472,-5.2456,-5.3206,-5.3781,-5.4451,-5.5179,-5.5194,-5.5194,-5.5194,-5.5194,-5.5194,-5.5194,-5.5194,-5.5194,-5.5194,0.0,0.0,-5.4854,-5.4803,-5.4517,-5.4075,-5.3956,-5.369,-5.3335,-5.2696,-5.2006,-5.1367,0.0,0.0,0.0,0.0,0.0,0.0,0.0,-4.1897,-4.174,-4.1313,-4.0395,-3.9729,-3.9531,-3.8948,0.0,0.0,0.0,0.0,0.0,0.0,0.0,0.0,0.0,0.0,0.0,0.0,0.0,0.0,0.0,0.0,0.0,0.0,0.0,0.0,0.0,0.0,0.0,0.0,0.0,0.0,0.0,0.0,0.0,0.0,0.0,0.0,0.0,0.0,0.0,0.0,-4.3403,-4.4051,-4.4887,-4.566,-4.6542,-4.7675,-4.8477,-4.9159,-4.9987,-5.075,-5.1398,-5.1796,-5.2161,-5.2409,-5.2409,0.0,0.0,0.0,-5.2409,-5.2409,-5.2409,-5.2409,0.0,0.0,0.0,0.0,0.0,0.0,0.0,-5.5466,-5.5246,-5.4717,0.0,-5.3421,0.0,0.0,0.0,0.0,-5.2427,-5.2501,-5.2921,-5.3683,-5.4371,-5.4865,-5.5194,-5.5194,-5.5194,-5.5194,-5.5194,-5.5194,-5.5194,-5.5194,-5.5194,-5.5194,0.0,0.0,-5.4803,-5.4466,-5.4178,-5.3904,-5.3762,-5.3605,-5.3442,-5.2804,-5.2165,-5.1527,0.0,0.0,0.0,0.0,0.0,0.0,0.0,-4.1604,-4.1493,-4.1339,-4.0813,-4.0315,-3.9898,-3.9344,-3.8925,0.0,0.0,0.0,0.0,0.0,0.0,0.0,0.0,0.0,0.0,0.0,0.0,-3.8344,0.0,0.0,0.0,0.0,0.0,0.0,0.0,0.0,0.0,0.0,0.0,0.0,0.0,0.0,0.0,0.0,0.0,0.0,0.0,0.0,0.0,0.0,-4.378,-4.4699,-4.5624,-4.6285,-4.7006,-4.8374,-4.9059,-4.9624,-5.0951,-5.1431,-5.168,-5.2277,-5.2409,-5.2409,-5.2409,-5.2409,0.0,-5.2409,-5.2409,-5.2409,-5.2409,0.0,-5.2409,0.0,-5.2506,0.0,0.0,0.0,0.0,0.0,-5.4691,0.0,0.0,0.0,0.0,0.0,0.0,0.0,0.0,-5.277,-5.3503,-5.4192,-5.485,-5.5194,-5.5194,-5.5194,-5.5194,-5.5194,-5.5194,-5.5194,-5.5194,-5.5194,-5.5194,-5.5093,0.0,0.0,0.0,-5.4075,-5.3852,-5.38,-5.3568,-5.3515,-5.3457,-5.2963,-5.2281,-5.1541,0.0,0.0,0.0,0.0,0.0,0.0,0.0,-4.1339,-4.1043,-4.1043,-4.0802,-4.0504,-4.0003,-3.9645,-3.9344,0.0,0.0,0.0,0.0,0.0,0.0,0.0,0.0,0.0,0.0,0.0,0.0,-3.8832,-3.9025,0.0,0.0,0.0,0.0,0.0,0.0,0.0,0.0,0.0,0.0,0.0,0.0,0.0,0.0,0.0,0.0,0.0,0.0,0.0,0.0,0.0,0.0,-4.4999,-4.6143,-4.6807,-4.7347,-4.8476,0.0,0.0,-5.1065,-5.1796,-5.2343,-5.2393,-5.2409,-5.2409,-5.2409,0.0,-5.2409,-5.2409,-5.2409,-5.2409,-5.2409,-5.2409,-5.2409,0.0,0.0,-5.3453,0.0,0.0,0.0,0.0,0.0,0.0,0.0,0.0,0.0,0.0,0.0,0.0,0.0,-5.2833,-5.3503,-5.4192,-5.485,-5.5194,-5.5194,-5.5194,-5.5194,-5.5194,-5.5194,-5.5194,-5.5194,-5.5194,-5.5042,-5.4854,0.0,0.0,0.0,-5.3904,-5.3762,-5.3515,-5.3515,-5.3515,-5.35,-5.3457,-5.2659,-5.1614,0.0,0.0,0.0,0.0,0.0,0.0,-4.1296,-4.0859,-4.0431,-4.0025,-3.9763,-3.9441,-3.8966,-3.8918,-3.887,0.0,0.0,0.0,0.0,0.0,0.0,0.0,0.0,0.0,0.0,0.0,-3.9182,-3.9441,-3.9623,0.0,0.0,0.0,0.0,0.0,0.0,-4.1845,0.0,0.0,0.0,0.0,0.0,0.0,0.0,0.0,0.0,0.0,0.0,0.0,0.0,0.0,0.0,0.0,-4.6512,-4.7116,0.0,0.0,-4.9904,-5.0469,-5.1628,-5.2194,-5.2409,-5.2409,-5.2409,-5.2409,-5.2409,0.0,-5.2409,-5.2409,-5.2409,-5.2409,-5.2409,-5.2409,-5.2409,0.0,0.0,0.0,0.0,0.0,0.0,0.0,0.0,0.0,0.0,0.0,0.0,0.0,0.0,0.0,0.0,-5.283,-5.3503,-5.4192,-5.485,-5.5194,-5.5194,-5.5194,-5.5194,-5.5194,-5.5194,-5.5194,-5.5194,-5.5042,-5.489,-5.4803,0.0,0.0,0.0,-5.371,-5.362,-5.3515,-5.3515,-5.3515,-5.3515,-5.3515,-5.2702,-5.1614,0.0,0.0,0.0,0.0,0.0,-4.1269,-4.0873,-4.0301,-3.9706,-3.9172,-3.8787,-3.8413,-3.8031,-3.8096,-3.8241,-3.8357,0.0,0.0,0.0,0.0,0.0,0.0,0.0,0.0,0.0,0.0,-3.9662,-4.0023,-4.0209,-4.0662,0.0,0.0,-4.1642,-4.2092,0.0,0.0,0.0,0.0,0.0,0.0,0.0,0.0,0.0,0.0,0.0,0.0,0.0,0.0,0.0,0.0,0.0,0.0,0.0,0.0,0.0,0.0,-5.022,-5.0535,-5.1993,-5.2409,-5.2409,-5.2409,-5.2409,-5.2409,0.0,0.0,-5.2409,-5.2409,-5.2409,-5.2409,-5.2409,-5.2409,-5.2409,0.0,0.0,-5.3445,0.0,0.0,0.0,0.0,0.0,0.0,0.0,0.0,0.0,0.0,0.0,0.0,0.0,0.0,-5.3294,-5.4177,-5.485,-5.5194,-5.5194,-5.5194,-5.5194,-5.5194,-5.5194,-5.5143,-5.5093,-5.4905,-5.4686,0.0,0.0,0.0,0.0,-5.3568,-5.3515,-5.3515,-5.3515,-5.3399,-5.3225,-5.3225,-5.2426,-5.1338,0.0,0.0,0.0,0.0,0.0,0.0,-4.0345,-3.9516,-3.8832,-3.8647,-3.8154,-3.773,-3.7551,-3.7505,-3.7505,-3.7492,0.0,0.0,0.0,0.0,0.0,0.0,0.0,0.0,0.0,0.0,-3.9375,-4.0494,-4.0713,-4.1249,-4.2092,-4.2092,-4.2092,-4.2092,0.0,0.0,0.0,0.0,0.0,0.0,0.0,0.0,0.0,0.0,0.0,0.0,0.0,0.0,0.0,0.0,0.0,0.0,0.0,0.0,0.0,0.0,-5.022,-5.0535,-5.1993,-5.2409,-5.2409,-5.2409,-5.2409,-5.2409,0.0,0.0,-5.2409,-5.2409,-5.2409,-5.2409,-5.2409,-5.2409,-5.2409,-5.2409,-5.2808,0.0,0.0,0.0,0.0,0.0,0.0,0.0,0.0,0.0,0.0,0.0,0.0,0.0,0.0,0.0,-5.283,-5.4162,-5.485,-5.5194,-5.5194,-5.5194,-5.5194,-5.5194,-5.5194,-5.5042,-5.4788,-5.4803,0.0,0.0,0.0,0.0,0.0,-5.3515,-5.3515,-5.3515,-5.3515,-5.3138,-5.2638,-5.2638,-5.1773,-5.0685,0.0,0.0,0.0,0.0,0.0,0.0,0.0,-3.9222,-3.82,-3.7664,-3.7281,-3.6956,-3.6781,-3.6747,-3.6781,-3.6956,0.0,0.0,0.0,0.0,0.0,0.0,0.0,0.0,0.0,0.0,-4.0266,-4.111,-4.1346,-4.1654,-4.2092,-4.2092,-4.2092,-4.2092,-4.2092,-4.2092,0.0,0.0,0.0,0.0,0.0,0.0,0.0,0.0,0.0,0.0,0.0,0.0,0.0,0.0,0.0,0.0,0.0,0.0,0.0,-5.0734,0.0,0.0,-5.2161,-5.2409,-5.2409,-5.2409,-5.2409,-5.2409,-5.2409,0.0,-5.2409,-5.2409,-5.2409,-5.2409,-5.2409,-5.2409,-5.2338,-5.2211,-5.3144,0.0,0.0,0.0,0.0,0.0,0.0,0.0,0.0,0.0,0.0,0.0,0.0,0.0,0.0,0.0,-5.2591,-5.3473,-5.4162,-5.4745,-5.5194,-5.5194,-5.5093,-5.4941,-5.4941,-5.4773,-5.4421,-5.4282,0.0,0.0,0.0,0.0,0.0,-5.3515,-5.3515,-5.3471,-5.3036,-5.2746,-5.2514,-5.2078,-5.1396,-5.072,0.0,0.0,0.0,0.0,0.0,0.0,0.0,-3.9144,-3.8143,-3.7373,-3.7051,-3.6773,-3.643,-3.6405,-3.6452,-3.6581,0.0,0.0,0.0,0.0,0.0,0.0,0.0,0.0,-3.922,-3.9736,-4.0445,-4.1241,-4.1465,-4.1773,-4.2092,-4.2092,-4.2092,-4.2092,-4.2092,-4.2092,0.0,0.0,0.0,0.0,0.0,0.0,-4.2648,0.0,0.0,0.0,0.0,0.0,0.0,0.0,0.0,0.0,0.0,0.0,0.0,0.0,-5.173,-5.1829,0.0,-5.2409,-5.2409,-5.2409,-5.2409,0.0,0.0,0.0,-5.2409,-5.2409,-5.2409,-5.239,-5.2318,-5.2283,-5.2211,-5.2013,-5.2798,0.0,0.0,0.0,0.0,0.0,0.0,0.0,0.0,0.0,0.0,0.0,0.0,0.0,0.0,0.0,-5.2127,-5.2785,-5.3728,-5.4401,-5.482,-5.4958,-5.4941,-5.4803,-5.4671,-5.4436,-5.4149,0.0,0.0,0.0,0.0,0.0,0.0,-5.3515,-5.3384,-5.3109,-5.2731,-5.2333,-5.1802,-5.141,-5.0859,-5.0293,0.0,0.0,0.0,0.0,0.0,0.0,0.0,0.0,-3.8487,-3.7711,-3.7394,-3.7048,-3.6581,-3.6493,-3.6468,-3.6468,0.0,0.0,0.0,0.0,0.0,0.0,0.0,0.0,-3.8589,-3.9264,-4.0085,-4.1043,-4.1283,-4.1647,-4.2092,-4.2092,-4.2092,-4.2092,-4.2092,-4.2092,0.0,0.0,0.0,0.0,0.0,-4.2703,0.0,0.0,0.0,0.0,0.0,0.0,0.0,0.0,0.0,0.0,0.0,0.0,0.0,0.0,0.0,0.0,0.0,-5.2409,-5.2409,-5.2409,-5.2409,0.0,0.0,0.0,0.0,-5.2373,-5.239,-5.2302,-5.2102,-5.2066,-5.1993,-5.1741,-5.2005,0.0,0.0,0.0,0.0,0.0,0.0,0.0,0.0,0.0,0.0,0.0,0.0,0.0,0.0,0.0,0.0,-5.2112,-5.3335,-5.4067,-5.4157,-5.4518,-5.4743,-5.4737,-5.4436,-5.4149,-5.3852,0.0,0.0,0.0,0.0,0.0,0.0,-5.3457,-5.3109,-5.2609,-5.2521,-5.1766,-5.072,-5.0676,-5.0206,-4.9717,0.0,0.0,0.0,0.0,0.0,0.0,0.0,0.0,0.0,0.0,-3.7863,-3.7764,-3.7638,-3.7249,-3.6985,0.0,0.0,0.0,0.0,0.0,0.0,0.0,0.0,0.0,-3.8535,-3.9237,-4.0172,-4.1297,-4.1535,-4.18,-4.2092,-4.2092,-4.2092,-4.2092,-4.2092,-4.2092,0.0,0.0,0.0,0.0,-4.2729,-4.301,0.0,0.0,0.0,0.0,-4.5531,-4.6458,0.0,0.0,0.0,0.0,0.0,0.0,0.0,0.0,-5.2409,-5.2409,-5.2409,0.0,-5.2409,-5.2409,-5.2409,-5.2409,0.0,0.0,0.0,0.0,0.0,-5.2066,-5.17,-5.1647,-5.1462,-5.0924,-5.1777,-5.2228,0.0,0.0,0.0,0.0,0.0,0.0,0.0,0.0,0.0,0.0,0.0,0.0,0.0,0.0,0.0,-5.1439,-5.2055,-5.2881,-5.3878,-5.3991,-5.405,-5.4126,-5.4008,-5.3852,-5.3605,0.0,0.0,0.0,0.0,0.0,-5.3471,-5.2992,-5.2702,-5.2521,-5.1548,-5.0931,-5.0662,-5.009,-4.9863,-4.9717,0.0,0.0,0.0,0.0,0.0,0.0,0.0,0.0,0.0,0.0,0.0,0.0,0.0,0.0,0.0,0.0,0.0,0.0,0.0,0.0,0.0,0.0,0.0,-3.7664,-3.8549,-3.9353,-4.0229,-4.1198,-4.1535,-4.1841,-4.2092,-4.2092,-4.2092,-4.2092,-4.2092,-4.2133,-4.2242,-4.2351,-4.2514,-4.2688,-4.2915,0.0,0.0,0.0,0.0,0.0,-4.653,-4.7603,0.0,-4.9577,-5.0393,-5.1208,0.0,0.0,0.0,0.0,-5.2338,-5.2283,-5.2283,-5.2318,-5.2409,-5.2409,-5.2318,-5.2283,-5.2283,0.0,0.0,0.0,0.0,0.0,-5.1129,-5.1054,-5.081,-5.0175,-5.115,0.0,0.0,0.0,0.0,0.0,0.0,0.0,0.0,0.0,0.0,0.0,0.0,0.0,0.0,0.0,0.0,0.0,-5.1274,-5.1847,-5.2872,-5.3231,-5.3465,-5.3495,-5.3631,-5.3658,-5.3515,0.0,0.0,0.0,0.0,0.0,-5.3051,-5.2702,-5.2274,-5.1679,-5.0996,-5.0481,-5.0226,-4.9799,-4.9717,-4.9717,0.0,0.0,0.0,0.0,0.0,0.0,0.0,0.0,0.0,0.0,0.0,0.0,0.0,0.0,0.0,0.0,0.0,0.0,0.0,0.0,0.0,0.0,0.0,-3.7952,-3.8692,-3.9645,-4.0416,-4.1043,-4.1521,-4.1897,-4.2092,-4.2092,-4.2092,-4.2092,-4.2133,-4.2242,-4.2392,-4.2474,-4.2688,-4.2981,-4.3036,0.0,0.0,0.0,0.0,0.0,0.0,0.0,0.0,-5.0822,-5.1225,-5.1597,-5.221,0.0,0.0,0.0,0.0,0.0,-5.203,-5.2086,-5.2214,-5.2302,-5.2175,-5.1993,-5.1993,0.0,0.0,0.0,0.0,0.0,0.0,-5.0276,0.0,0.0,0.0,0.0,0.0,0.0,0.0,0.0,0.0,0.0,0.0,0.0,0.0,0.0,0.0,0.0,0.0,0.0,0.0,0.0,-5.087,-5.0994,-5.1524,-5.2306,-5.2712,-5.2815,-5.3184,-5.337,-5.3384,-5.3471,0.0,0.0,0.0,0.0,-5.2609,-5.2405,-5.1693,-5.072,-5.0618,-5.0226,-4.9717,-4.9717,-4.9717,-4.9717,0.0,0.0,0.0,0.0,0.0,0.0,0.0,0.0,0.0,0.0,0.0,0.0,0.0,0.0,0.0,0.0,0.0,0.0,0.0,0.0,0.0,-3.8405,-3.8201,-3.844,-3.9172,-4.0126,-4.083,-4.1354,-4.1829,-4.2051,-4.2092,-4.2092,-4.2092,-4.2092,-4.2284,-4.2351,-4.2433,-4.2769,-4.2955,-4.3036,-4.321,0.0,0.0,0.0,0.0,0.0,0.0,0.0,0.0,-5.1161,-5.1694,-5.2224,-5.234,0.0,0.0,0.0,0.0,0.0,-5.1684,-5.1466,-5.1397,-5.1815,-5.1758,-5.1573,-5.1573,0.0,0.0,0.0,0.0,0.0,0.0,-4.9325,-4.9171,0.0,0.0,0.0,0.0,0.0,0.0,0.0,0.0,0.0,0.0,0.0,0.0,0.0,0.0,0.0,0.0,0.0,0.0,0.0,0.0,-5.0482,-5.0378,-5.0964,-5.1473,-5.1824,-5.2463,-5.2717,-5.2731,-5.3268,-5.3515,0.0,0.0,0.0,-5.2536,-5.1461,-5.0909,-5.0612,-5.011,-4.9819,-4.9717,-4.9717,-4.9717,-4.9717,0.0,0.0,0.0,0.0,0.0,0.0,0.0,0.0,0.0,0.0,0.0,0.0,0.0,0.0,0.0,0.0,0.0,0.0,0.0,0.0,0.0,-3.9546,-3.9918,-4.0064,-3.9851,-4.0645,-4.1255,-4.1535,-4.1912,-4.2092,-4.2092,-4.2092,-4.2175,-4.2284,-4.2366,-4.25,-4.2729,-4.2915,-4.3076,-4.3155,0.0,0.0,0.0,0.0,0.0,0.0,0.0,0.0,0.0,0.0,-5.1806,-5.2086,-5.2086,0.0,0.0,0.0,0.0,0.0,-5.1038,-5.064,-5.0315,-5.0377,-5.0586,-5.0771,-5.064,-5.037,0.0,0.0,0.0,0.0,0.0,0.0,0.0,0.0,0.0,0.0,0.0,0.0,0.0,0.0,0.0,0.0,0.0,0.0,0.0,0.0,0.0,0.0,0.0,0.0,0.0,0.0,0.0,0.0,-5.0086,-5.0218,-5.0551,-5.112,-5.1759,-5.2064,-5.2064,-5.2354,-5.2484,0.0,0.0,-5.186,-5.1548,-5.0917,-5.0516,-5.0104,-4.9799,-4.9717,-4.9717,-4.9717,-4.9717,-4.9717,0.0,0.0,0.0,0.0,0.0,0.0,0.0,0.0,0.0,0.0,0.0,0.0,0.0,0.0,0.0,0.0,0.0,0.0,0.0,0.0,-4.0141,-4.0649,-4.1676,-4.1817,-4.0862,-4.1554,-4.198,-4.2134,-4.2285,-4.2237,-4.2092,-4.2133,-4.2242,-4.2392,-4.2514,-4.2729,-4.2981,-4.3036,-4.3155,-4.3305,0.0,0.0,0.0,0.0,0.0,0.0,0.0,0.0,0.0,0.0,0.0,0.0,0.0,0.0,0.0,-5.1503,-5.1097,-5.0608,-5.0315,-4.9781,-4.9316,-4.9066,-4.947,-4.9868,-4.971,-4.9486,-4.9178,-4.8821,0.0,0.0,0.0,0.0,0.0,0.0,0.0,0.0,0.0,0.0,0.0,0.0,0.0,0.0,0.0,0.0,0.0,0.0,0.0,0.0,0.0,0.0,0.0,0.0,0.0,0.0,-5.0038,-4.9781,-4.9979,-5.0452,-5.1091,-5.1396,-5.1396,-5.1556,-5.1614,-5.1614,-5.1468,-5.112,-5.072,-5.0511,-5.0133,-4.9717,-4.9717,-4.9717,-4.9717,-4.9717,-4.9717,-4.9717,0.0,0.0,0.0,0.0,0.0,0.0,0.0,0.0,0.0,0.0,0.0,0.0,0.0,0.0,0.0,0.0,0.0,0.0,0.0,0.0,-4.1852,-4.1768,-4.3004,-4.3271,-4.2458,-4.311,-4.3445,-4.3488,-4.3125,-4.2644,-4.2092,-4.2284,-4.2392,-4.2433,-4.2809,-4.2996,-4.3036,-4.321,-4.329,-4.3349,-4.4003,0.0,0.0,0.0,0.0,0.0,0.0,0.0,0.0,0.0,0.0,0.0,0.0,0.0,-5.1081,-5.0717,-5.0432,-5.012,-4.9541,-4.9031,-4.862,-4.8412,-4.8671,-4.8969,-4.8969,-4.8671,-4.837,-4.837,-4.7992,0.0,0.0,0.0,0.0,0.0,0.0,0.0,0.0,0.0,0.0,0.0,0.0,0.0,0.0,0.0,0.0,0.0,0.0,0.0,0.0,0.0,0.0,0.0,0.0,0.0,-4.9732,-4.9717,-4.9698,-4.9805,-5.0423,-5.0743,-5.0757,-5.1352,-5.1614,-5.1585,-5.1004,-5.0714,-5.0627,-5.0002,-4.9712,-4.9717,-4.9717,-4.9717,-4.9717,-4.9717,-4.9717,-4.9717,0.0,0.0,0.0,0.0,0.0,0.0,0.0,0.0,0.0,0.0,0.0,0.0,0.0,0.0,0.0,0.0,0.0,0.0,0.0,-4.2164,-4.2641,-4.2937,-4.3892,-4.4362,-4.4166,-4.3962,-4.3835,-4.3835,-4.3803,-4.3684,-4.3465,-4.3717,-4.3664,-4.3389,-4.3538,-4.3477,-4.321,-4.325,-4.3529,-4.3917,-4.4212,-4.4959,0.0,0.0,0.0,0.0,0.0,0.0,0.0,0.0,-4.9892,-4.9852,0.0,-5.0065,-4.9931,-4.9939,-4.9566,-4.9138,-4.8769,-4.8328,-4.7922,-4.7709,-4.7794,-4.7934,-4.8061,-4.7992,-4.7837,-4.7709,-4.7553,-4.7559,0.0,0.0,0.0,0.0,0.0,0.0,0.0,0.0,0.0,0.0,0.0,0.0,0.0,0.0,0.0,0.0,0.0,0.0,0.0,0.0,0.0,0.0,0.0,0.0,0.0,-4.9717,-4.9717,-4.9717,-4.9979,-5.011,-5.011,-5.0307,-5.0409,-5.0394,-5.0162,-5.011,-5.0081,-4.9819,-4.9717,-4.9717,-4.9717,-4.9717,-4.9717,-4.9717,-4.9717,-4.9717,0.0,0.0,0.0,0.0,0.0,0.0,0.0,0.0,0.0,0.0,0.0,0.0,0.0,0.0,0.0,0.0,0.0,0.0,-4.2409,-4.2881,-4.341,-4.396,-4.463,-4.5106,-4.5216,-4.4802,-4.4589,-4.4589,-4.4631,-4.4541,-4.4436,-4.4663,-4.4623,-4.4317,-4.4385,-4.4214,-4.3917,-4.3917,-4.4212,-4.4646,-4.487,-4.5593,0.0,0.0,0.0,0.0,0.0,0.0,0.0,0.0,0.0,0.0,0.0,0.0,0.0,0.0,-4.8826,-4.837,-4.8133,-4.7794,-4.7467,-4.7337,0.0,0.0,-4.7467,-4.751,-4.7467,-4.7352,-4.7474,-4.7878,-4.8745,0.0,0.0,0.0,0.0,0.0,0.0,0.0,0.0,0.0,0.0,0.0,0.0,0.0,0.0,0.0,0.0,0.0,0.0,0.0,0.0,0.0,0.0,0.0,0.0,-4.9717,-4.9717,-4.9717,-4.9717,-4.9717,-4.9717,-4.9717,-4.9717,-4.9717,-4.9717,-4.9717,-4.9717,-4.9717,-4.9717,-4.9717,-4.9717,-4.9717,-4.9717,-4.9717,-4.9717,-4.9717,0.0,0.0,0.0,0.0,0.0,0.0,0.0,0.0,0.0,0.0,0.0,0.0,0.0,0.0,0.0,0.0,0.0,0.0,-4.317,-4.3695,-4.4228,-4.4797,-4.523,-4.5504,-4.5504,-4.579,-4.5925,-4.588,-4.5507,-4.5125,-4.4735,-4.4931,-4.5,-4.5028,-4.5221,-4.5304,-4.5289,-4.5289,-4.5289,-4.5364,-4.6052,-4.6419,-4.6716,0.0,0.0,0.0,0.0,0.0,0.0,0.0,-4.8453,0.0,0.0,0.0,0.0,0.0,-4.8175,-4.7922,-4.7666,-4.7467,-4.7309,0.0,0.0,0.0,-4.7309,-4.7309,-4.7309,-4.7309,-4.7848,-4.8701,-4.9956,-5.0196,0.0,0.0,0.0,0.0,0.0,0.0,0.0,0.0,0.0,0.0,0.0,0.0,0.0,0.0,0.0,0.0,0.0,0.0,0.0,0.0,0.0,0.0,0.0,-4.9717,-4.9717,-4.9717,-4.9717,-4.9717,-4.9717,-4.9717,-4.9717,-4.9717,-4.9717,-4.9717,-4.9717,-4.9717,-4.9717,-4.9717,-4.9717,-4.9717,-4.9717,-4.9717,-4.9717,-4.9717,0.0,0.0,0.0,0.0,0.0,0.0,0.0,0.0,0.0,0.0,0.0,0.0,0.0,0.0,0.0,0.0,0.0,0.0,-4.4303,-4.4616,-4.4833,-4.4986,-4.5504,-4.579,-4.579,-4.6194,-4.6284,-4.609,-4.6329,-4.6356,-4.6266,-4.6496,-4.6386,-4.5896,-4.598,-4.5753,-4.5289,-4.5289,-4.5574,-4.6037,-4.6204,-4.6634,-4.7139,0.0,0.0,0.0,0.0,0.0,0.0,0.0,0.0,0.0,0.0,0.0,0.0,-4.7794,-4.7681,-4.751,-4.7424,-4.7352,0.0,-4.7309,0.0,0.0,0.0,-4.7309,0.0,0.0,-4.888,-4.9732,-5.0121,0.0,0.0,0.0,0.0,0.0,0.0,0.0,0.0,0.0,0.0,0.0,0.0,0.0,0.0,0.0,0.0,0.0,0.0,0.0,0.0,0.0,0.0,0.0,0.0,0.0,-4.9717,-4.9717,-4.9717,-4.9717,-4.9717,-4.9717,-4.9717,-4.9717,-4.9717,-4.9717,-4.9717,-4.9717,-4.9717,-4.9717,-4.9717,-4.9717,-4.9717,-4.9717,-4.9717,-4.9717,0.0,0.0,0.0,0.0,0.0,0.0,0.0,0.0,0.0,0.0,-4.1967,-4.2409,0.0,0.0,0.0,0.0,0.0,0.0,0.0,-4.5276,-4.5444,-4.5535,-4.5956,-4.6194,-4.6194,-4.6535,-4.6624,-4.6476,-4.6741,-4.6975,-4.7062,-4.7207,-4.71,-4.6711,-4.6711,-4.6486,-4.6097,-4.6097,-4.6337,-4.6711,-4.6711,-4.695,-4.7294,0.0,0.0,0.0,0.0,0.0,0.0,0.0,0.0,0.0,0.0,0.0,0.0,-4.7424,-4.7381,-4.7309,-4.7309,0.0,0.0,-4.7309,-4.7309,-4.7369,-4.7638,0.0,0.0,0.0,0.0,-5.027,-5.0539,0.0,0.0,0.0,0.0,0.0,0.0,0.0,0.0,0.0,0.0,0.0,0.0,0.0,0.0,0.0,0.0,0.0,0.0,0.0,0.0,0.0,0.0,0.0,0.0,0.0,0.0,-4.9717,-4.9585,-4.9537,-4.9537,-4.9634,-4.9717,-4.9717,-4.9717,-4.9717,-4.9717,-4.9717,-4.9634,-4.9537,-4.9537,-4.9488,-4.9389,-4.9389,-4.9389,-4.9389,0.0,0.0,0.0,0.0,0.0,0.0,0.0,0.0,0.0,0.0,-4.3026,-4.3457,0.0,0.0,0.0,0.0,0.0,0.0,0.0,0.0,-4.6001,-4.6225,-4.6506,-4.6639,-4.6639,-4.6844,-4.6931,-4.6931,-4.6931,-4.7062,-4.7309,-4.7309,-4.7309,-4.7309,-4.7309,-4.7309,-4.7309,-4.7309,-4.7309,-4.7309,-4.7309,-4.7309,-4.7309,-4.7309,0.0,0.0,0.0,0.0,0.0,0.0,0.0,0.0,0.0,0.0,0.0,-4.7309,-4.7309,-4.7309,-4.7309,0.0,0.0,0.0,0.0,0.0,-4.8132,-4.8341,-4.8566,-4.9269,0.0,0.0,0.0,0.0,0.0,0.0,0.0,0.0,0.0,0.0,0.0,0.0,0.0,0.0,0.0,0.0,0.0,0.0,0.0,0.0,0.0,0.0,0.0,0.0,0.0,0.0,0.0,0.0,0.0,0.0,-4.9404,-4.9256,-4.9256,-4.9488,-4.9634,-4.9634,-4.9634,-4.9634,-4.9634,-4.9634,-4.9488,-4.9207,-4.9207,-4.9058,-4.8845,-4.8845,-4.8895,-4.8895,0.0,0.0,0.0,0.0,0.0,0.0,0.0,0.0,0.0,0.0,0.0,0.0,0.0,0.0,0.0,0.0,0.0,0.0,0.0,0.0,-4.6269,-4.6506,-4.6712,-4.6931,-4.7121,-4.7164,-4.7207,-4.7207,-4.7207,-4.7251,-4.7309,-4.7309,-4.7309,-4.7309,-4.7309,-4.7309,-4.7309,-4.7309,-4.7309,-4.7309,-4.7309,-4.7309,-4.7309,-4.7309,-4.7309,0.0,0.0,0.0,0.0,0.0,0.0,0.0,-4.7309,-4.7309,-4.7309,-4.7309,-4.7309,-4.7309,0.0,-4.7309,0.0,0.0,0.0,0.0,0.0,-4.8686,-4.9239,0.0,0.0,0.0,0.0,0.0,0.0,0.0,0.0,0.0,0.0,0.0,0.0,0.0,0.0,0.0,0.0,0.0,0.0,0.0,0.0,0.0,0.0,0.0,0.0,0.0,0.0,0.0,-4.9717,-4.9717,-4.9585,0.0,-4.932,-4.9058,-4.8695,-4.8945,-4.9044,-4.9044,-4.9044,-4.9044,-4.9044,-4.9044,-4.8895,-4.8695,-4.8695,-4.8645,-4.8595,-4.8595,-4.8745,-4.8895,0.0,0.0,0.0,0.0,0.0,0.0,0.0,0.0,0.0,0.0,0.0,0.0,0.0,0.0,0.0,0.0,0.0,0.0,0.0,0.0,0.0,-4.6902,-4.7033,-4.7164,-4.7309,-4.7309,-4.7309,-4.7309,-4.7309,-4.7309,-4.7309,-4.7309,-4.7309,-4.7309,-4.7309,-4.7309,-4.7309,-4.7309,-4.7309,-4.7309,-4.7309,-4.7309,-4.7309,-4.7309,-4.7309,-4.7309,-4.7309,0.0,0.0,0.0,0.0,0.0,0.0,0.0,-4.7309,-4.7309,-4.7309,-4.7309,0.0,0.0,0.0,0.0,0.0,0.0,0.0,0.0,0.0,0.0,0.0,0.0,0.0,0.0,0.0,0.0,0.0,0.0,0.0,0.0,0.0,0.0,0.0,0.0,0.0,0.0,0.0,0.0,0.0,0.0,0.0,0.0,0.0,0.0,0.0,0.0,-4.9717,-4.9585,-4.9453,-4.9305,-4.8795,-4.8078,-4.7349,-4.8027,-4.8215,-4.81,-4.81,-4.81,-4.81,-4.81,-4.7911,-4.7708,-4.7708,-4.7606,-4.7503,-4.7671,-4.7889,-4.8156,0.0,0.0,0.0,0.0,0.0,0.0,0.0,0.0,0.0,0.0,0.0,0.0,0.0,0.0,0.0,0.0,0.0,0.0,0.0,0.0,0.0,0.0,-4.7309,-4.7309,-4.7309,-4.7309,-4.7309,-4.7309,-4.7309,-4.7309,-4.7309,-4.7309,-4.7309,-4.7309,-4.7309,-4.7309,-4.7309,-4.7309,-4.7309,-4.7309,-4.7309,-4.7309,-4.7309,-4.7309,-4.7309,-4.7309,-4.7309,-4.7309,-4.7309,-4.7309,0.0,0.0,0.0,0.0,-4.7309,-4.7309,-4.7309,-4.7309,0.0,0.0,0.0,0.0,0.0,0.0,0.0,0.0,0.0,0.0,0.0,0.0,0.0,0.0,0.0,0.0,0.0,0.0,0.0,0.0,0.0,0.0,0.0,0.0,0.0,0.0,0.0,0.0,0.0,0.0,0.0,0.0,0.0,0.0,0.0,-4.9585,-4.9473,-4.9242,-4.9108,-4.8959,-4.7875,-4.678,-4.5795,-4.6728,-4.7012,-4.6881,-4.6881,-4.6881,-4.6881,-4.6881,-4.6753,-4.6519,-4.6519,-4.6414,-4.627,-4.6612,-4.6939,-4.7301,0.0,0.0,0.0,0.0,0.0,0.0,0.0,0.0,0.0,0.0,-4.5835,-4.5911,0.0,0.0,0.0,0.0,0.0,0.0,-4.6844,0.0,0.0,-4.7309,-4.7309,-4.7309,-4.7309,-4.7309,-4.7309,-4.7309,-4.7309,-4.7309,-4.7309,-4.7309,-4.7309,-4.7309,-4.7309,-4.7309,-4.7309,-4.7309,-4.7309,-4.7309,-4.7309,-4.7309,-4.7309,-4.7309,-4.7309,-4.7309,-4.7309,-4.7309,-4.7309,-4.7309,-4.7309,0.0,0.0,0.0,-4.7309,-4.7309,-4.7309,-4.7309,0.0,0.0,0.0,0.0,0.0,0.0,0.0,0.0,0.0,0.0,0.0,0.0,0.0,0.0,0.0,0.0,0.0,0.0,0.0,0.0,0.0,0.0,0.0,0.0,0.0,0.0,0.0,0.0,0.0,0.0,0.0,0.0,-4.9585,-4.9355,-4.9355,0.0,-4.8681,-4.8631,-4.8243,-4.7545,-4.6442,-4.5529,-4.4884,-4.4776,-4.5127,-4.5714,-4.5714,-4.5714,-4.5714,-4.5714,-4.5582,-4.5355,-4.5355,-4.5475,-4.5755,-4.602,-4.6455,-4.7043,0.0,0.0,0.0,0.0,0.0,0.0,0.0,0.0,0.0,0.0,0.0,-4.618,0.0,0.0,0.0,-4.6756,-4.6756,-4.6887,-4.7121,-4.7207,-4.7474,-4.7833,-4.7863,-4.8027,-4.8401,-4.8401,-4.8401,-4.8401,-4.8042,-4.7863,-4.7848,-4.7474,-4.7309,-4.7309,-4.7309,-4.7309,-4.7309,-4.7309,-4.7309,-4.7309,-4.7164,-4.7062,-4.7062,-4.6946,-4.6902,-4.6902,-4.6902,-4.699,-4.7062,-4.7062,-4.7403,-4.7863,-4.7863,0.0,0.0,0.0,-4.8401,0.0,0.0,0.0,0.0,0.0,0.0,0.0,0.0,0.0,0.0,0.0,0.0,0.0,0.0,0.0,0.0,0.0,0.0,0.0,0.0,0.0,0.0,0.0,0.0,0.0,0.0,0.0,0.0,0.0,0.0,0.0,0.0,-4.9537,-4.9404,-4.9305,-4.9009,0.0,-4.828,-4.799,-4.7222,-4.606,-4.5248,-4.4546,-4.3945,-4.3683,-4.3958,-4.46,-4.46,-4.46,-4.46,-4.46,-4.4505,-4.4422,-4.4422,-4.4531,-4.4694,-4.4951,-4.5435,-4.5954,0.0,0.0,0.0,0.0,0.0,0.0,0.0,0.0,0.0,0.0,0.0,0.0,0.0,0.0,0.0,0.0,-4.7019,-4.7062,-4.7309,-4.7459,-4.7773,-4.8267,-4.8446,-4.8805,-4.9299,-4.9314,-4.9314,-4.9314,-4.882,-4.8446,-4.8282,-4.7788,-4.7459,-4.7309,-4.7309,-4.7309,-4.7309,-4.7309,-4.7251,-4.7164,-4.6931,-4.6741,-4.6609,-4.6403,-4.6372,-4.6473,-4.6518,-4.674,-4.7007,-4.714,-4.7659,-4.8254,-4.8343,-4.8731,0.0,0.0,0.0,0.0,0.0,0.0,0.0,0.0,0.0,0.0,0.0,0.0,0.0,0.0,0.0,0.0,0.0,0.0,0.0,0.0,0.0,0.0,0.0,0.0,0.0,0.0,0.0,0.0,0.0,0.0,0.0,0.0,0.0,0.0,-4.9585,-4.9291,-4.9058,-4.8895,-4.838,-4.7861,-4.7452,-4.6846,-4.5967,-4.4776,-4.4328,-4.378,-4.3295,-4.3085,-4.3265,-4.3666,-4.3666,-4.3666,-4.3666,-4.3666,-4.3666,-4.3666,-4.3666,-4.3721,-4.3832,-4.4094,-4.4463,-4.4938,0.0,0.0,0.0,0.0,0.0,0.0,0.0,0.0,0.0,0.0,0.0,-4.6683,-4.6873,-4.6873,-4.6975,-4.7251,-4.7266,-4.7309,-4.7309,-4.7893,-4.8252,-4.8282,-4.8925,0.0,-4.9314,-4.9314,-4.9314,-4.9314,-4.9284,-4.894,-4.8282,-4.8252,-4.7908,-4.7309,-4.7309,-4.7309,-4.7309,-4.7309,-4.7164,-4.6916,-4.6727,-4.6299,-4.5837,-4.5625,-4.5772,-4.6056,-4.6336,-4.6771,-4.7369,-4.7884,-4.8099,-4.8175,-4.842,-4.8694,-4.8921,0.0,0.0,0.0,0.0,0.0,0.0,0.0,0.0,0.0,0.0,0.0,0.0,0.0,0.0,0.0,0.0,0.0,0.0,0.0,0.0,0.0,0.0,0.0,0.0,0.0,0.0,0.0,0.0,0.0,0.0,0.0,0.0,0.0,-4.9305,-4.8845,-4.833,-4.781,-4.7219,-4.6492,-4.5755,-4.4897,-4.4271,-4.3955,-4.3628,-4.3295,-4.303,-4.303,-4.3042,-4.303,-4.303,-4.303,-4.303,-4.303,-4.303,-4.303,-4.303,-4.3184,-4.3462,-4.3832,-4.4107,-4.4422,0.0,0.0,0.0,0.0,0.0,0.0,0.0,0.0,0.0,0.0,0.0,0.0,0.0,-4.7164,-4.7207,-4.7309,-4.7309,-4.7309,-4.7309,-4.7923,-4.8476,-4.894,-4.9538,-5.0092,-5.0511,-5.0526,-5.0316,-4.9898,-4.9479,-4.8985,-4.8282,-4.7863,-4.7534,-4.7309,-4.7309,-4.7309,-4.7309,-4.7121,-4.6887,-4.6712,-4.6543,-4.614,-4.5659,-4.5633,-4.5579,-4.5567,-4.5664,-4.6047,-4.6534,-4.6775,-4.743,-4.8267,-4.8519,-4.9204,-4.9981,-5.0294,-5.0433,-5.0526,-5.0526,0.0,0.0,0.0,0.0,0.0,0.0,0.0,0.0,0.0,0.0,0.0,0.0,0.0,0.0,0.0,0.0,0.0,0.0,0.0,0.0,0.0,0.0,0.0,0.0,0.0,0.0,0.0,0.0,0.0,-4.8795,-4.8092,-4.7517,-4.7115,-4.6401,-4.5622,-4.4789,-4.4068,-4.3683,-4.3585,-4.3295,-4.3085,-4.2974,-4.2974,-4.2974,-4.2974,-4.2974,-4.2974,-4.2974,-4.2974,-4.2974,-4.2974,-4.2974,-4.3085,-4.3141,-4.3265,-4.3474,-4.3738,0.0,0.0,0.0,0.0,0.0,0.0,0.0,0.0,-4.6756,-4.6873,0.0,0.0,0.0,0.0,-4.7309,-4.7309,-4.7309,-4.7309,-4.7309,-4.8132,-4.8805,-4.9284,-5.0092,-5.0629,-5.0838,-5.0838,-5.0571,-4.9912,-4.9479,-4.8985,-4.8282,-4.7833,-4.7475,-4.7164,-4.699,-4.699,-4.7048,-4.68,-4.6564,-4.6395,-4.6114,-4.5756,-4.5344,-4.5172,-4.5048,-4.4973,-4.4946,-4.5271,-4.5802,-4.6104,-4.6831,-4.7716,-4.8238,-4.9141,-5.0231,-5.0885,-5.1058,-5.1073,-5.1167,-5.1214,0.0,0.0,0.0,0.0,0.0,0.0,0.0,0.0,0.0,0.0,0.0,0.0,0.0,0.0,0.0,0.0,0.0,0.0,0.0,0.0,0.0,0.0,0.0,0.0,0.0,0.0,0.0,0.0,-4.7962,-4.7157,-4.6428,-4.5861,-4.5194,-4.4559,-4.3861,-4.3462,-4.3295,-4.324,-4.3085,-4.2974,-4.2974,-4.2974,-4.2974,-4.2974,-4.2974,-4.2974,-4.2974,-4.2974,-4.2974,-4.2974,-4.2974,-4.2974,-4.2974,-4.2974,-4.3141,-4.3295,0.0,0.0,0.0,0.0,0.0,0.0,0.0,0.0,-4.6916,-4.6916,0.0,0.0,0.0,0.0,0.0,-4.7309,-4.7309,-4.7309,-4.7309,-4.8521,-4.9284,-4.9284,-5.0496,-5.0885,-5.0181,-5.0181,-4.9912,-4.9284,-4.9284,-4.894,-4.8252,-4.8252,-4.7776,-4.6887,-4.6388,-4.6314,-4.6521,-4.6298,-4.6092,-4.5912,-4.5419,-4.5122,-4.4879,-4.4109,-4.4017,-4.4296,-4.423,-4.4586,-4.5194,-4.6072,-4.6387,-4.6531,-4.7452,-4.8417,-4.9508,-5.0475,-5.076,-5.0855,0.0,0.0,0.0,0.0,0.0,0.0,0.0,0.0,0.0,0.0,0.0,0.0,0.0,0.0,0.0,0.0,0.0,0.0,0.0,0.0,0.0,0.0,0.0,0.0,0.0,0.0,0.0,0.0,0.0,-4.7387,-4.6791,-4.5993,-4.5018,-4.3899,-4.3585,-4.324,-4.2974,-4.2974,-4.2974,-4.2974,-4.2974,-4.2974,-4.2974,-4.2974,-4.2974,-4.2974,-4.2974,-4.2974,-4.2974,-4.2974,-4.2974,-4.2974,-4.2974,-4.2974,-4.2974,-4.2974,-4.2974,-4.2974,0.0,0.0,0.0,0.0,0.0,-4.7135,-4.7135,-4.7164,-4.7207,0.0,0.0,0.0,-4.7309,-4.7309,-4.7309,-4.7309,-4.7309,-4.7309,-4.7309,-4.8087,-4.8566,-4.8566,-4.9808,-5.0212,-4.9553,-5.0002,-4.9688,-4.8566,-4.8566,-4.8222,0.0,0.0,-4.7065,-4.6624,-4.6001,-4.5643,-4.5594,-4.5734,-4.5506,-4.516,-4.5578,-4.5177,-4.4399,-4.4414,-4.4261,-4.3984,-4.3971,-4.4225,-4.4572,-4.4776,-4.5315,-4.6046,-4.7475,-4.8417,-4.9128,-4.9815,-5.0154,-5.0313,-5.0361,0.0,0.0,0.0,0.0,0.0,0.0,0.0,0.0,0.0,0.0,0.0,0.0,0.0,0.0,0.0,0.0,0.0,0.0,0.0,0.0,0.0,0.0,0.0,0.0,0.0,0.0,0.0,0.0,-4.6323,-4.594,-4.4951,-4.4094,-4.3572,-4.3252,-4.3085,-4.2974,-4.2974,-4.2974,-4.2974,-4.2974,-4.2974,-4.2974,-4.2974,-4.2974,-4.2974,-4.2974,-4.2974,-4.2974,-4.2974,-4.2974,-4.2974,-4.2974,-4.2974,-4.2974,-4.2974,-4.2974,-4.2974,0.0,0.0,0.0,0.0,0.0,-4.7309,-4.7309,-4.7309,-4.7309,0.0,0.0,0.0,-4.7309,-4.7309,-4.7309,-4.7309,-4.7309,-4.7309,-4.7309,-4.7923,-4.8282,-4.8282,-4.9284,-4.9523,-4.8925,-4.9224,-4.8925,-4.7878,-4.7775,-4.7537,0.0,-4.6653,-4.6343,-4.6105,-4.5381,-4.4945,-4.4747,-4.5113,-4.5123,-4.4943,-4.5261,-4.5006,-4.4425,-4.4401,-4.4094,-4.3653,-4.3543,-4.3598,-4.3751,-4.3916,-4.4505,-4.5422,-4.6569,-4.7475,-4.8179,-4.8802,-4.9213,-4.9488,-4.9732,-4.996,-5.0187,-5.0183,0.0,0.0,0.0,0.0,0.0,0.0,0.0,0.0,0.0,0.0,0.0,0.0,0.0,0.0,0.0,0.0,0.0,0.0,0.0,0.0,0.0,0.0,0.0,0.0,-4.6428,-4.5475,-4.4722,-4.3971,-4.3432,-4.324,-4.3085,-4.2974,-4.2974,-4.2974,-4.2974,-4.2974,-4.2974,-4.2974,-4.2974,-4.2974,-4.2848,-4.269,-4.269,-4.2509,-4.2296,-4.2296,-4.2559,-4.2974,-4.2974,-4.2974,-4.2974,-4.2974,-4.2974,-4.2974,0.0,0.0,-4.7309,-4.7309,-4.7309,-4.7309,-4.7309,-4.7309,-4.7309,0.0,-4.7309,-4.7309,-4.7309,-4.7309,-4.7309,-4.7309,-4.7309,-4.7309,-4.7309,-4.7863,-4.8177,-4.8177,-4.8805,-4.8895,-4.8192,-4.8252,-4.7967,0.0,0.0,-4.6873,-4.6903,-4.6163,-4.571,-4.5491,0.0,0.0,-4.4189,-4.4548,-4.4822,-4.5019,-4.4823,-4.4652,0.0,-4.4052,-4.364,-4.3338,-4.3085,-4.2974,-4.303,-4.3283,-4.3958,-4.4722,-4.5262,-4.6019,-4.6832,-4.7564,-4.805,-4.8431,-4.8916,-4.9065,-4.9164,-4.9424,-4.9473,0.0,-4.9256,-4.9207,0.0,0.0,0.0,0.0,0.0,0.0,0.0,0.0,0.0,0.0,0.0,0.0,0.0,0.0,0.0,0.0,0.0,0.0,0.0,-4.6925,-4.5967,-4.483,-4.3449,-4.3129,-4.2974,-4.2974,-4.2974,-4.2974,-4.2974,-4.2974,-4.2949,-4.2886,-4.2886,-4.2848,-4.2798,-4.2798,-4.2522,-4.2125,-4.2125,-4.1794,-4.1288,-4.1288,-4.1957,-4.2886,-4.2886,-4.2924,-4.2974,-4.2974,-4.2974,-4.2974,0.0,-4.7309,-4.7309,-4.7309,-4.7309,-4.7309,-4.7309,-4.7309,-4.7309,-4.7309,-4.7309,-4.7309,-4.7309,-4.7309,-4.7309,-4.7309,-4.7309,-4.7309,-4.7309,-4.7429,-4.7504,-4.7504,-4.8132,-4.8177,-4.7519,-4.8012,-4.7967,-4.7309,0.0,0.0,-4.7016,-4.633,-4.5841,-4.565,-4.5153,-4.4796,-4.4552,0.0,0.0,-4.4767,-4.4727,-4.4427,-4.3997,-4.364,-4.3295,-4.3085,-4.303,-4.2974,-4.303,-4.3283,-4.3696,-4.4216,-4.4925,-4.5462,-4.5967,-4.6519,-4.6884,-4.7143,-4.7246,-4.7578,-4.7985,-4.805,-4.8201,0.0,-4.8581,-4.8645,0.0,0.0,0.0,0.0,0.0,0.0,0.0,0.0,0.0,0.0,0.0,0.0,0.0,0.0,0.0,0.0,0.0,0.0,-4.7494,-4.6599,-4.5059,-4.3874,-4.3141,-4.303,-4.2974,-4.2974,-4.2974,-4.2974,-4.2974,-4.2974,-4.2748,-4.2376,-4.2376,-4.2082,-4.1601,-4.1601,-4.1539,-4.1505,-4.1505,-4.1388,-4.1288,-4.1288,-4.1731,-4.2376,-4.2376,-4.264,-4.2974,-4.2974,-4.2974,-4.2974,-4.7309,-4.7309,-4.7309,-4.7309,-4.7309,-4.7309,-4.7309,-4.7309,-4.7309,-4.7309,-4.7309,-4.7251,-4.7121,-4.7121,-4.7077,-4.6946,-4.6946,-4.699,-4.7062,-4.7121,-4.7164,-4.7309,-4.7623,-4.7638,-4.7309,-4.7477,-4.7598,-4.7598,0.0,0.0,0.0,-4.6034,-4.5428,-4.5338,-4.4695,-4.4332,-4.4217,0.0,-4.4175,-4.4313,-4.4463,0.0,-4.3832,-4.3517,-4.324,-4.2974,-4.2974,-4.2974,-4.303,-4.3129,-4.3406,-4.3696,-4.411,-4.4655,-4.5221,-4.5475,-4.5848,-4.6218,-4.6218,-4.6414,-4.6596,-4.6583,-4.6791,0.0,0.0,-4.7466,0.0,0.0,0.0,0.0,0.0,0.0,0.0,0.0,0.0,0.0,0.0,0.0,0.0,0.0,0.0,0.0,0.0,0.0,-4.6742,-4.5422,-4.43,-4.3474,-4.303,-4.2974,-4.2974,-4.2974,-4.2974,-4.2974,-4.2974,-4.2698,-4.2489,-4.2213,-4.1869,-4.1605,-4.1288,-4.1288,-4.1137,-4.0874,-4.0874,-4.0777,-4.0513,-4.0513,-4.084,-4.1367,-4.1643,-4.1919,-4.2158,-4.2158,-4.2158,-4.2158,-4.7279,-4.7309,-4.7309,-4.7309,-4.7309,-4.7309,-4.7309,-4.7309,-4.7309,-4.7309,-4.7309,-4.7207,-4.6931,-4.6887,-4.6756,-4.6535,-4.6491,-4.6535,-4.6741,-4.68,-4.6975,-4.7207,-4.7207,-4.7267,-4.7402,-4.7109,-4.7244,-4.785,0.0,0.0,0.0,0.0,-4.5033,-4.4902,-4.4243,-4.3935,-4.3814,0.0,0.0,-4.3899,0.0,-4.3984,-4.3776,-4.3474,-4.3184,-4.2974,-4.2974,-4.2974,-4.2974,-4.2974,-4.3129,-4.3338,-4.3394,-4.389,-4.445,-4.4518,-4.4897,-4.5287,-4.5287,-4.5287,-4.5261,-4.5275,-4.5449,-4.5702,0.0,0.0,0.0,0.0,0.0,0.0,0.0,0.0,0.0,0.0,0.0,0.0,0.0,0.0,0.0,0.0,0.0,0.0,0.0,0.0,-4.594,-4.4422,-4.3738,-4.3295,-4.303,-4.2974,-4.2924,-4.2879,-4.2879,-4.2773,-4.266,-4.2221,-4.1999,-4.1886,-4.1392,-4.1075,-4.0962,-4.0962,-4.0777,-4.0362,-4.0362,-4.0111,-3.9697,-3.9697,-3.9961,-4.0413,-4.0912,-4.12,-4.1288,-4.1288,-4.1288,-4.1288,-4.7189,-4.7309,-4.7309,-4.7309,-4.7309,-4.7309,-4.7309,-4.7309,-4.7309,-4.7309,-4.7309,-4.7207,-4.6931,-4.6756,-4.6535,-4.6269,-4.6016,-4.6016,-4.6254,-4.6491,-4.6712,-4.6931,-4.6975,-4.7242,-4.7822,-4.733,-4.7289,-4.7712,-4.6957,0.0,0.0,0.0,0.0,0.0,-4.4658,0.0,0.0,0.0,-4.3899,0.0,-4.3628,-4.3504,0.0,-4.3141,-4.303,-4.2974,-4.2974,-4.2974,-4.2974,0.0,-4.303,-4.3085,0.0,-4.3449,-4.3628,-4.3874,-4.4064,-4.4107,-4.4107,-4.4107,-4.4161,-4.4354,-4.4463,-4.4694,-4.5488,0.0,-4.5861,-4.6376,0.0,0.0,0.0,0.0,0.0,0.0,0.0,0.0,0.0,0.0,0.0,0.0,0.0,0.0,0.0,0.0,0.0,-4.4367,-4.3738,-4.3295,-4.303,-4.2974,-4.2748,-4.2313,-4.2301,-4.202,-4.1476,-4.1413,-4.1178,-4.0701,-4.0639,-4.035,-3.9885,-3.9885,-3.9848,-3.9785,-3.9785,-3.9747,-3.9697,-3.9697,-3.9735,-3.9835,-4.0388,-4.0862,-4.1288,-4.1288,-4.1288,-4.1288,-4.7174,-4.7309,-4.7309,-4.7309,-4.7309,-4.7309,-4.7309,-4.7309,-4.7309,-4.7309,-4.7309,-4.7164,-4.6771,-4.6388,-4.5986,-4.558,-4.5216,-4.517,-4.5535,-4.5671,-4.6101,-4.7021,-4.6901,-4.7209,-4.7992,-4.7346,-4.7275,-4.7827,-4.6708,-4.633,0.0,0.0,0.0,0.0,-4.4177,0.0,-4.3585,0.0,-4.3389,0.0,0.0,0.0,0.0,-4.303,-4.2974,-4.2974,-4.2974,-4.2974,-4.2974,0.0,-4.2974,0.0,0.0,0.0,0.0,-4.3585,-4.3764,-4.3844,-4.364,-4.3585,-4.3585,-4.3543,0.0,0.0,-4.4219,0.0,-4.4897,0.0,0.0,0.0,0.0,0.0,0.0,0.0,0.0,0.0,0.0,0.0,0.0,0.0,0.0,0.0,0.0,0.0,0.0,0.0,0.0,-4.299,-4.2564,-4.2552,-4.2246,-4.1706,-4.1681,-4.158,-4.1288,-4.0962,-4.0752,-4.0513,-4.0187,-3.9923,-3.9697,-3.9697,-3.9697,-3.9697,-3.9697,-3.9697,-3.9697,-3.9697,-3.9697,-3.9722,-3.9948,-4.0174,-4.0388,-4.0388,-4.0388,-4.0388,-4.6905,-4.7174,-4.7309,-4.7309,-4.7309,-4.7309,-4.7309,-4.7309,-4.7266,-4.7207,-4.7207,-4.699,-4.6462,-4.5941,-4.5429,-4.494,-4.4476,-4.435,-4.4755,-4.5004,-4.5674,-4.6826,-4.6784,-4.7128,-4.8032,-4.7238,-4.7115,-4.7574,-4.6532,-4.6098,0.0,0.0,-4.4559,-4.4341,0.0,-4.3338,-4.3295,0.0,-4.2974,-4.2974,-4.2974,-4.2974,-4.2974,-4.2974,-4.2974,-4.2999,-4.315,-4.32,-4.3225,-4.3376,-4.3426,0.0,-4.325,0.0,-4.3485,0.0,-4.3474,-4.3598,-4.3351,0.0,0.0,0.0,0.0,0.0,0.0,0.0,0.0,0.0,-4.4518,0.0,0.0,0.0,-4.506,-4.506,0.0,0.0,0.0,0.0,0.0,0.0,0.0,0.0,0.0,0.0,0.0,0.0,-4.3321,0.0,-4.2238,-4.2213,-4.1831,-4.1075,-4.1062,-4.0987,-4.0837,-4.0488,-4.0287,-4.0287,-3.9885,-3.9697,-3.9697,-3.9697,-3.9697,-3.9697,-3.9697,-3.9697,-3.9697,-3.9697,-3.9697,-3.9697,-3.9697,-3.9697,-3.9697,-3.9697,-3.9697,-3.9697,-4.6175,-4.686,-4.7309,-4.7309,-4.7309,-4.7309,-4.7309,-4.7309,-4.7207,-4.6975,-4.6916,-4.6668,-4.597,-4.5444,-4.494,-4.4457,-4.396,-4.3757,-4.4035,-4.483,-4.5534,-4.6005,-4.6338,-4.6949,-4.7881,-4.7108,-4.6763,-4.6857,-4.6544,-4.5821,0.0,0.0,-4.4232,-4.3449,-4.3394,-4.324,-4.303,-4.2974,-4.2974,-4.2974,-4.2974,-4.2974,-4.2974,0.0,-4.2974,-4.3049,-4.3589,0.0,0.0,-4.4392,-4.4568,0.0,0.0,0.0,0.0,0.0,0.0,0.0,0.0,0.0,0.0,-4.2974,0.0,0.0,0.0,0.0,-4.3517,0.0,-4.3955,-4.3955,-4.3955,-4.3955,-4.3955,-4.3955,-4.3955,0.0,0.0,0.0,0.0,0.0,0.0,0.0,0.0,0.0,0.0,0.0,-4.3321,0.0,-4.2238,-4.2213,-4.1668,-4.0576,-4.0538,-4.0287,-3.9747,-3.9722,-3.9722,-3.9722,-3.9697,-3.9697,-3.9697,-3.9697,-3.9697,-3.9697,-3.9697,-3.9697,-3.9697,-3.9697,-3.9697,-3.9697,-3.9697,-3.9697,-3.9697,-3.9697,-3.9697,-3.9697,-4.5589,-4.6546,-4.7309,-4.7309,-4.7309,-4.7309,0.0,-4.7164,0.0,0.0,-4.6535,-4.6165,-4.5444,-4.4926,-4.4369,-4.3662,-4.3504,-4.3555,-4.3861,-4.4472,-4.5327,-4.6483,-4.6234,-4.6523,-4.7452,-4.6699,-4.6277,-4.627,-4.5569,-4.51,-4.4668,-4.411,-4.367,-4.3394,0.0,-4.3085,0.0,0.0,0.0,0.0,0.0,-4.2974,-4.2974,0.0,0.0,-4.3539,-4.3727,-4.4041,0.0,-4.4556,-4.4618,-4.4593,-4.4405,-4.4342,-4.4229,-4.3689,-4.3526,0.0,0.0,0.0,-4.2974,-4.2974,0.0,0.0,0.0,0.0,0.0,0.0,0.0,0.0,-4.3321,-4.3321,-4.3321,-4.3321,-4.3321,-4.3321,0.0,0.0,0.0,0.0,0.0,0.0,0.0,0.0,0.0,-4.3585,-4.3197,-4.2572,0.0,-4.1605,-4.1103,-4.0011,-3.9973,-3.9885,-3.9697,-3.9697,-3.9697,-3.9697,-3.9697,-3.9697,-3.9697,-3.9697,-3.9697,-3.9697,-3.9697,-3.9697,-3.9697,-3.9697,-3.9697,-3.9697,-3.9697,-3.9697,-3.9697,-3.9697,-3.9697,-3.9697,-4.5618,-4.6546,-4.7309,-4.7309,-4.7309,0.0,0.0,0.0,0.0,0.0,-4.6001,0.0,-4.4801,0.0,-4.3743,-4.3136,-4.317,-4.3385,-4.362,-4.4276,-4.5153,-4.6312,-4.5904,-4.6048,-4.6807,-4.6126,-4.5702,-4.5702,-4.5167,-4.4735,-4.4409,-4.3861,-4.3462,-4.324,0.0,-4.2974,-4.2974,0.0,-4.2974,0.0,0.0,-4.2974,0.0,0.0,-4.3489,-4.3853,0.0,-4.4631,-4.4957,-4.5158,-4.5221,-4.5183,-4.4995,-4.4932,-4.4819,-4.4254,-4.4091,-4.4016,-4.3664,-4.3426,0.0,-4.3275,-4.3124,0.0,-4.2974,0.0,0.0,0.0,0.0,0.0,-4.2974,-4.2974,-4.2974,-4.2974,-4.2974,-4.2974,0.0,-4.2974,0.0,0.0,0.0,0.0,0.0,0.0,-4.3394,-4.3394,-4.3129,-4.2497,0.0,0.0,-4.0786,-3.9722,-3.9697,-3.9697,-3.9697,-3.9697,-3.9697,-3.9697,-3.9697,-3.9697,-3.9697,-3.9697,-3.9697,-3.9697,-3.9697,-3.9697,-3.9697,-3.9697,-3.9697,-3.9697,-3.9697,-3.9697,-3.9697,-3.9697,-3.9697,-3.9697,-4.6145,-4.686,-4.7309,0.0,-4.7309,0.0,0.0,0.0,-4.6328,0.0,-4.5276,-4.4801,-4.4068,-4.3471,-4.3088,-4.2887,-4.2977,-4.3138,-4.3375,-4.4233,-4.4926,-4.5484,-4.5302,-4.5395,-4.5914,-4.5395,-4.5126,-4.5139,-4.5126,-4.4707,-4.3899,-4.3899,-4.3555,-4.2974,-4.2974,0.0,-4.2974,-4.2974,-4.2974,-4.2974,-4.2974,-4.2999,-4.3074,-4.3627,0.0,-4.4028,-4.5095,-4.551,-4.561,-4.6137,-4.6313,-4.6225,-4.5698,-4.5535,-4.5409,-4.4832,-4.4669,-4.4656,-4.4631,-4.4242,-4.384,-4.384,0.0,0.0,0.0,0.0,-4.3024,0.0,0.0,0.0,0.0,-4.2974,-4.2974,-4.2974,-4.2974,-4.2974,-4.2974,-4.2974,-4.2974,0.0,0.0,0.0,0.0,-4.3394,-4.3394,-4.3394,-4.3116,-4.2472,0.0,0.0,0.0,-3.9722,-3.9697,-3.9697,-3.9697,-3.9697,-3.9697,-3.9697,-3.9697,-3.9697,-3.9697,-3.9697,-3.9697,-3.9697,-3.9697,-3.9697,-3.9697,-3.9697,-3.9697,-3.9697,-3.9697,-3.9697,-3.9697,-3.9697,-3.9697,-3.9697,-4.6249,-4.686,-4.7309,0.0,-4.7309,-4.7207,0.0,0.0,0.0,0.0,-4.5152,-4.4583,-4.3804,-4.3245,-4.2776,-4.2324,-4.2924,0.0,-4.3497,-4.448,-4.5116,-4.5276,-4.498,-4.4789,-4.4735,-4.4435,-4.4326,-4.4531,-4.4326,-4.4119,-4.3899,0.0,0.0,-4.2974,0.0,0.0,-4.2974,-4.2974,-4.2974,-4.2974,-4.2974,-4.3225,0.0,0.0,-4.4681,-4.5095,-4.5384,-4.5748,-4.6125,-4.6263,-4.6313,-4.6288,-4.615,-4.61,-4.5987,-4.5434,-4.5259,-4.5171,-4.4744,-4.4518,-4.4405,-4.4405,-4.4305,-4.4204,0.0,0.0,0.0,0.0,0.0,0.0,0.0,0.0,-4.2974,-4.2974,-4.2974,-4.2974,-4.2974,-4.2974,0.0,-4.2974,0.0,0.0,0.0,-4.3085,-4.3085,-4.3085,-4.2652,-4.207,0.0,0.0,0.0,-3.9722,-3.9697,-3.9697,-3.9697,-3.9697,-3.9697,-3.9697,-3.9697,-3.9697,-3.9697,-3.9697,-3.9697,-3.9697,-3.9697,-3.9697,-3.9697,-3.9697,-3.9697,-3.9697,-3.9697,-3.9697,-3.9697,-3.9697,-3.9697,-3.9697,-4.6696,0.0,0.0,-4.7309,0.0,0.0,-4.6931,0.0,0.0,-4.5444,-4.5,0.0,-4.3566,-4.3115,-4.2679,-4.2128,-4.2905,0.0,-4.3516,0.0,0.0,-4.4951,-4.4585,-4.4258,-4.4107,-4.3819,-4.3819,-4.4107,-4.4107,-4.3997,-4.3899,0.0,0.0,0.0,0.0,-4.3141,0.0,-4.2974,-4.2974,-4.2974,-4.2974,0.0,0.0,-4.4418,-4.4982,-4.5522,-4.5761,-4.605,-4.6313,-4.6313,-4.6313,-4.6313,-4.6313,-4.6313,-4.625,-4.5937,-4.5849,-4.5773,-4.5447,-4.5183,-4.4995,-4.4995,-4.4819,-4.4618,-4.4618,-4.438,-4.4091,0.0,0.0,0.0,0.0,0.0,0.0,-4.2974,-4.2974,-4.2974,-4.2974,-4.2974,0.0,0.0,-4.2974,0.0,0.0,0.0,-4.2974,-4.2974,-4.2527,0.0,0.0,0.0,0.0,0.0,-3.9697,-3.9697,-3.9697,-3.9697,-3.9697,-3.9697,-3.9697,-3.9697,-3.9697,-3.9697,-3.9697,-3.9697,-3.9697,-3.9697,-3.9697,-3.9697,-3.9697,-3.9697,-3.9697,-3.9697,-3.9697,-3.9697,-3.9697,-3.9697,-4.7189,0.0,0.0,0.0,0.0,0.0,0.0,-4.6756,0.0,-4.5307,0.0,-4.4415,-4.3512,-4.3115,-4.2728,-4.2128,0.0,-4.3425,-4.34,-4.4201,-4.4681,-4.4681,-4.4161,-4.3899,-4.3844,-4.3517,-4.353,-4.3832,-4.4107,-4.4107,-4.3899,0.0,0.0,0.0,0.0,0.0,0.0,-4.2974,-4.2974,0.0,-4.2974,-4.335,-4.3966,-4.4443,-4.5033,-4.566,-4.6137,-4.6313,-4.6313,-4.6313,-4.6313,-4.6313,-4.6313,-4.6313,-4.6313,-4.6313,-4.6313,-4.6313,-4.6313,-4.5962,-4.5598,-4.5598,-4.5221,-4.4844,-4.4844,-4.4782,-4.4581,-4.4028,-4.3853,0.0,0.0,0.0,0.0,-4.2974,-4.2974,-4.2974,0.0,-4.2974,-4.2974,-4.2974,0.0,0.0,0.0,0.0,0.0,0.0,0.0,0.0,0.0,0.0,0.0,0.0,-3.9697,0.0,-3.9697,0.0,-3.9697,-3.9697,-3.9697,-3.9697,-3.9697,-3.9697,-3.9697,-3.9697,-3.9697,-3.9697,-3.9697,-3.9697,-3.9697,-3.9697,-3.9697,-3.9697,-3.9697,-3.9697,-3.9697,-3.9697,-4.7279,0.0,0.0,0.0,0.0,-4.7266,-4.7251,-4.7019,-4.658,-4.588,-4.5549,-4.4986,-4.3988,-4.3437,-4.2846,-4.2177,-4.2905,0.0,0.0,0.0,0.0,-4.4367,-4.4052,-4.3776,-4.3517,-4.3184,-4.3184,-4.3517,-4.3819,-4.3955,-4.3899,0.0,0.0,0.0,0.0,0.0,-4.2974,-4.2974,0.0,-4.2974,-4.2974,-4.3576,-4.4493,-4.4593,-4.5271,-4.6175,-4.6276,-4.6313,-4.6313,-4.6313,-4.6313,-4.6313,-4.6313,-4.6313,-4.6313,-4.6313,-4.6313,-4.6313,-4.6313,-4.6238,-4.6163,-4.6163,-4.6087,-4.6012,-4.6012,-4.566,-4.5171,-4.4593,-4.4116,-4.3639,-4.3074,0.0,0.0,0.0,0.0,0.0,0.0,0.0,0.0,-4.2974,0.0,-4.2974,0.0,0.0,0.0,0.0,0.0,0.0,0.0,0.0,0.0,0.0,0.0,0.0,0.0,0.0,0.0,-3.9697,-3.9697,-3.9697,-3.9697,-3.9697,-3.9697,-3.9697,-3.9697,-3.9697,-3.9697,-3.9697,-3.9697,-3.9697,-3.9697,-3.9697,-3.9697,-3.9697,-3.9697,-3.9697,0.0,0.0,-4.7309,0.0,0.0,0.0,0.0,-4.7207,0.0,-4.6328,-4.615,-4.5685,-4.4662,-4.4228,-4.3648,-4.2749,-4.3359,-4.3631,-4.3218,-4.4148,-4.4572,-4.4313,-4.4052,-4.3764,-4.3394,-4.3129,-4.3129,-4.3394,-4.3708,-4.3955,-4.4107,0.0,0.0,0.0,0.0,-4.3141,0.0,0.0,0.0,-4.2974,-4.2974,-4.3463,-4.4229,-4.4518,-4.5146,-4.5924,-4.6213,-4.6313,-4.6313,-4.6313,-4.6313,-4.6313,-4.6313,-4.6313,-4.6313,-4.6313,-4.6313,-4.6313,-4.6313,-4.6313,-4.6313,-4.6313,-4.6313,-4.6313,-4.6313,-4.61,-4.5748,-4.5183,-4.4618,-4.3978,-4.3137,-4.2974,0.0,0.0,0.0,0.0,0.0,0.0,-4.2974,-4.2974,-4.2974,-4.2974,0.0,0.0,0.0,0.0,0.0,0.0,0.0,0.0,0.0,0.0,0.0,0.0,0.0,0.0,0.0,-3.9697,-3.9697,-3.9697,-3.9697,-3.9697,-3.9697,-3.9697,-3.9697,-3.9697,-3.9697,-3.9697,-3.9697,-3.9697,-3.9697,-3.9697,-3.9697,-3.9697,-3.9697,-3.9697,0.0,-4.7309,0.0,0.0,-4.7309,0.0,-4.7309,-4.7309,-4.7164,-4.6727,-4.6668,-4.6314,-4.5338,-4.4972,-4.4355,-4.3362,-4.3737,-4.3857,-4.3412,-4.4137,-4.4496,-4.4409,-4.4107,-4.3874,-4.3628,-4.3252,-4.324,-4.3517,-4.3776,-4.4052,0.0,-4.4572,0.0,0.0,0.0,0.0,0.0,0.0,-4.2974,-4.2974,-4.2974,-4.3313,-4.3865,-4.4418,-4.4982,-4.556,-4.6112,-4.6313,-4.6313,-4.6313,-4.6313,-4.6313,-4.6313,-4.6313,-4.6313,-4.6313,-4.6313,-4.6313,-4.6313,-4.6313,-4.6313,-4.6313,-4.6313,-4.6313,-4.6313,-4.6313,-4.615,-4.5598,-4.4932,-4.4154,-4.3162,-4.2974,0.0,0.0,0.0,0.0,0.0,0.0,0.0,0.0,-4.2974,-4.2974,-4.2974,0.0,0.0,0.0,0.0,-4.2045,-4.1326,-4.0874,0.0,0.0,0.0,0.0,-3.9697,0.0,-3.9697,0.0,-3.9697,-3.9697,-3.9697,-3.9697,-3.9697,-3.9697,-3.9697,-3.9697,-3.9697,-3.9697,-3.9697,-3.9697,-3.9697,-3.9697,-3.9697,-3.9697,-3.9697,-3.9697,0.0,0.0,0.0,0.0,0.0,0.0,0.0,-4.7309,-4.7207,-4.6931,-4.6887,-4.6565,-4.5837,-4.5338,-4.4648,-4.3648,-4.343,-4.3402,-4.3385,-4.3756,-4.4186,-4.4655,-4.4422,-4.4258,-4.4203,-4.3683,-4.353,0.0,-4.3899,-4.4052,0.0,0.0,0.0,0.0,0.0,0.0,0.0,-4.2974,-4.2974,-4.2974,-4.2974,-4.3313,-4.3865,-4.4418,-4.4982,-4.556,-4.6112,-4.6313,-4.6313,-4.6313,-4.6313,-4.6313,-4.6313,-4.6313,-4.6313,-4.6313,-4.6313,-4.6313,-4.6313,-4.6313,-4.6313,-4.6313,-4.6313,-4.6313,-4.6313,-4.6313,-4.615,-4.5598,-4.4631,-4.3689,-4.3087,-4.2974,-4.2974,0.0,0.0,0.0,0.0,0.0,-4.2974,-4.2974,0.0,0.0,0.0,0.0,0.0,0.0,0.0,-4.2446,-4.1338,-4.1238,0.0,-3.9722,0.0,-3.9697,-3.9697,-3.9697,0.0,-3.9697,-3.9697,-3.9697,-3.9697,-3.9697,-3.9697,-3.9697,-3.9697,-3.9697,-3.9697,-3.9697,-3.9697,-3.9697,-3.9697,-3.9697,-3.9697,-3.9697,-3.9697,-3.9697,0.0,0.0,0.0,0.0,0.0,0.0,0.0,-4.7309,-4.7251,-4.7164,-4.7164,-4.6975,-4.6521,-4.6031,-4.5429,-4.4541,-4.4215,-4.4049,-4.4103,-4.4292,-4.4613,-4.5194,-4.4789,-4.4518,-4.4518,-4.3984,-4.3819,0.0,0.0,0.0,0.0,0.0,0.0,0.0,0.0,-4.3129,-4.2974,-4.2974,-4.2974,-4.2974,-4.2974,-4.3112,-4.3363,-4.3915,-4.448,-4.5045,-4.561,-4.6037,-4.6313,-4.6313,-4.6313,-4.6313,-4.6313,-4.6313,-4.6313,-4.6313,-4.6313,-4.6313,-4.6313,-4.6313,-4.6313,-4.6313,-4.6313,-4.6313,-4.6313,-4.6313,-4.625,-4.6024,-4.5083,-4.4028,-4.3137,-4.2974,-4.2974,0.0,0.0,0.0,0.0,0.0,0.0,-4.2974,0.0,-4.2974,0.0,0.0,0.0,0.0,0.0,0.0,-4.1869,-4.1517,0.0,-4.0212,0.0,-3.9697,-3.9697,-3.9697,-3.9697,-3.9697,-3.9697,-3.9697,-3.9697,-3.9697,-3.9697,-3.9697,-3.9697,-3.9697,-3.9697,-3.9697,-3.9697,-3.9697,-3.9697,-3.9697,-3.9697,-3.9697,-3.9697,-3.9697,-4.7309,0.0,-4.7309,0.0,-4.7309,-4.7309,-4.7309,-4.7309,-4.7309,-4.7309,-4.7309,-4.7207,-4.7019,-4.6624,-4.6031,-4.5398,-4.4776,-4.4491,-4.4452,-4.449,-4.4782,-4.5315,-4.5074,0.0,-4.4843,-4.4367,-4.4203,-4.4422,-4.4367,0.0,0.0,0.0,0.0,0.0,-4.3696,-4.3419,-4.3265,-4.3141,-4.3141,-4.3141,-4.303,-4.2974,-4.3037,-4.3589,-4.4041,-4.448,-4.5221,-4.5736,-4.61,-4.625,-4.6313,-4.6313,-4.6313,-4.6313,-4.6313,-4.6313,-4.6313,-4.6313,-4.6313,-4.6313,-4.6313,-4.6313,-4.6313,-4.6313,-4.6313,-4.6313,-4.6213,-4.5886,-4.5183,-4.4279,-4.3187,-4.2974,-4.2974,-4.2974,0.0,0.0,0.0,0.0,0.0,0.0,-4.2974,-4.2974,-4.2974,0.0,0.0,0.0,0.0,0.0,0.0,0.0,0.0,0.0,0.0,0.0,0.0,0.0,-3.9697,-3.9697,-3.9697,-3.9697,-3.9697,-3.9697,-3.9697,-3.9697,-3.9697,-3.9697,-3.9697,-3.9697,-3.9697,-3.9697,-3.9697,-3.9697,-3.9697,-3.9697,-3.9697,-3.9697,-4.7309,-4.7309,-4.7309,-4.7309,-4.7309,-4.7309,-4.7309,-4.7309,-4.7309,-4.7309,-4.7309,-4.7309,-4.7309,-4.6858,-4.6358,-4.5837,-4.4926,-4.4319,-4.4135,-4.4161,-4.4347,0.0,0.0,-4.5448,-4.518,-4.4843,-4.4668,-4.4668,0.0,0.0,-4.4668,0.0,0.0,-4.4258,-4.3997,-4.3899,-4.3899,-4.3517,-4.3394,-4.3394,-4.3141,-4.2974,-4.3037,-4.3589,-4.3802,-4.3966,-4.5083,-4.5497,-4.5585,-4.6125,-4.6313,-4.6313,-4.6313,-4.6313,-4.6313,-4.6313,-4.6313,-4.6313,-4.6313,-4.6313,-4.6313,-4.6313,-4.6313,-4.6313,-4.6313,-4.6313,-4.5987,-4.4869,-4.4631,-4.4279,-4.3187,-4.2974,-4.2974,-4.2974,0.0,0.0,0.0,0.0,0.0,-4.2974,-4.2974,-4.2974,-4.2974,0.0,0.0,0.0,0.0,0.0,0.0,0.0,0.0,-4.0538,-3.9986,0.0,-3.9697,-3.9697,-3.9697,-3.9697,-3.9697,-3.9697,-3.9697,-3.9697,-3.9697,-3.9697,-3.9697,-3.9697,-3.9697,-3.9697,-3.9697,-3.9697,-3.9697,-3.9697,-3.9697,-3.9697,-3.9697,-3.9697,-4.7309,-4.7309,-4.7309,-4.7309,-4.7309,-4.7309,-4.7309,-4.7309,-4.7309,-4.7309,-4.7309,-4.7309,-4.7309,-4.699,-4.6668,0.0,-4.5625,-4.5149,0.0,-4.4851,-4.5037,-4.5827,-4.5633,-4.5708,-4.6007,-4.5381,-4.5018,-4.5018,0.0,0.0,0.0,-4.4626,-4.4463,-4.4313,-4.4203,-4.4052,-4.3899,-4.3776,-4.3708,-4.3708,-4.3406,-4.3295,-4.3252,-4.3287,-4.3476,-4.3853,-4.4204,-4.4832,-4.551,-4.5698,-4.5999,-4.6313,-4.6313,-4.6313,-4.6313,-4.6313,-4.6313,-4.6313,-4.6313,-4.6313,-4.6313,-4.6313,-4.6313,-4.6313,-4.6313,-4.6313,-4.5987,-4.4857,-4.4618,-4.4279,-4.3187,-4.2974,-4.2974,-4.2974,0.0,0.0,0.0,0.0,0.0,-4.2974,-4.2974,-4.2974,0.0,-4.2974,0.0,0.0,0.0,0.0,0.0,0.0,0.0,0.0,-4.0174,0.0,-3.9697,-3.9697,-3.9697,-3.9697,-3.9697,-3.9697,-3.9697,-3.9697,-3.9697,-3.9697,-3.9697,-3.9697,-3.9697,-3.9697,-3.9697,-3.9697,-3.9697,-3.9697,-3.9697,-3.9697,-3.9697,-3.9697,-4.7309,-4.7309,-4.7309,-4.7309,-4.7309,-4.7309,-4.7309,-4.7309,-4.7309,-4.7309,-4.7309,-4.7309,-4.7309,-4.7164,0.0,-4.6712,-4.6135,-4.5708,-4.5574,-4.5326,-4.5434,-4.597,-4.6063,-4.6171,-4.6348,0.0,0.0,-4.5502,-4.5059,-4.4897,-4.4897,-4.4789,-4.4626,-4.4463,-4.4463,-4.4367,-4.4216,-4.4107,-4.4052,-4.3997,-4.3696,-4.3585,-4.3585,-4.3252,-4.3343,-4.367,-4.3771,-4.4254,-4.492,-4.5347,-4.5711,-4.6037,-4.625,-4.6313,-4.6313,-4.6313,-4.6313,-4.6313,-4.6313,-4.6313,-4.6313,-4.6313,-4.6313,-4.6313,-4.6313,-4.615,-4.5736,-4.4807,-4.4455,-4.4041,-4.3137,-4.2974,-4.2974,-4.2974,0.0,-4.2974,-4.2974,0.0,0.0,0.0,0.0,0.0,0.0,-4.2974,0.0,0.0,0.0,0.0,0.0,0.0,0.0,-4.1288,-4.0275,0.0,-3.9697,-3.9697,-3.9697,-3.9697,-3.9697,-3.9697,-3.9697,-3.9697,-3.9697,-3.9697,-3.9697,-3.9697,-3.9697,-3.9697,-3.9697,-3.9697,-3.9697,-3.9697,-3.9697,-3.9697,-3.9697,-3.9697,-4.7309,-4.7309,0.0,0.0,-4.7309,0.0,-4.7309,-4.7309,-4.7309,-4.7309,-4.7309,-4.7309,-4.7309,-4.7309,-4.7207,-4.6975,0.0,0.0,0.0,-4.5695,-4.5614,-4.5419,-4.6469,0.0,-4.6399,-4.6696,-4.6544,-4.6007,-4.5502,-4.5234,-4.5193,-4.4843,-4.4668,-4.4668,-4.4668,-4.4668,-4.4681,-4.4422,-4.4313,-4.4313,-4.4052,-4.3955,-4.3887,-4.3572,-4.3394,-4.3402,-4.3664,-4.3765,-4.3966,-4.5008,-4.5397,-4.5522,-4.6075,-4.625,-4.6263,-4.6301,-4.6313,-4.6313,-4.6313,-4.6313,-4.6313,-4.6313,-4.6288,-4.625,-4.625,-4.5824,-4.5259,-4.4681,-4.4154,-4.3639,-4.3074,-4.2974,-4.2974,-4.2974,-4.2974,-4.2974,-4.2974,0.0,0.0,0.0,0.0,0.0,0.0,-4.2974,-4.2974,0.0,0.0,0.0,0.0,0.0,-4.1288,-4.1288,-4.0275,-3.9697,-3.9697,-3.9697,-3.9697,-3.9697,-3.9697,-3.9697,-3.9697,-3.9697,-3.9697,-3.9697,-3.9697,-3.9697,-3.9697,-3.9697,-3.9697,-3.9697,-3.9697,-3.9697,-3.9697,-3.9697,-3.9697,-3.9697,0.0,0.0,-4.7309,-4.7309,-4.7309,-4.7309,-4.7309,-4.7309,-4.7309,-4.7309,-4.7309,-4.7309,-4.7309,-4.7309,-4.7266,-4.7207,-4.6931,-4.6624,-4.6373,-4.6191,-4.6165,-4.6425,-4.6493,-4.6857,-4.7503,-4.7163,-4.6763,-4.6323,-4.5755,-4.5395,-4.5193,-4.4843,-4.4668,-4.4668,-4.4668,-4.4668,-4.4668,-4.4626,-4.4626,-4.4572,-4.4313,-4.4203,-4.4148,-4.3874,-4.364,-4.3406,-4.349,-4.3651,-4.384,-4.4116,-4.448,-4.4932,-4.5497,-4.5686,-4.5761,-4.6188,-4.6313,-4.6313,-4.6313,-4.6313,-4.6313,-4.6313,-4.5999,-4.5686,-4.5686,-4.5234,-4.4669,-4.4104,-4.389,-4.3639,-4.3074,-4.2974,-4.2974,-4.2974,-4.2974,-4.2974,-4.2974,-4.2974,0.0,0.0,-4.2974,-4.2974,-4.2974,-4.2974,-4.2974,0.0,0.0,0.0,0.0,0.0,-4.1288,-4.1288,-4.0275,-3.9697,-3.9697,-3.9697,-3.9697,-3.9697,-3.9697,-3.9697,-3.9697,-3.9697,-3.9697,-3.9697,-3.9697,-3.9697,-3.9697,-3.9697,-3.9697,-3.9697,-3.9697,-3.9697,-3.9697,-3.9697,-3.9697,-3.9697,-4.7309,-4.7309,-4.7309,-4.7309,-4.7309,-4.7309,-4.7309,-4.7309,-4.7309,-4.7309,-4.7309,-4.7309,-4.7309,-4.7309,-4.7309,-4.7309,-4.7062,-4.6829,-4.6756,-4.6491,-4.6475,-4.6691,-4.6847,-4.7082,-4.7528,-4.7672,-4.7581,-4.7195,-4.648,-4.6007,-4.5755,-4.5328,-4.5113,-4.5113,-4.5113,-4.5113,-4.5113,-4.5113,-4.5059,-4.491,-4.4748,-4.4639,-4.4463,-4.4161,-4.3984,-4.3793,-4.3504,-4.3485,-4.362,-4.3771,-4.4003,-4.4342,-4.492,-4.5095,-4.5146,-4.5447,-4.5899,-4.6313,-4.6313,-4.6313,-4.625,-4.5999,-4.551,-4.5095,-4.5095,-4.4656,-4.4166,-4.3865,-4.3601,-4.3338,-4.3037,-4.2974,-4.2974,-4.2974,-4.2974,-4.2974,-4.2974,-4.2974,0.0,-4.2974,-4.2974,-4.2974,-4.2974,-4.2974,-4.2974,-4.2974,0.0,0.0,-4.2974,-4.1932,-4.1288,-4.1288,-4.0275,-3.9697,-3.9697,-3.9697,-3.9697,-3.9697,-3.9697,-3.9697,-3.9697,-3.9697,-3.9697,-3.9697,-3.9697,-3.9697,-3.9697,-3.9697,-3.9697,-3.9697,-3.9697,-3.9697,-3.9697,-3.9697,-3.9697,-3.9697,-4.7309,-4.7309,-4.7309,-4.7309,-4.7309,-4.7309,-4.7309,-4.7309,-4.7309,-4.7309,-4.7309,-4.7309,-4.7309,-4.7309,-4.7309,-4.7309,-4.7062,-4.6975,-4.6975,-4.68,-4.6727,-4.6727,-4.7214,-4.7404,-4.7206,-4.8246,-4.8551,-4.8139,-4.7359,-4.6832,-4.6533,-4.5967,-4.5755,-4.5755,-4.5755,-4.5755,-4.5755,-4.5755,-4.5542,-4.5287,-4.5234,-4.5018,-4.4735,-4.4476,-4.4367,-4.4203,-4.3683,-4.3449,-4.3414,-4.3627,-4.3677,-4.3777,-4.433,-4.4505,-4.4518,-4.4606,-4.5309,-4.605,-4.605,-4.605,-4.5937,-4.5472,-4.492,-4.4505,-4.4505,-4.4066,-4.3677,-4.3677,-4.3313,-4.2974,-4.2974,-4.2974,-4.2974,-4.2974,-4.2974,-4.2974,-4.2974,0.0,-4.2974,-4.2974,-4.2974,-4.2974,-4.2974,-4.2974,-4.2974,-4.2974,-4.2974,0.0,0.0,-4.1932,-4.1288,-4.1288,-4.0275,-3.9697,-3.9697,-3.9697,-3.9697,-3.9697,-3.9697,-3.9697,-3.9697,-3.9697,-3.9697,-3.9697,-3.9697,-3.9697,-3.9697,-3.9697,-3.9697,-3.9697,-3.9697,-3.9697,-3.9697,-3.9697,-3.9697,-3.9697,-4.7309,-4.7309,-4.7309,-4.7309,-4.7309,-4.7309,-4.7309,-4.7309,-4.7309,-4.7309,-4.7309,-4.7309,-4.7309,-4.7309,-4.7309,-4.7309,-4.7251,-4.7251,-4.7251,-4.7222,-4.7164,-4.7164,-4.7268,-4.7479,-4.7792,-4.8588,-4.8783,-4.8276,-4.7983,-4.7592,-4.7146,-4.6533,-4.6428,-4.6637,-4.6637,-4.6637,-4.6585,-4.6376,-4.6112,-4.5861,-4.5395,-4.518,-4.5072,-4.4735,-4.4518,-4.4258,-4.3942,-4.364,-4.3351,-4.3186,-4.3112,-4.32,-4.3752,-4.3928,-4.4016,-4.448,-4.4756,-4.4882,-4.4882,-4.4882,-4.4869,-4.4782,-4.4342,-4.3928,-4.3928,-4.3501,-4.3112,-4.3112,-4.3037,-4.2974,-4.2974,-4.2974,-4.2974,-4.2974,-4.2974,-4.2974,-4.2974,0.0,-4.2974,-4.2974,-4.2974,-4.2974,-4.2974,-4.2974,-4.2974,-4.2974,-4.2974,-4.2974,-4.2974,-4.1932,-4.1288,-4.1288,-4.0275,-3.9697,-3.9697,-3.9697,-3.9697,-3.9697,-3.9697,-3.9697,-3.9697,-3.9697,-3.9697,-3.9697,-3.9697,-3.9697,-3.9697,-3.9697,-3.9697,-3.9697,-3.9697,-3.9697,-3.9697,-3.9697,-3.9697,-3.9697,-4.7309,-4.7309,-4.7309,-4.7309,-4.7309,-4.7309,-4.7309,-4.7309,-4.7309,-4.7309,-4.7309,-4.7309,-4.7309,-4.7309,-4.7309,-4.7309,-4.7309,-4.7309,-4.7309,-4.7309,-4.7309,-4.7309,-4.7309,-4.7565,-4.8119,-4.8324,-4.8637,-4.8949,-4.8551,-4.8389,-4.838,-4.7883,-4.7768,-4.7869,-4.7869,-4.7869,-4.7869,-4.7643,-4.7298,-4.6805,-4.627,-4.5914,-4.5595,-4.5274,-4.5018,-4.4748,-4.4422,-4.4136,-4.3806,-4.3351,-4.3364,-4.3482,-4.3543,-4.3563,-4.3613,-4.3878,-4.4269,-4.4618,-4.4618,-4.4405,-4.4179,-4.4179,-4.3765,-4.3363,-4.3363,-4.3162,-4.2974,-4.2974,-4.2974,-4.2974,-4.2974,-4.2974,-4.2974,-4.2974,-4.2974,0.0,0.0,-4.2974,-4.2974,-4.2974,-4.2974,-4.2974,-4.2974,-4.2974,-4.2974,-4.2974,-4.2974,-4.2974,-4.2974,-4.1932,-4.1288,-4.1288,-4.0275,-3.9697,-3.9697,-3.9697,-3.9697,-3.9697,-3.9697,-3.9697,-3.9697,-3.9697,-3.9697,-3.9697,-3.9697,-3.9697,-3.9697,-3.9697,-3.9697,-3.9697,-3.9697,-3.9697,-3.9697,-3.9697,-3.9697,-3.9697,-4.7309,-4.7309,-4.7309,-4.7309,-4.7309,-4.7309,-4.7309,-4.7309,-4.7309,-4.7309,-4.7309,-4.7309,-4.7309,-4.7309,-4.7309,-4.7309,-4.7309,-4.7309,-4.7309,-4.7309,-4.7309,-4.7309,-4.7309,-4.7534,-4.8057,-4.8015,-4.8356,-4.9119,-4.896,-4.902,-4.9256,-4.9112,-4.9057,-4.912,-4.912,-4.912,-4.9071,-4.8866,-4.8417,-4.7833,-4.7284,-4.678,-4.6284,-4.5967,-4.5649,-4.5341,-4.5005,-4.4735,-4.4422,-4.3793,-4.3751,-4.3942,-4.364,-4.3449,-4.3394,-4.3394,-4.379,-4.4242,-4.4242,-4.3928,-4.3614,-4.3614,-4.3288,-4.2974,-4.2974,-4.2974,-4.2974,-4.2974,-4.2974,-4.2974,-4.2974,-4.2974,-4.2974,-4.2974,0.0,0.0,0.0,-4.2974,-4.2974,-4.2974,-4.2974,-4.2974,-4.2974,-4.2974,-4.2974,-4.2974,-4.2974,-4.2924,-4.2798,-4.1869,-4.1175,-4.0965,-4.0136,-3.9697,-3.9697,-3.9697,-3.9697,-3.9697,-3.9697,-3.9697,-3.9697,-3.9697,-3.9697,-3.9697,-3.9697,-3.9697,-3.9697,-3.9697,-3.9697,-3.9697,-3.9697,-3.9697,-3.9697,-3.9697,-3.9697,-3.9697,-4.7309,-4.7309,-4.7309,-4.7309,-4.7309,-4.7309,-4.7309,-4.7309,-4.7309,-4.7309,-4.7309,-4.7309,-4.7309,-4.7309,-4.7309,-4.7309,-4.7309,-4.7309,-4.7309,-4.7309,-4.7309,-4.7309,-4.7309,-4.7324,-4.7369,-4.7967,-4.8194,-4.8045,-4.8986,-4.9325,-4.9114,-4.9441,-4.9781,-4.9975,-4.9975,-4.9975,-4.999,-4.9732,-4.9277,-4.8745,-4.8137,-4.7657,-4.7198,-4.6846,-4.6376,-4.5914,-4.5649,-4.5341,-4.5018,-4.4422,-4.4258,-4.4203,-4.3942,-4.364,-4.3394,-4.3394,-4.3247,-4.3099,-4.3099,-4.3074,-4.3037,-4.3037,-4.3011,-4.2974,-4.2974,-4.2974,-4.2974,-4.2974,-4.2974,-4.2974,-4.2974,-4.2974,-4.2974,-4.2974,0.0,0.0,-4.2974,-4.2974,-4.2974,-4.2974,-4.2974,-4.2974,-4.2974,-4.2974,-4.2974,-4.2974,-4.2974,-4.2748,-4.2301,-4.1656,-4.0811,-3.9848,-3.9735,-3.9697,-3.9697,-3.9697,-3.9697,-3.9697,-3.9697,-3.9697,-3.9697,-3.9697,-3.9697,-3.9697,-3.9697,-3.9697,-3.9697,-3.9697,-3.9697,-3.9697,-3.9697,-3.9697,-3.9697,-3.9697,-3.9697,-3.9697,-4.7309,-4.7309,-4.7309,-4.7309,-4.7309,-4.7309,-4.7309,-4.7309,-4.7309,-4.7309,-4.7309,-4.7309,-4.7309,-4.7309,-4.7309,-4.7309,-4.7309,-4.7309,-4.7309,-4.7309,-4.7309,-4.7309,-4.7309,-4.7309,-4.7309,-4.7549,-4.7834,-4.8134,-4.8551,-4.913,-4.9779,-4.9922,-5.031,-5.079,-5.079,-5.079,-5.0742,-5.0489,-5.0202,-4.9844,-4.9262,-4.8866,-4.8481,-4.8013,-4.7606,-4.7219,-4.6988,-4.6585,-4.6112,-4.5569,-4.5355,-4.5207,-4.4572,-4.419,-4.3861,-4.3295,-4.3085,-4.2974,-4.2974,-4.2974,-4.2974,-4.2974,-4.2974,-4.2974,-4.2974,-4.2974,-4.2974,-4.2974,-4.2974,-4.2974,-4.2974,-4.2974,-4.2974,-4.2974,0.0,-4.2974,-4.2974,-4.2974,-4.2974,-4.2974,-4.2974,-4.2974,-4.2974,-4.2974,-4.2974,-4.2974,-4.2974,-4.2791,-4.2238,-4.1304,-4.0475,-3.9722,-3.9697,-3.9697,-3.9697,-3.9697,-3.9697,-3.9697,-3.9697,-3.9697,-3.9697,-3.9697,-3.9697,-3.9697,-3.9697,-3.9697,-3.9697,-3.9697,-3.9697,-3.9697,-3.9697,-3.9697,-3.9697,-3.9697,-3.9697,-3.9697,-4.7309,-4.7309,-4.7309,-4.7309,-4.7309,-4.7309,-4.7309,-4.7309,-4.7309,-4.7309,-4.7309,-4.7309,-4.7309,-4.7309,-4.7309,-4.7309,-4.7309,-4.7309,-4.7309,-4.7309,-4.7309,-4.7309,-4.7309,-4.7309,-4.7309,-4.7309,-4.7534,-4.7982,-4.8192,-4.8745,-4.9628,-4.9838,-5.0272,-5.0868,-5.0868,-5.102,-5.1167,-5.1011,-5.079,-5.0567,-5.0202,-4.9863,-4.9522,-4.9128,-4.8767,-4.8388,-4.8252,-4.7847,-4.7373,-4.6791,-4.6544,-4.6257,-4.5462,-4.4843,-4.43,-4.3585,-4.3252,-4.3129,-4.3129,-4.3085,-4.2974,-4.2974,-4.2974,-4.2974,-4.2974,-4.2974,-4.2974,-4.2974,-4.2974,-4.2974,-4.2974,-4.2974,-4.2974,-4.2974,-4.2974,-4.2974,-4.2974,-4.2974,-4.2974,-4.2974,-4.2974,-4.2974,-4.2974,-4.2974,-4.2974,-4.2974,-4.2811,-4.2451,-4.1681,-4.0764,-4.0086,-3.9697,-3.9697,-3.9697,-3.9697,-3.9697,-3.9697,-3.9697,-3.9697,-3.9697,-3.9697,-3.9697,-3.9697,-3.9697,-3.9697,-3.9697,-3.9697,-3.9697,-3.9697,-3.9697,-3.9697,-3.9697,-3.9697,-3.9697,-3.9697,-3.9697,-4.7309,-4.7309,-4.7309,-4.7309,-4.7309,-4.7309,-4.7309,-4.7309,-4.7309,-4.7309,-4.7309,-4.7309,-4.7309,-4.7309,-4.7309,-4.7309,-4.7309,-4.7309,-4.7309,-4.7309,-4.7309,-4.7309,-4.7309,-4.7309,-4.7309,-4.7309,-4.7309,-4.7309,-4.7952,-4.8282,-4.8297,-4.9,-4.9613,-5.0181,-5.0181,-5.0554,-5.1214,-5.1214,-5.1058,-5.0807,-5.0807,-5.0537,-5.0086,-5.0086,-4.9781,-4.9311,-4.9311,-4.9085,-4.8745,-4.8209,-4.7666,-4.7102,-4.6572,-4.5622,-4.4681,-4.4367,-4.3903,-4.3394,-4.3394,-4.3184,-4.3042,-4.2974,-4.2974,-4.2974,-4.2974,-4.2974,-4.2974,-4.2974,-4.2974,-4.2974,-4.2974,-4.2974,-4.2974,-4.2974,-4.2974,-4.2974,-4.2974,-4.2974,-4.2974,-4.2974,-4.2974,-4.2974,-4.2974,-4.2974,-4.2974,-4.2974,-4.2514,-4.1668,-4.0576,-3.9986,-3.9697,-3.9697,-3.9697,-3.9697,-3.9697,-3.9697,-3.9697,-3.9697,-3.9697,-3.9697,-3.9697,-3.9697,-3.9697,-3.9697,-3.9697,-3.9697,-3.9697,-3.9697,-3.9697,-3.9697,-3.9697,-3.9697,-3.9697,-3.9697,-3.9697,-3.9697,-4.7309,-4.7309,-4.7309,-4.7309,-4.7309,-4.7309,-4.7309,-4.7309,-4.7309,-4.7309,-4.7309,-4.7309,-4.7309,-4.7309,-4.7309,-4.7309,-4.7309,-4.7309,-4.7309,-4.7309,-4.7309,-4.7309,-4.7309,-4.7309,-4.7309,-4.7309,-4.7309,-4.7309,-4.7504,-4.7833,-4.8282,-4.8476,-4.894,-4.9553,-4.9553,-4.9912,-5.048,-5.048,-5.0749,-5.1073,-5.1073,-5.0979,-5.0837,-5.068,-5.0475,-5.0331,-5.0168,-4.9975,-4.9654,-4.9311,-4.8866,-4.8215,-4.7064,-4.6191,-4.5529,-4.4992,-4.4613,-4.4287,-4.4081,-4.3819,-4.3555,-4.3098,-4.2974,-4.2974,-4.2974,-4.2974,-4.2974,-4.2974,-4.2974,-4.2974,-4.2974,-4.2974,-4.2974,-4.2974,-4.2974,-4.2974,-4.2974,-4.2974,-4.2974,-4.2974,-4.2974,-4.2974,-4.2974,-4.2974,-4.2811,-4.2489,-4.153,-4.0865,-4.0538,-3.9986,-3.9697,-3.9697,-3.9697,-3.9697,-3.9697,-3.9697,-3.9697,-3.9697,-3.9697,-3.9697,-3.9697,-3.9697,-3.9697,-3.9697,-3.9697,-3.9697,-3.9697,-3.9697,-3.9697,-3.9697,-3.9697,-3.9697,-3.9697,-3.9697,-3.9697,-3.9697,-4.7309,-4.7309,-4.7309,-4.7309,-4.7309,-4.7309,-4.7309,-4.7309,-4.7309,-4.7309,-4.7309,-4.7309,-4.7309,-4.7309,-4.7309,-4.7309,-4.7309,-4.7309,-4.7309,-4.7309,-4.7309,-4.7309,-4.7309,-4.7309,-4.7309,-4.7309,-4.7309,-4.7309,-4.7309,-4.7519,-4.7893,-4.7893,-4.8252,-4.8925,-4.8925,-4.9239,-4.9853,-4.9853,-5.0242,-5.0779,-5.0779,-5.0943,-5.1167,-5.1011,-5.0964,-5.0917,-5.0805,-5.0662,-5.0504,-5.0202,-4.9717,-4.9029,-4.7906,-4.7205,-4.6714,-4.6335,-4.5808,-4.5288,-4.5033,-4.4681,-4.4258,-4.3806,-4.3406,-4.3129,-4.303,-4.2974,-4.2974,-4.2974,-4.2974,-4.2974,-4.2974,-4.2974,-4.2974,-4.2974,-4.2974,-4.2974,-4.2974,-4.2974,-4.2974,-4.2974,-4.2974,-4.2974,-4.2974,-4.2841,-4.2333,-4.1568,-4.089,-4.0425,-4.0199,-3.9873,-3.9697,-3.9697,-3.9697,-3.9697,-3.9697,-3.9697,-3.9697,-3.9697,-3.9697,-3.9697,-3.9697,-3.9697,-3.9697,-3.9697,-3.9697,-3.9697,-3.9697,-3.9697,-3.9697,-3.9697,-3.9697,-3.9697,-3.9697,-3.9697,-3.9697,-3.9697,-4.7309,-4.7309,-4.7309,-4.7309,-4.7309,-4.7309,-4.7309,-4.7309,-4.7309,-4.7309,-4.7309,-4.7309,-4.7309,-4.7309,-4.7309,-4.7309,-4.7309,-4.7309,-4.7309,-4.7309,-4.7309,-4.7309,-4.7309,-4.7309,-4.7309,-4.7309,-4.7309,-4.7309,-4.7309,-4.7309,-4.7309,-4.7309,-4.7623,-4.8192,-4.8192,-4.8566,-4.9224,-4.9224,-4.9553,-5.0106,-5.0106,-5.0511,-5.105,-5.1109,-5.1124,-5.1139,-5.1199,-5.1214,-5.1167,-5.0902,-5.0331,-4.9669,-4.912,-4.856,-4.8122,-4.8122,-4.741,-4.6531,-4.6269,-4.5715,-4.5194,-4.4938,-4.4219,-4.356,-4.3197,-4.3085,-4.303,-4.303,-4.303,-4.2974,-4.2974,-4.2974,-4.2974,-4.2974,-4.2974,-4.2974,-4.2974,-4.2974,-4.2974,-4.2974,-4.2974,-4.2974,-4.2974,-4.2489,-4.1643,-4.0588,-4.0475,-4.0224,-3.9722,-3.9697,-3.9697,-3.9697,-3.9697,-3.9697,-3.9697,-3.9697,-3.9697,-3.9697,-3.9697,-3.9697,-3.9697,-3.9697,-3.9697,-3.9697,-3.9697,-3.9697,-3.9697,-3.9697,-3.9697,-3.9697,-3.9697,-3.9697,-3.9697,-3.9697,-3.9697,-3.9697,-4.7309,-4.7309,-4.7309,-4.7309,-4.7309,-4.7309,-4.7309,-4.7309,-4.7309,-4.7309,-4.7309,-4.7309,-4.7309,-4.7309,-4.7309,-4.7309,-4.7309,-4.7309,-4.7309,-4.7309,-4.7309,-4.7309,-4.7309,-4.7309,-4.7309,-4.7309,-4.7309,-4.7309,-4.7309,-4.7309,-4.7309,-4.7309,-4.7384,-4.7519,-4.7519,-4.7878,-4.8506,-4.8506,-4.888,-4.9479,-4.9479,-4.9553,-4.9748,-5.0257,-5.0405,-5.048,-5.0988,-5.1214,-5.1167,-5.0902,-5.06,-5.0294,-4.9926,-4.9605,-4.9311,-4.905,-4.8539,-4.792,-4.7666,-4.7012,-4.6362,-4.6125,-4.5715,-4.5194,-4.4245,-4.3628,-4.3283,-4.3283,-4.3129,-4.2974,-4.2974,-4.2974,-4.2974,-4.2974,-4.2974,-4.2974,-4.2974,-4.2974,-4.2974,-4.2974,-4.2974,-4.2974,-4.2974,-4.2095,-4.1241,-4.0563,-4.0111,-3.9823,-3.9697,-3.9697,-3.9697,-3.9697,-3.9697,-3.9697,-3.9697,-3.9697,-3.9697,-3.9697,-3.9697,-3.9697,-3.9697,-3.9697,-3.9697,-3.9697,-3.9697,-3.9697,-3.9697,-3.9697,-3.9697,-3.9697,-3.9697,-3.9697,-3.9697,-3.9697,-3.9697,-3.9697,-4.7309,-4.7309,-4.7309,-4.7309,-4.7309,-4.7309,-4.7309,-4.7309,-4.7309,-4.7309,-4.7309,-4.7309,-4.7309,-4.7309,-4.7309,-4.7309,-4.7309,-4.7309,-4.7309,-4.7309,-4.7309,-4.7309,-4.7309,-4.7309,-4.7309,-4.7309,-4.7309,-4.7309,-4.7309,-4.7309,-4.7309,-4.7309,-4.7309,-4.7309,-4.7309,-4.7489,-4.7818,-4.7818,-4.8192,-4.879,-4.879,-4.903,-4.9344,-4.9643,-4.9778,-4.9823,-5.0167,-5.0481,-5.0704,-5.0549,-5.0679,-5.0819,-5.0662,-5.0442,-5.0187,-5.0042,-4.964,-4.91,-4.8738,-4.8201,-4.7708,-4.7335,-4.7026,-4.6414,-4.4992,-4.445,-4.4165,-4.3903,-4.3598,-4.3376,-4.324,-4.3085,-4.2974,-4.2974,-4.2974,-4.2974,-4.2974,-4.2974,-4.2974,-4.2974,-4.2974,-4.2773,-4.2246,-4.1442,-4.0714,-4.0162,-3.986,-3.9697,-3.9697,-3.9697,-3.9697,-3.9697,-3.9697,-3.9697,-3.9697,-3.9697,-3.9697,-3.9697,-3.9697,-3.9697,-3.9697,-3.9697,-3.9697,-3.9697,-3.9697,-3.9697,-3.9697,-3.9697,-3.9697,-3.9697,-3.9697,-3.9697,-3.9697,-3.9697,-3.9697,-3.9697,-4.7309,-4.7309,-4.7309,-4.7309,-4.7309,-4.7309,-4.7309,-4.7309,-4.7309,-4.7309,-4.7309,-4.7309,-4.7309,-4.7309,-4.7309,-4.7309,-4.7309,-4.7309,-4.7309,-4.7309,-4.7309,-4.7309,-4.7309,-4.7309,-4.7309,-4.7309,-4.7309,-4.7309,-4.7309,-4.7309,-4.7309,-4.7309,-4.7309,-4.7309,-4.7309,-4.7309,-4.7309,-4.7309,-4.7623,-4.8117,-4.8117,-4.8446,-4.8985,-4.9105,-4.9149,-4.9164,-4.9269,-4.9613,-5.0031,-5.0031,-5.0436,-5.0885,-5.0885,-5.0805,-5.0691,-5.0691,-5.0449,-5.012,-4.9654,-4.9326,-4.8994,-4.8531,-4.8215,-4.7643,-4.6085,-4.5502,-4.5194,-4.4613,-4.4203,-4.3874,-4.3449,-4.3184,-4.2974,-4.2974,-4.2974,-4.2974,-4.2974,-4.2974,-4.2974,-4.2974,-4.2898,-4.2409,-4.125,-4.0736,-4.0287,-3.9735,-3.9697,-3.9697,-3.9697,-3.9697,-3.9697,-3.9697,-3.9697,-3.9697,-3.9697,-3.9697,-3.9697,-3.9697,-3.9697,-3.9697,-3.9697,-3.9697,-3.9697,-3.9697,-3.9697,-3.9697,-3.9697,-3.9697,-3.9697,-3.9697,-3.9697,-3.9697,-3.9697,-3.9697,-3.9697,-3.9697,-4.7309,-4.7309,-4.7309,-4.7309,-4.7309,-4.7309,-4.7309,-4.7309,-4.7309,-4.7309,-4.7309,-4.7309,-4.7309,-4.7309,-4.7309,-4.7309,-4.7309,-4.7309,-4.7309,-4.7309,-4.7309,-4.7309,-4.7309,-4.7309,-4.7309,-4.7309,-4.7309,-4.7309,-4.7309,-4.7309,-4.7309,-4.7309,-4.7309,-4.7309,-4.7309,-4.7309,-4.7309,-4.7309,-4.7354,-4.7444,-4.7444,-4.7489,-4.7638,-4.8192,-4.8416,-4.8491,-4.9105,-4.9359,-4.9434,-4.9434,-4.9494,-4.9584,-4.9584,-4.9867,-5.0269,-5.0269,-5.0471,-5.0665,-5.0618,-5.025,-4.9941,-4.9844,-4.9634,-4.9227,-4.8531,-4.727,-4.6058,-4.5462,-4.4737,-4.4055,-4.3504,-4.3184,-4.2974,-4.2974,-4.2974,-4.2974,-4.2974,-4.2974,-4.2974,-4.2974,-4.2615,-4.1886,-4.0739,-4.0563,-4.0287,-3.9735,-3.9697,-3.9697,-3.9697,-3.9697,-3.9697,-3.9697,-3.9697,-3.9697,-3.9697,-3.9697,-3.9697,-3.9697,-3.9697,-3.9697,-3.9697,-3.9697,-3.9697,-3.9697,-3.9697,-3.9697,-3.9697,-3.9697,-3.9697,-3.9697,-3.9697,-3.9697,-3.9697,-3.9697,-3.9697,-3.9697,-4.7309,-4.7309,-4.7309,-4.7309,-4.7309,-4.7309,-4.7309,-4.7309,-4.7309,-4.7309,-4.7309,-4.7309,-4.7309,-4.7309,-4.7309,-4.7309,-4.7309,-4.7309,-4.7309,-4.7309,-4.7309,-4.7309,-4.7309,-4.7309,-4.7309,-4.7309,-4.7309,-4.7309,-4.7309,-4.7309,-4.7309,-4.7309,-4.7309,-4.7309,-4.7309,-4.7309,-4.7309,-4.7309,-4.7309,-4.7309,-4.7309,-4.7309,-4.7339,-4.7623,-4.7743,-4.7773,-4.8072,-4.8401,-4.876,-4.876,-4.9,-4.9314,-4.9314,-4.9464,-4.9703,-4.9703,-4.9806,-4.9923,-4.9799,-4.9582,-4.9483,-4.9695,-4.9674,-4.9618,-4.9757,-4.9015,-4.792,-4.6766,-4.5966,-4.5275,-4.4709,-4.4287,-4.3958,-4.3958,-4.3958,-4.3916,-4.3751,-4.3708,-4.3483,-4.2835,-4.2027,-4.12,-4.0563,-4.0237,-3.9961,-3.971,-3.9697,-3.9697,-3.9697,-3.9697,-3.9697,-3.9697,-3.9697,-3.9697,-3.9697,-3.9697,-3.9697,-3.9697,-3.9697,-3.9697,-3.9697,-3.9697,-3.9697,-3.9697,-3.9697,-3.9697,-3.9697,-3.9697,-3.9697,-3.9697,-3.9697,-3.9697,-3.9697,-3.9697,-3.9697,-3.9697]},{"header":{"parameterUnit":"m.s-1","parameterCategory":1,"la1":30.6,"la2":28.766,"lo1":-90.7593,"lo2":-88.6598,"dy":0.0162,"dx":0.0183,"nx":116,"ny":114,"refTime":"2023-06-11T12:00:00:Z","depth":0,"parameterNumber":3,"parameterNumberName":"V-component_of_WINDS"},"data":[0.0,0.0,0.0,0.0,0.0,0.0,0.0,0.0,0.0,0.0,0.0,0.0,0.0,0.0,0.0,0.0,0.0,0.0,0.0,0.0,0.0,0.0,0.0,0.0,0.0,0.0,0.0,0.0,0.0,0.0,0.0,0.0,0.0,0.0,0.0,0.0,0.0,0.0,0.0,0.0,0.0,0.0,0.0,0.0,0.0,0.0,0.0,0.0,0.0,0.0,0.0,0.0,0.0,0.0,0.0,0.0,0.0,0.0,0.0,0.0,0.0,0.0,0.0,0.0,0.0,0.0,0.0,0.0,0.0,0.0,0.0,0.0,0.0,0.0,0.0,0.0,0.0,0.0,0.0,0.0,0.0,0.0,0.0,0.0,0.0,0.0,0.0,0.0,0.0,0.0,0.0,0.0,0.0,0.0,0.0,0.0,0.0,0.0,0.0,0.0,0.0,0.0,0.0,0.0,0.0,0.0,0.0,0.0,0.0,0.0,0.0,0.0,0.0,0.0,0.0,0.0,0.0,0.0,0.0,0.0,0.0,0.0,0.0,0.0,0.0,0.0,0.0,0.0,0.0,0.0,0.0,0.0,0.0,0.0,0.0,0.0,0.0,0.0,0.0,0.0,0.0,0.0,0.0,0.0,0.0,0.0,0.0,0.0,0.0,0.0,0.0,0.0,0.0,0.0,0.0,0.0,0.0,0.0,0.0,0.0,0.0,0.0,0.0,0.0,0.0,0.0,0.0,0.0,0.0,0.0,0.0,0.0,0.0,0.0,0.0,0.0,0.0,0.0,0.0,0.0,0.0,0.0,0.0,0.0,0.0,0.0,0.0,0.0,0.0,0.0,0.0,0.0,0.0,0.0,0.0,0.0,0.0,0.0,0.0,0.0,0.0,0.0,0.0,0.0,0.0,0.0,0.0,0.0,0.0,0.0,0.0,0.0,0.0,0.0,0.0,0.0,0.0,0.0,0.0,0.0,0.0,0.0,0.0,0.0,0.0,0.0,0.0,0.0,0.0,0.0,0.0,0.0,0.0,0.0,0.0,0.0,0.0,0.0,0.0,0.0,0.0,0.0,0.0,0.0,0.0,0.0,0.0,0.0,0.0,0.0,0.0,0.0,0.0,0.0,0.0,0.0,0.0,0.0,0.0,0.0,0.0,0.0,0.0,0.0,0.0,0.0,0.0,0.0,0.0,0.0,0.0,0.0,0.0,0.0,0.0,0.0,0.0,0.0,0.0,0.0,0.0,0.0,0.0,0.0,0.0,0.0,0.0,0.0,0.0,0.0,0.0,0.0,0.0,0.0,0.0,0.0,0.0,0.0,0.0,0.0,0.0,0.0,0.0,0.0,0.0,0.0,0.0,0.0,0.0,0.0,0.0,0.0,0.0,0.0,0.0,0.0,0.0,0.0,0.0,0.0,0.0,0.0,0.0,0.0,0.0,0.0,0.0,0.0,0.0,0.0,0.0,0.0,0.0,0.0,0.0,0.0,0.0,0.0,0.0,0.0,0.0,0.0,0.0,0.0,0.0,0.0,0.0,0.0,0.0,0.0,0.0,0.0,0.0,0.0,0.0,0.0,0.0,0.0,0.0,0.0,0.0,0.0,0.0,0.0,0.0,0.0,0.0,0.0,0.0,0.0,0.0,0.0,0.0,0.0,0.0,0.0,0.0,0.0,0.0,0.0,0.0,0.0,0.0,0.0,0.0,0.0,0.0,0.0,0.0,0.0,0.0,0.0,0.0,0.0,0.0,0.0,0.0,0.0,0.0,0.0,0.0,0.0,0.0,0.0,0.0,0.0,0.0,0.0,0.0,0.0,0.0,0.0,0.0,0.0,0.0,0.0,0.0,0.0,0.0,0.0,0.0,0.0,0.0,0.0,0.0,0.0,0.0,0.0,0.0,0.0,0.0,0.0,0.0,0.0,0.0,0.0,0.0,0.0,0.0,0.0,0.0,0.0,0.0,0.0,0.0,0.0,0.0,0.0,0.0,0.0,0.0,0.0,0.0,0.0,0.0,0.0,0.0,0.0,0.0,0.0,0.0,0.0,0.0,0.0,0.0,0.0,0.0,0.0,0.0,0.0,0.0,0.0,0.0,0.0,0.0,0.0,0.0,0.0,0.0,0.0,0.0,0.0,0.0,0.0,0.0,0.0,0.0,0.0,0.0,0.0,0.0,0.0,0.0,0.0,0.0,0.0,0.0,0.0,0.0,0.0,0.0,0.0,0.0,0.0,0.0,0.0,0.0,0.0,0.0,0.0,0.0,0.0,0.0,0.0,0.0,0.0,0.0,0.0,0.0,0.0,0.0,0.0,0.0,0.0,0.0,0.0,0.0,0.0,0.0,0.0,0.0,0.0,0.0,0.0,0.0,0.0,0.0,0.0,0.0,0.0,0.0,0.0,0.0,0.0,0.0,0.0,0.0,0.0,0.0,0.0,0.0,0.0,0.0,0.0,0.0,0.0,0.0,0.0,0.0,0.0,0.0,0.0,0.0,0.0,0.0,0.0,0.0,0.0,0.0,0.0,0.0,0.0,0.0,0.0,0.0,0.0,0.0,0.0,0.0,0.0,0.0,0.0,0.0,0.0,0.0,0.0,0.0,0.0,0.0,0.0,0.0,0.0,0.0,0.0,0.0,0.0,0.0,0.0,0.0,0.0,0.0,0.0,0.0,0.0,0.0,0.0,0.0,0.0,0.0,0.0,0.0,0.0,0.0,0.0,0.0,0.0,0.0,0.0,0.0,0.0,0.0,0.0,0.0,0.0,0.0,0.0,0.0,0.0,0.0,0.0,0.0,0.0,0.0,0.0,0.0,0.0,0.0,0.0,0.0,0.0,0.0,0.0,0.0,0.0,0.0,0.0,0.0,0.0,0.0,0.0,0.0,0.0,0.0,0.0,0.0,0.0,0.0,0.0,0.0,0.0,0.0,0.0,0.0,0.0,0.0,0.0,0.0,0.0,0.0,0.0,0.0,0.0,0.0,0.0,0.0,0.0,0.0,0.0,0.0,0.0,0.0,0.0,0.0,0.0,0.0,0.0,0.0,0.0,0.0,0.0,0.0,0.0,0.0,0.0,0.0,0.0,0.0,0.0,0.0,0.0,0.0,0.0,0.0,0.0,0.0,0.0,0.0,0.0,0.0,0.0,0.0,0.0,0.0,0.0,0.0,0.0,0.0,0.0,0.0,0.0,0.0,0.0,0.0,0.0,0.0,0.0,0.0,0.0,0.0,0.0,0.0,0.0,0.0,0.0,0.0,0.0,0.0,0.0,0.0,0.0,0.0,0.0,0.0,0.0,0.0,0.0,0.0,0.0,0.0,0.0,0.0,0.0,0.0,0.0,0.0,0.0,0.0,0.0,0.0,0.0,0.0,0.0,0.0,0.0,0.0,0.0,0.0,0.0,0.0,0.0,0.0,0.0,0.0,0.0,0.0,0.0,0.0,0.0,0.0,0.0,0.0,0.0,0.0,0.0,0.0,0.0,0.0,0.0,0.0,0.0,0.0,0.0,0.0,0.0,0.0,0.0,0.0,0.0,0.0,0.0,0.0,0.0,0.0,0.0,0.0,0.0,0.0,0.0,0.0,0.0,0.0,0.0,0.0,0.0,0.0,0.0,0.0,0.0,0.0,0.0,0.0,0.0,0.0,0.0,0.0,0.0,0.0,0.0,0.0,0.0,0.0,0.0,0.0,0.0,0.0,0.0,0.0,0.0,0.0,0.0,0.0,0.0,0.0,0.0,0.0,0.0,0.0,0.0,0.0,0.0,0.0,0.0,0.0,0.0,0.0,0.0,0.0,0.0,0.0,0.0,0.0,0.0,0.0,0.0,0.0,0.0,0.0,0.0,0.0,0.0,0.0,0.0,0.0,0.0,0.0,0.0,0.0,0.0,0.0,0.0,0.0,0.0,0.0,0.0,0.0,0.0,0.0,0.0,0.0,0.0,0.0,0.0,0.0,0.0,0.0,0.0,0.0,0.0,0.0,0.0,0.0,0.0,0.0,0.0,0.0,0.0,0.0,0.0,0.0,0.0,0.0,0.0,0.0,0.0,0.0,0.0,0.0,0.0,0.0,0.0,0.0,0.0,0.0,0.0,0.0,0.0,0.0,0.0,0.0,0.0,0.0,0.0,0.0,0.0,0.0,0.0,0.0,0.0,0.0,0.0,0.0,0.0,0.0,0.0,0.0,0.0,0.0,0.0,0.0,0.0,0.0,0.0,0.0,0.0,0.0,0.0,0.0,0.0,0.0,0.0,0.0,0.0,0.0,0.0,0.0,0.0,0.0,0.0,0.0,0.0,0.0,0.0,0.0,0.0,0.0,0.0,0.0,0.0,0.0,0.0,0.0,0.0,0.0,0.0,0.0,0.0,0.0,0.0,0.0,0.0,0.0,0.0,0.0,0.0,0.0,0.0,0.0,0.0,0.0,0.0,0.0,0.0,0.0,0.0,0.0,0.0,0.0,0.0,0.0,0.0,0.0,0.0,0.0,0.0,0.0,0.0,0.0,0.0,0.0,0.0,0.0,0.0,0.0,0.0,0.0,0.0,0.0,0.0,0.0,0.0,0.0,0.0,0.0,0.0,0.0,0.0,0.0,0.0,0.0,0.0,0.0,0.0,0.0,0.0,0.0,0.0,0.0,0.0,0.0,0.0,0.0,0.0,0.0,0.0,0.0,0.0,0.0,0.0,0.0,0.0,0.0,0.0,0.0,0.0,0.0,0.0,0.0,0.0,0.0,0.0,0.0,0.0,0.0,0.0,0.0,0.0,0.0,0.0,0.0,0.0,0.0,0.0,0.0,0.0,0.0,0.0,0.0,0.0,0.0,0.0,0.0,0.0,0.0,0.0,0.0,0.0,0.0,0.0,0.0,0.0,0.0,0.0,0.0,0.0,0.0,0.0,0.0,0.0,0.0,0.0,0.0,0.0,0.0,0.0,0.0,0.0,0.0,0.0,0.0,0.0,0.0,0.0,0.0,0.0,0.0,0.0,0.0,0.0,0.0,0.0,0.0,0.0,0.0,0.0,0.0,0.0,0.0,0.0,0.0,0.0,0.0,0.0,0.0,0.0,0.0,0.0,0.0,0.0,0.0,0.0,0.0,0.0,0.0,0.0,0.0,0.0,0.0,0.0,0.0,0.0,0.0,0.0,0.0,0.0,0.0,0.0,0.0,0.0,0.0,0.0,0.0,0.0,0.0,0.0,0.0,0.0,0.0,0.0,0.0,0.0,0.0,0.0,0.0,0.0,0.0,0.0,0.0,0.0,0.0,0.0,0.0,0.0,0.0,0.0,0.0,0.0,0.0,0.0,0.0,0.0,0.0,0.0,0.0,0.0,0.0,0.0,0.0,0.0,0.0,0.0,0.0,0.0,0.0,0.0,0.0,0.0,0.0,0.0,0.0,0.0,0.0,0.0,0.0,0.0,0.0,0.0,0.0,0.0,0.0,0.0,0.0,0.0,0.0,0.0,0.0,0.0,0.0,0.0,0.0,0.0,0.0,0.0,0.0,0.0,0.0,0.0,0.0,0.0,0.0,0.0,0.0,0.0,0.0,0.0,0.0,0.0,0.0,0.0,0.0,0.0,0.0,0.0,0.0,0.0,0.0,0.0,0.0,0.0,0.0,0.0,0.0,0.0,0.0,0.0,0.0,0.0,0.0,0.0,0.0,0.0,0.0,0.0,0.0,0.0,0.0,0.0,0.0,0.0,0.0,0.0,0.0,0.0,0.0,0.0,0.0,0.0,0.0,0.0,0.0,0.0,0.0,0.0,0.0,0.0,0.0,0.0,0.0,0.0,0.0,0.0,0.0,0.0,0.0,0.0,0.0,0.0,0.0,0.0,0.0,0.0,0.0,0.0,0.0,0.0,0.0,0.0,0.0,0.0,0.0,0.0,0.0,0.0,0.0,0.0,0.0,0.0,0.0,0.0,0.0,0.0,0.0,0.0,0.0,0.0,0.0,0.0,0.0,0.0,0.0,0.0,0.0,0.0,0.0,0.0,0.0,0.0,0.0,0.0,0.0,0.0,0.0,0.0,0.0,0.0,0.0,0.0,0.0,0.0,0.0,0.0,0.0,0.0,0.0,0.0,0.0,0.0,0.0,0.0,0.0,0.0,-2.8291,0.0,0.0,0.0,0.0,0.0,0.0,0.0,0.0,0.0,0.0,0.0,0.0,0.0,0.0,0.0,0.0,0.0,0.0,0.0,0.0,0.0,0.0,0.0,0.0,0.0,0.0,0.0,0.0,0.0,0.0,0.0,0.0,0.0,0.0,0.0,0.0,0.0,0.0,0.0,0.0,0.0,0.0,0.0,0.0,0.0,0.0,0.0,0.0,0.0,0.0,0.0,0.0,0.0,0.0,0.0,0.0,0.0,0.0,0.0,0.0,0.0,0.0,0.0,0.0,0.0,0.0,0.0,0.0,0.0,0.0,0.0,0.0,0.0,0.0,0.0,0.0,0.0,0.0,0.0,0.0,0.0,0.0,0.0,0.0,0.0,0.0,0.0,0.0,0.0,0.0,0.0,0.0,0.0,0.0,0.0,0.0,0.0,0.0,0.0,0.0,0.0,0.0,0.0,0.0,0.0,0.0,0.0,0.0,0.0,0.0,0.0,0.0,0.0,0.0,0.0,0.0,-2.8344,0.0,0.0,0.0,0.0,0.0,0.0,0.0,0.0,0.0,0.0,0.0,0.0,0.0,0.0,0.0,0.0,0.0,0.0,0.0,0.0,0.0,0.0,0.0,0.0,0.0,0.0,0.0,0.0,0.0,0.0,0.0,0.0,0.0,0.0,0.0,0.0,0.0,0.0,0.0,0.0,0.0,0.0,0.0,0.0,0.0,0.0,0.0,0.0,0.0,0.0,0.0,0.0,0.0,0.0,0.0,0.0,0.0,0.0,0.0,0.0,0.0,0.0,0.0,0.0,0.0,0.0,0.0,0.0,0.0,0.0,0.0,0.0,0.0,0.0,0.0,0.0,0.0,0.0,0.0,0.0,0.0,0.0,0.0,0.0,0.0,0.0,0.0,0.0,0.0,0.0,0.0,0.0,0.0,0.0,0.0,0.0,0.0,0.0,0.0,0.0,0.0,0.0,0.0,0.0,0.0,0.0,0.0,0.0,-2.8291,-2.8291,-2.8291,-2.8291,-2.833,-2.8398,-2.8398,-2.8569,-2.8876,0.0,0.0,0.0,0.0,0.0,0.0,0.0,0.0,0.0,0.0,0.0,0.0,0.0,0.0,0.0,0.0,0.0,0.0,0.0,0.0,0.0,0.0,0.0,0.0,0.0,0.0,0.0,0.0,0.0,0.0,0.0,0.0,0.0,0.0,0.0,0.0,0.0,0.0,0.0,-2.9399,-2.9334,-2.9294,-2.9131,-2.7497,0.0,0.0,0.0,0.0,0.0,0.0,0.0,0.0,0.0,0.0,0.0,0.0,0.0,0.0,0.0,0.0,0.0,0.0,0.0,0.0,0.0,0.0,0.0,0.0,0.0,0.0,0.0,0.0,0.0,0.0,0.0,0.0,0.0,0.0,0.0,0.0,0.0,0.0,0.0,0.0,0.0,0.0,0.0,-2.7852,-2.7865,0.0,0.0,0.0,0.0,0.0,0.0,0.0,0.0,0.0,0.0,0.0,0.0,0.0,0.0,-2.8684,-2.8451,-2.8291,-2.8291,-2.8291,-2.8291,-2.8291,-2.8291,-2.8496,-2.8838,-2.8838,0.0,-2.9357,-3.0088,0.0,0.0,0.0,0.0,0.0,0.0,0.0,0.0,0.0,0.0,0.0,0.0,0.0,0.0,0.0,0.0,0.0,0.0,0.0,0.0,0.0,0.0,0.0,0.0,0.0,0.0,0.0,0.0,0.0,0.0,0.0,0.0,0.0,0.0,0.0,0.0,-3.0004,-3.0341,-3.0885,-3.0711,-3.0629,-3.0629,-2.9555,-2.8427,-2.7307,-2.7162,0.0,0.0,0.0,0.0,0.0,0.0,0.0,0.0,0.0,0.0,0.0,0.0,0.0,0.0,0.0,0.0,0.0,0.0,0.0,0.0,0.0,0.0,0.0,0.0,0.0,0.0,0.0,0.0,0.0,0.0,0.0,0.0,0.0,0.0,0.0,0.0,0.0,0.0,0.0,-2.7645,-2.8017,-2.8276,-2.8721,-2.9187,0.0,0.0,0.0,0.0,0.0,0.0,0.0,0.0,0.0,-2.9343,-2.9185,-2.892,-2.8461,-2.8344,-2.8291,-2.8291,-2.8291,-2.8291,-2.8301,-2.8535,-2.874,-2.8945,-2.9434,-2.9918,-3.0384,-3.0695,-3.1233,-3.1886,0.0,0.0,0.0,0.0,0.0,-3.2669,0.0,0.0,0.0,0.0,0.0,0.0,0.0,0.0,0.0,0.0,0.0,0.0,0.0,0.0,0.0,0.0,0.0,0.0,0.0,0.0,0.0,0.0,0.0,0.0,0.0,0.0,0.0,0.0,-3.1292,-3.1706,-3.2196,-3.1899,-3.1776,-3.1763,-3.1352,-3.0171,-2.857,-2.8345,-2.7859,0.0,0.0,0.0,0.0,0.0,0.0,0.0,0.0,0.0,0.0,0.0,0.0,0.0,0.0,0.0,0.0,0.0,0.0,0.0,0.0,0.0,0.0,0.0,0.0,0.0,0.0,0.0,0.0,0.0,0.0,0.0,0.0,0.0,0.0,0.0,0.0,0.0,0.0,-2.7821,-2.8276,-2.8731,-2.9197,-2.9622,0.0,0.0,0.0,0.0,0.0,0.0,-2.9994,-2.9994,-2.9722,-2.9132,-2.9079,-2.8814,-2.8291,-2.8398,-2.8447,-2.8447,-2.8564,-2.8613,-2.8633,-2.8945,-2.9141,-2.9277,-2.9988,-3.0673,-3.1284,-3.1284,-3.1635,-3.2194,-3.2545,-3.2669,-3.2669,-3.2669,-3.2669,-3.2669,0.0,0.0,0.0,0.0,0.0,0.0,0.0,0.0,0.0,0.0,0.0,0.0,0.0,0.0,0.0,0.0,0.0,0.0,0.0,0.0,0.0,0.0,0.0,0.0,0.0,0.0,0.0,-3.1468,-3.2047,-3.2652,-3.3237,-3.2962,-3.2826,-3.2787,-3.2344,-3.1137,-2.9517,-2.9517,-2.8984,-2.8087,0.0,0.0,0.0,0.0,0.0,0.0,0.0,0.0,0.0,0.0,0.0,0.0,0.0,0.0,0.0,0.0,0.0,0.0,0.0,0.0,0.0,0.0,0.0,0.0,0.0,0.0,0.0,0.0,0.0,0.0,0.0,0.0,0.0,0.0,0.0,0.0,0.0,0.0,0.0,-2.9218,-2.9684,0.0,0.0,0.0,0.0,-2.9994,-2.9994,-2.9994,-2.9994,-2.9994,-2.9722,-2.9132,-2.9079,-2.8814,-2.8291,-2.8682,-2.8887,-2.8896,-2.9307,-2.9502,-2.9567,-2.9587,-2.9756,-3.0137,-3.0547,-3.109,-3.1747,-3.1747,-3.2113,-3.2638,-3.2669,-3.2669,-3.2669,-3.2669,-3.2669,-3.2669,0.0,0.0,0.0,0.0,0.0,0.0,0.0,0.0,0.0,0.0,0.0,0.0,0.0,0.0,0.0,0.0,0.0,0.0,0.0,0.0,0.0,0.0,0.0,0.0,0.0,0.0,-3.2963,-3.3165,-3.3385,-3.3654,-3.4014,-3.3598,-3.3431,-3.3418,-3.2967,-3.2214,-3.1228,-3.077,-3.011,-2.9338,-2.9072,-2.8493,0.0,0.0,0.0,0.0,0.0,0.0,0.0,0.0,0.0,0.0,0.0,0.0,0.0,0.0,0.0,0.0,0.0,0.0,0.0,0.0,0.0,0.0,0.0,0.0,0.0,0.0,0.0,0.0,0.0,0.0,0.0,0.0,0.0,0.0,0.0,0.0,0.0,-2.929,-2.9715,0.0,-2.9994,-2.9994,-2.9994,-2.9994,-2.9994,-2.9994,-2.9994,-3.0284,-3.0269,-2.9812,-2.9944,-2.9833,-2.9396,-2.9378,-2.9336,-2.9336,-2.9492,-2.9626,-2.9636,-3.0089,-3.0362,-3.0519,-3.0995,-3.1559,-3.2133,-3.2055,-3.2295,-3.2669,-3.2669,-3.2669,-3.2727,-3.2976,-3.31,-3.31,0.0,0.0,0.0,0.0,0.0,0.0,0.0,0.0,0.0,0.0,0.0,0.0,0.0,0.0,0.0,0.0,0.0,0.0,0.0,0.0,0.0,0.0,0.0,0.0,0.0,-3.3398,-3.3823,-3.4202,-3.4202,-3.4243,-3.4272,-3.3882,-3.367,-3.3598,-3.324,-3.2867,-3.2478,-3.1959,-3.1261,-3.0428,-3.0212,-2.9748,-2.9189,0.0,0.0,0.0,0.0,0.0,0.0,0.0,0.0,0.0,0.0,0.0,0.0,0.0,0.0,0.0,0.0,0.0,0.0,0.0,0.0,0.0,0.0,0.0,0.0,0.0,0.0,0.0,0.0,0.0,0.0,0.0,0.0,0.0,0.0,0.0,-2.9363,-2.9518,-2.9808,-2.9994,-2.9994,-2.9994,-2.9994,-2.9994,-3.0139,-3.0232,-3.0232,-3.0667,-3.0797,-3.0442,-3.0474,-3.0369,-2.997,-2.9885,-2.9785,-2.9785,-2.9941,-3.0066,-3.0189,-3.0655,-3.0956,-3.1013,-3.1559,-3.192,-3.2238,-3.2285,-3.2467,-3.2669,-3.2669,-3.2794,-3.2908,-3.3214,-3.3625,-3.4147,0.0,0.0,0.0,0.0,0.0,0.0,0.0,0.0,0.0,0.0,0.0,0.0,0.0,0.0,0.0,0.0,0.0,0.0,0.0,0.0,0.0,0.0,0.0,0.0,-3.3398,-3.3865,-3.4202,-3.4397,-3.441,-3.4311,-3.4102,-3.3849,-3.3649,-3.3449,-3.3248,-3.3162,-3.3149,-3.3149,-3.2466,-3.1436,-3.1231,-3.1096,-3.1083,0.0,0.0,0.0,0.0,0.0,0.0,0.0,0.0,0.0,0.0,0.0,0.0,0.0,0.0,0.0,0.0,0.0,0.0,0.0,0.0,0.0,0.0,0.0,0.0,0.0,0.0,0.0,0.0,0.0,0.0,0.0,0.0,0.0,-2.9321,-2.9321,-2.9497,-2.9942,-2.9994,-2.9994,-3.0005,-3.0015,-3.0025,-3.0025,-3.045,-3.0708,-3.0708,-3.1143,-3.1271,-3.0966,-3.0666,-3.0399,-3.0066,-3.0189,-3.0272,-3.0282,-3.0741,-3.1073,-3.1354,-3.1354,-3.145,-3.1584,-3.2153,-3.2268,-3.219,-3.2565,-3.2758,-3.269,-3.2737,-3.2919,-3.3281,-3.3349,-3.4279,-3.5725,0.0,0.0,0.0,0.0,0.0,0.0,0.0,0.0,0.0,0.0,0.0,0.0,0.0,0.0,0.0,0.0,0.0,0.0,0.0,0.0,0.0,0.0,0.0,0.0,0.0,-3.4063,-3.4356,-3.4397,-3.4647,-3.4727,-3.4697,-3.4689,-3.4761,-3.4837,-3.4451,-3.4136,-3.3946,-3.3758,-3.3257,-3.2579,-3.2123,-3.1667,-3.1317,0.0,0.0,0.0,0.0,0.0,0.0,0.0,0.0,0.0,0.0,0.0,0.0,0.0,0.0,0.0,0.0,0.0,0.0,0.0,0.0,0.0,0.0,0.0,0.0,0.0,0.0,0.0,0.0,0.0,0.0,0.0,0.0,-2.9808,-2.9808,-2.9808,-2.9849,-2.9984,-2.9994,-3.014,-3.0496,-3.0515,-3.067,-3.0986,-3.1127,-3.1184,-3.1184,-3.1619,-3.1791,-3.168,-3.1774,-3.1767,-3.1653,-3.1479,-3.1377,-3.1377,-3.1836,-3.2104,-3.2163,-3.2404,-3.2722,-3.3019,-3.3454,-3.3571,-3.354,-3.3416,-3.3281,-3.3172,-3.2851,-3.2908,-3.3292,-3.4133,-3.5571,-3.7326,0.0,0.0,0.0,0.0,0.0,0.0,0.0,0.0,0.0,0.0,0.0,0.0,0.0,0.0,0.0,0.0,0.0,0.0,0.0,0.0,0.0,0.0,0.0,0.0,0.0,0.0,-3.4721,-3.4595,-3.5051,-3.5174,-3.4999,-3.5156,-3.522,-3.5264,-3.513,-3.4908,-3.4603,-3.423,-3.3896,-3.3487,-3.292,-3.2462,-3.2143,-3.2214,-3.2172,-3.2056,-3.2127,-3.2025,-3.1816,-3.1784,0.0,0.0,0.0,0.0,0.0,0.0,0.0,0.0,0.0,0.0,0.0,0.0,0.0,0.0,0.0,0.0,0.0,0.0,0.0,0.0,0.0,0.0,0.0,0.0,-2.9994,-2.9994,-2.9994,-2.9994,-3.0067,-3.0263,-3.0284,-3.0452,-3.0947,-3.0963,-3.1125,-3.1387,-3.1581,-3.165,-3.165,-3.2085,-3.2277,-3.2277,-3.2297,-3.2397,-3.2523,-3.1989,-3.1768,-3.2036,-3.2513,-3.2852,-3.307,-3.3173,-3.3544,0.0,-3.4201,-3.439,-3.4529,-3.4295,-3.4158,0.0,0.0,0.0,0.0,0.0,-3.736,-3.8707,0.0,0.0,0.0,0.0,0.0,0.0,0.0,0.0,0.0,0.0,0.0,0.0,0.0,0.0,0.0,0.0,0.0,0.0,0.0,0.0,0.0,0.0,0.0,0.0,0.0,0.0,-3.5158,-3.4887,-3.5546,-3.5647,-3.5199,-3.5417,-3.5455,-3.5333,-3.5532,-3.5507,-3.5206,-3.4667,-3.4318,-3.4141,-3.369,-3.3376,-3.3197,-3.3356,-3.3441,-3.3398,-3.324,-3.3154,-3.3068,-3.2649,0.0,0.0,0.0,0.0,0.0,0.0,0.0,0.0,0.0,0.0,0.0,0.0,0.0,0.0,0.0,0.0,0.0,0.0,0.0,0.0,0.0,0.0,0.0,0.0,-3.0036,-3.0077,-3.0077,-3.0118,-3.0284,-3.0646,-3.0729,-3.0961,-3.1416,-3.1483,-3.1492,-3.1573,-3.189,-3.206,-3.206,0.0,0.0,0.0,0.0,-3.2592,-3.3031,-3.2194,-3.2038,-3.2585,-3.3035,-3.3486,-3.3978,-3.3918,-3.4199,-3.4679,-3.4795,-3.5064,-3.5376,-3.5285,-3.5291,-3.5286,-3.4514,-3.4643,-3.5531,-3.8137,-3.938,0.0,0.0,0.0,0.0,0.0,0.0,0.0,0.0,0.0,0.0,0.0,0.0,0.0,0.0,0.0,0.0,0.0,0.0,0.0,0.0,0.0,0.0,0.0,0.0,0.0,0.0,0.0,0.0,-3.4887,-3.5787,-3.6031,-3.5737,-3.6248,-3.6544,-3.6695,-3.6544,-3.6335,-3.6018,-3.5507,-3.4836,-3.4179,-3.4065,-3.3878,-3.3598,-3.3641,-3.3641,-3.3641,-3.3598,-3.3471,-3.3313,-3.3227,-3.3111,-3.3027,-3.3464,-3.3456,0.0,0.0,0.0,0.0,0.0,0.0,0.0,0.0,0.0,0.0,0.0,0.0,0.0,0.0,0.0,0.0,0.0,0.0,0.0,-2.9994,-3.0315,-3.0553,-3.0553,-3.0874,-3.1008,-3.0719,-3.1019,-3.1415,-3.1837,-3.1882,-3.2029,-3.2442,-3.2514,-3.2545,-3.2545,-3.2628,0.0,-3.3244,-3.3186,-3.3413,-3.3868,-3.3659,-3.3631,-3.3793,0.0,0.0,-3.4652,-3.534,-3.5629,-3.568,-3.6088,-3.6381,-3.6549,-3.6161,-3.6415,-3.7066,-3.6277,-3.6773,-3.7999,-3.9331,-4.0586,-4.1744,0.0,0.0,0.0,0.0,0.0,0.0,0.0,0.0,0.0,0.0,0.0,0.0,0.0,0.0,0.0,0.0,0.0,0.0,0.0,0.0,0.0,0.0,0.0,0.0,0.0,0.0,0.0,0.0,-3.6077,-3.6462,-3.6526,-3.6887,-3.7168,-3.7307,-3.7155,-3.6954,-3.666,-3.5699,-3.5039,-3.4616,-3.4119,-3.3939,-3.3894,-3.3894,-3.3894,-3.3894,-3.3894,-3.3865,-3.3696,-3.3484,-3.3503,-3.3663,-3.3853,-3.4107,-3.4276,0.0,0.0,0.0,0.0,0.0,0.0,0.0,0.0,0.0,0.0,0.0,0.0,0.0,0.0,-2.9994,0.0,0.0,-3.0077,-3.0305,-3.0532,-3.077,-3.0998,-3.1422,-3.1619,-3.1391,-3.1567,-3.1868,-3.2317,-3.2354,-3.2514,-3.3027,-3.3058,-3.3151,-3.3389,-3.3399,-3.3503,-3.372,-3.372,-3.4007,-3.4474,-3.4323,-3.4436,-3.4745,-3.4983,-3.5086,-3.5097,-3.5715,-3.6065,-3.6178,-3.6943,-3.7407,-3.7632,-3.7866,-3.8426,-3.9105,-3.8897,-3.9128,-3.9754,-4.0694,-4.1671,-4.2681,0.0,0.0,0.0,0.0,0.0,0.0,0.0,0.0,0.0,0.0,0.0,0.0,0.0,0.0,0.0,0.0,0.0,0.0,0.0,0.0,0.0,0.0,0.0,0.0,0.0,0.0,0.0,0.0,0.0,-3.6567,-3.6788,-3.7134,-3.7337,-3.7337,-3.7453,-3.7289,-3.6937,-3.5767,-3.5181,-3.4978,-3.4178,-3.3997,-3.416,-3.416,-3.416,-3.416,-3.416,-3.4118,-3.4059,-3.3769,-3.3941,-3.4274,-3.4369,-3.4826,-3.5254,-3.4779,-3.433,0.0,0.0,0.0,0.0,0.0,0.0,0.0,0.0,0.0,-2.9994,-2.9994,-2.9994,-3.0025,-3.0118,-3.0129,-3.0284,-3.0739,-3.0895,-3.1081,-3.1454,-3.1888,-3.2122,-3.2122,-3.2122,-3.2297,-3.2809,-3.2851,-3.3037,-3.3472,-3.3572,-3.3668,-3.3961,-3.3982,-3.4023,-3.4106,-3.4176,-3.4474,-3.5083,-3.4848,-3.5024,-3.5603,-3.5603,-3.5603,-3.5603,-3.6044,-3.6351,-3.6717,-3.7867,-3.8514,-3.8837,-3.9721,-4.0374,-4.0906,-4.1263,-4.1263,-4.1136,-4.1891,-4.2569,-4.3141,0.0,0.0,0.0,0.0,0.0,0.0,0.0,0.0,0.0,0.0,0.0,0.0,0.0,0.0,0.0,0.0,0.0,0.0,0.0,0.0,0.0,0.0,0.0,0.0,0.0,0.0,0.0,0.0,0.0,-3.5793,-3.559,-3.6348,-3.6716,-3.6742,-3.7272,-3.7208,-3.6612,-3.6029,-3.5449,-3.4891,-3.4589,-3.4443,-3.4356,-3.4356,-3.4356,-3.4356,-3.4356,-3.4243,-3.4153,-3.4573,-3.4663,-3.4733,-3.5718,-3.5933,-3.5756,-3.554,-3.4788,-3.3758,-3.2711,-3.1454,-3.0391,-3.0099,-2.9994,-2.9994,0.0,0.0,-2.9994,-2.9994,-2.9994,-3.0118,-3.0532,-3.0605,-3.076,-3.1226,-3.1629,-3.1853,-3.1905,-3.2308,-3.2597,-3.2597,-3.2597,-3.282,-3.3265,-3.3306,-3.3492,-3.4017,-3.3989,-3.392,-3.3651,-3.3651,-3.3815,-3.4074,-3.4327,-3.493,-3.5951,-3.5797,-3.593,-3.63,-3.63,-3.63,-3.63,-3.695,-3.7445,-3.7818,-3.9285,-4.0106,-4.0501,-4.1136,-4.1423,-4.1537,-4.2118,-4.2356,-4.2287,-4.24,-4.2849,-4.3406,0.0,0.0,0.0,0.0,0.0,0.0,0.0,0.0,0.0,0.0,0.0,0.0,0.0,0.0,0.0,0.0,0.0,0.0,0.0,0.0,0.0,0.0,0.0,0.0,0.0,0.0,0.0,0.0,0.0,0.0,-3.5815,-3.6137,-3.6285,-3.6298,-3.645,-3.6379,-3.6089,-3.543,-3.4976,-3.4688,-3.4397,-3.4296,-3.4243,-3.4356,-3.4397,-3.4397,-3.4397,-3.4578,0.0,0.0,-3.5283,-3.5826,-3.6167,-3.6356,-3.6324,-3.5939,-3.5078,-3.3845,-3.2167,-3.1167,-3.0505,0.0,-2.9994,-2.9994,-2.9994,-2.9994,-2.9994,-2.9994,-3.0212,-3.046,-3.0646,-3.0905,-3.1236,0.0,-3.1864,-3.2081,-3.2349,-3.2556,-3.282,-3.3078,-3.311,-3.3172,-3.3358,-3.3627,-3.3969,-3.4494,-3.4536,-3.4569,-3.4665,-3.4675,-3.4818,-3.5127,-3.528,-3.5589,-3.626,-3.6249,-3.65,-3.7146,-3.7146,-3.7522,-3.8142,-3.8647,-3.9273,-4.0078,-4.108,-4.1598,-4.1777,-4.2004,-4.2231,-4.2457,-4.2694,-4.2806,-4.2806,-4.2806,-4.3197,-4.3708,0.0,0.0,0.0,0.0,0.0,0.0,0.0,0.0,0.0,0.0,0.0,0.0,0.0,0.0,0.0,0.0,0.0,0.0,0.0,0.0,0.0,0.0,0.0,0.0,0.0,0.0,0.0,0.0,0.0,0.0,-3.5639,-3.5809,-3.5874,-3.5887,-3.5895,-3.5807,-3.5639,-3.495,-3.4637,-3.4543,-3.4202,-3.4221,-3.4448,-3.4604,-3.4737,-3.4842,-3.4698,-3.4933,0.0,0.0,-3.6028,-3.6696,-3.6741,-3.6729,-3.6628,-3.6156,-3.4981,-3.3449,-3.1578,0.0,0.0,-3.0099,-2.9994,-2.9994,-2.9994,-2.9994,-3.0036,-3.016,-3.045,-3.076,-3.1008,-3.1329,-3.1702,-3.2101,-3.2173,-3.2287,-3.2628,-3.283,-3.3027,-3.3337,-3.3606,-3.3762,-3.3762,-3.4062,-3.4505,-3.491,-3.4941,-3.5086,-3.5407,-3.549,-3.5757,-3.6025,-3.6199,-3.6641,-3.7303,-3.7187,-3.7638,-3.8735,-3.8735,-3.9209,-4.009,-4.0532,-4.1178,-4.2146,-4.2686,-4.2901,-4.2862,-4.2862,-4.2887,-4.2974,-4.2974,-4.2974,-4.303,-4.3085,-4.3432,-4.3899,0.0,0.0,0.0,0.0,0.0,0.0,0.0,0.0,0.0,0.0,0.0,0.0,0.0,0.0,0.0,0.0,0.0,0.0,0.0,0.0,0.0,0.0,0.0,0.0,0.0,0.0,0.0,0.0,0.0,0.0,0.0,-3.5051,-3.5325,-3.5338,-3.5874,-3.5809,-3.5282,-3.5029,-3.4692,-3.4382,-3.416,-3.4595,-3.5273,-3.5273,-3.56,-3.5979,-3.5456,0.0,0.0,0.0,-3.6972,-3.7103,-3.7691,-3.7294,0.0,-3.6156,-3.4337,-3.2218,-3.1127,0.0,-3.0339,-3.0047,-2.9994,-2.9994,-2.9994,-2.9994,-3.0118,-3.0574,-3.0677,-3.0957,-3.1781,-3.1957,-3.2112,-3.2576,-3.2659,-3.2659,-3.2669,-3.3089,-3.3358,-3.3379,-3.4225,-3.4774,0.0,-3.4785,-3.4921,-3.5366,-3.5407,-3.5407,-3.5418,-3.583,-3.619,-3.6366,-3.7029,-3.8105,-3.9572,-3.9225,-3.9787,-4.1315,-4.1315,-4.1425,-4.1776,-4.2401,-4.3068,-4.3647,-4.3977,-4.4016,-4.3777,-4.3777,-4.3463,-4.2974,-4.2974,-4.2974,-4.303,-4.3295,-4.3585,-4.3955,0.0,0.0,0.0,0.0,0.0,0.0,0.0,0.0,0.0,0.0,0.0,0.0,0.0,0.0,0.0,0.0,0.0,0.0,0.0,0.0,0.0,0.0,0.0,0.0,0.0,0.0,0.0,0.0,0.0,0.0,0.0,0.0,-3.4698,-3.4711,-3.4894,-3.4868,-3.4698,-3.4614,-3.4497,-3.4437,-3.4757,-3.5074,-3.5338,-3.5691,-3.594,-3.6136,0.0,0.0,0.0,0.0,-3.7273,-3.7639,-3.7848,-3.7353,-3.638,-3.4872,-3.3449,-3.2167,-3.1075,-3.0609,-3.0349,-3.0047,-2.9994,-3.0077,-3.0387,-3.045,-3.0584,-3.105,-3.1381,-3.1681,-3.1926,-3.2235,-3.2494,-3.2649,-3.2669,-3.283,-3.312,-3.3285,-3.3606,-3.4277,-3.4629,0.0,0.0,0.0,0.0,-3.5407,-3.5418,-3.5479,-3.5737,-3.587,-3.6444,-3.7379,-3.7917,-3.8841,-4.0278,-4.0531,-4.1277,-4.2524,-4.3284,-4.3696,-4.3807,-4.4511,-4.4689,-4.4593,-4.4901,-4.4765,-4.4342,-4.4342,-4.4016,-4.3526,-4.3526,-4.34,-4.3295,-4.3598,-4.3942,-4.4161,0.0,0.0,0.0,0.0,0.0,0.0,0.0,0.0,0.0,0.0,0.0,0.0,0.0,0.0,0.0,0.0,0.0,0.0,0.0,0.0,0.0,0.0,0.0,0.0,0.0,0.0,0.0,0.0,0.0,0.0,0.0,0.0,-3.4397,-3.4397,-3.4397,-3.4397,-3.4397,-3.4397,-3.4515,-3.475,-3.5142,-3.5534,-3.5953,-3.6292,-3.6567,0.0,0.0,0.0,0.0,0.0,-3.7586,-3.79,-3.7808,-3.6968,-3.569,-3.3956,-3.2773,-3.1823,-3.1034,-3.0505,-3.0193,-3.0047,-3.0118,-3.0325,-3.0615,-3.0812,-3.106,-3.1516,-3.1836,-3.2039,-3.2194,-3.2473,-3.2669,-3.2669,-3.2669,-3.2882,-3.3317,-3.3524,-3.3966,-3.4733,-3.5022,-3.5291,0.0,0.0,0.0,-3.5613,-3.5675,-3.586,-3.6044,-3.6412,-3.7071,-3.8036,-3.8987,-4.0051,-4.14,-4.2028,-4.2913,-4.405,-4.4951,-4.5367,-4.5355,-4.5805,-4.5812,-4.5475,-4.5714,-4.546,-4.4932,-4.4932,-4.4606,-4.4091,-4.4206,-4.4036,-4.3767,-4.4237,-4.4329,-4.4313,0.0,0.0,0.0,0.0,0.0,0.0,0.0,0.0,0.0,0.0,0.0,0.0,0.0,0.0,0.0,0.0,0.0,0.0,0.0,0.0,0.0,0.0,0.0,0.0,0.0,0.0,0.0,0.0,0.0,0.0,0.0,0.0,0.0,-3.4397,-3.4397,-3.441,-3.445,-3.445,-3.4789,-3.5338,-3.5365,-3.6031,-3.6998,-3.7037,0.0,0.0,0.0,0.0,0.0,0.0,0.0,-3.7808,-3.7505,-3.6238,-3.4581,-3.3484,-3.224,-3.1127,-3.0879,-3.0433,-3.0036,-3.0036,-3.0377,-3.0729,-3.075,-3.1091,-3.1536,-3.1926,-3.2019,-3.2153,0.0,-3.2669,-3.2669,-3.2669,-3.2669,-3.2892,-3.3348,-3.3793,-3.4308,0.0,0.0,0.0,0.0,0.0,0.0,-3.5983,0.0,-3.6423,-3.6484,-3.7385,-3.8096,-3.8421,-4.0136,-4.1638,-4.2879,-4.3735,-4.4754,-4.5817,-4.6132,-4.6313,-4.6313,-4.6313,-4.6313,-4.6313,-4.6313,-4.6012,-4.5535,-4.5535,-4.5196,-4.4727,-4.5016,-4.4859,-4.4464,-4.4999,-4.4873,-4.4406,0.0,0.0,0.0,0.0,0.0,0.0,0.0,0.0,0.0,0.0,0.0,0.0,0.0,0.0,0.0,0.0,0.0,0.0,0.0,0.0,0.0,0.0,0.0,0.0,0.0,0.0,0.0,0.0,0.0,0.0,0.0,0.0,0.0,0.0,-3.4397,-3.4646,-3.5064,-3.5064,-3.5391,-3.594,0.0,-3.6737,-3.705,0.0,0.0,0.0,0.0,0.0,0.0,0.0,0.0,0.0,0.0,-3.5655,-3.4532,-3.3062,-3.1924,-3.1075,-3.0609,-3.0506,-3.0512,-3.0512,-3.0853,-3.1288,-3.1619,-3.1785,-3.2002,-3.2401,-3.2494,-3.2535,-3.2659,-3.2669,-3.2669,-3.2669,-3.2669,0.0,-3.3782,-3.3989,0.0,-3.5159,0.0,-3.5921,-3.5921,-3.6656,0.0,0.0,-3.6889,-3.7011,-3.7517,-3.8156,-3.9037,-4.0083,-4.1579,-4.2793,-4.3838,-4.5134,-4.5862,-4.618,-4.6253,-4.6313,-4.6313,-4.6313,-4.6313,-4.6313,-4.6313,-4.6225,-4.61,-4.61,-4.588,-4.5598,-4.5657,-4.5662,-4.5567,-4.5309,-4.5243,-4.5226,0.0,0.0,0.0,0.0,0.0,0.0,0.0,0.0,0.0,0.0,0.0,0.0,0.0,0.0,0.0,0.0,0.0,0.0,0.0,0.0,0.0,0.0,0.0,0.0,0.0,0.0,0.0,0.0,0.0,0.0,0.0,0.0,0.0,-3.441,-3.4672,-3.4986,-3.5312,0.0,0.0,0.0,0.0,0.0,0.0,0.0,0.0,0.0,0.0,0.0,0.0,0.0,0.0,-3.6968,-3.5953,-3.4933,-3.3845,-3.2611,0.0,-3.0859,-3.0748,-3.0683,-3.0739,-3.0936,-3.1329,-3.1733,-3.1926,-3.2142,-3.2359,-3.2675,-3.2669,-3.2669,-3.2669,-3.2669,-3.2669,0.0,0.0,0.0,-3.3938,-3.4132,-3.4463,0.0,-3.6034,0.0,-3.6778,-3.7555,-3.8096,0.0,-3.7905,-3.7965,-3.8477,-3.9226,-4.0188,-4.1427,-4.2727,-4.3942,-4.5076,-4.588,-4.6313,-4.6313,-4.6313,-4.6313,-4.6313,-4.6313,-4.6313,-4.6313,0.0,-4.6313,-4.6313,-4.6434,-4.6424,-4.6311,-4.6593,-4.6598,-4.6319,-4.5918,-4.5722,-4.5477,0.0,0.0,0.0,0.0,0.0,0.0,0.0,0.0,0.0,0.0,0.0,0.0,0.0,0.0,0.0,0.0,0.0,0.0,0.0,0.0,0.0,0.0,0.0,0.0,0.0,0.0,0.0,0.0,0.0,0.0,0.0,0.0,0.0,0.0,0.0,0.0,0.0,0.0,0.0,0.0,0.0,0.0,0.0,0.0,0.0,0.0,0.0,0.0,0.0,0.0,-3.7062,-3.6474,-3.5463,-3.4239,-3.3001,-3.2167,-3.1251,-3.0569,-3.0936,-3.0975,-3.0967,-3.1371,-3.1805,-3.2081,-3.2081,-3.239,-3.2669,-3.2669,0.0,-3.2669,-3.2669,-3.2669,-3.2669,-3.2669,0.0,-3.3037,-3.4007,-3.4191,-3.4583,-3.5816,-3.6585,-3.7253,-3.7867,-3.8574,-3.9108,-3.9473,-3.9285,-3.9274,-3.9473,-4.0397,-4.1413,-4.2656,-4.3758,-4.4964,-4.6301,-4.6313,-4.6313,-4.6313,-4.6313,-4.6313,-4.6313,-4.6313,-4.6313,-4.6313,0.0,0.0,-4.6373,-4.6686,-4.6853,-4.6972,-4.7527,-4.7464,-4.7042,-4.6686,-4.6238,-4.565,0.0,0.0,0.0,0.0,0.0,0.0,0.0,0.0,0.0,0.0,-3.594,-3.526,0.0,0.0,0.0,0.0,0.0,0.0,0.0,0.0,0.0,0.0,0.0,0.0,0.0,0.0,0.0,0.0,0.0,0.0,0.0,0.0,0.0,0.0,0.0,0.0,0.0,0.0,0.0,0.0,0.0,0.0,0.0,0.0,0.0,0.0,0.0,0.0,0.0,0.0,-3.6615,-3.6178,-3.521,-3.3944,-3.2661,-3.1618,-3.1187,-3.0936,-3.0817,-3.128,-3.1771,-3.1909,-3.2215,-3.2556,-3.2556,-3.2618,0.0,0.0,-3.2669,-3.2669,-3.2669,-3.2669,-3.2669,-3.2669,0.0,0.0,0.0,0.0,-3.4953,0.0,-3.69,-3.7544,-3.8194,-3.9097,0.0,0.0,0.0,0.0,-4.0501,-4.1366,-4.2573,-4.4153,-4.4928,-4.5588,-4.6301,-4.6313,-4.6313,-4.6313,-4.6313,-4.6313,-4.6313,-4.6313,-4.6313,-4.6313,0.0,0.0,-4.6746,-4.6806,-4.7078,-4.7527,-4.7632,-4.7815,-4.7918,-4.7344,-4.6826,-4.6251,0.0,0.0,0.0,0.0,0.0,0.0,0.0,-3.8057,-3.7997,-3.7857,-3.7096,-3.6405,-3.5986,-3.5378,0.0,0.0,0.0,0.0,0.0,0.0,0.0,0.0,0.0,0.0,0.0,0.0,0.0,0.0,0.0,0.0,0.0,0.0,0.0,0.0,0.0,0.0,0.0,0.0,0.0,0.0,0.0,0.0,0.0,0.0,0.0,0.0,0.0,0.0,0.0,0.0,-3.6178,-3.5355,-3.4288,-3.325,-3.2212,-3.1406,-3.1032,-3.0942,-3.1311,-3.1712,-3.2039,-3.2287,-3.2514,-3.2669,-3.2669,0.0,0.0,0.0,-3.2669,-3.2669,-3.2669,-3.2669,0.0,0.0,0.0,0.0,0.0,0.0,0.0,-3.6974,-3.7616,-3.8313,0.0,-4.0165,0.0,0.0,0.0,0.0,-4.1423,-4.2704,-4.3916,-4.5045,-4.5623,-4.6037,-4.6313,-4.6313,-4.6313,-4.6313,-4.6313,-4.6313,-4.6313,-4.6313,-4.6313,-4.6313,0.0,0.0,-4.6806,-4.7138,-4.7409,-4.769,-4.788,-4.8055,-4.812,-4.7545,-4.697,-4.6395,0.0,0.0,0.0,0.0,0.0,0.0,0.0,-3.8291,-3.844,-3.8634,-3.831,-3.7842,-3.7287,-3.6449,-3.5982,0.0,0.0,0.0,0.0,0.0,0.0,0.0,0.0,0.0,0.0,0.0,0.0,-3.4677,0.0,0.0,0.0,0.0,0.0,0.0,0.0,0.0,0.0,0.0,0.0,0.0,0.0,0.0,0.0,0.0,0.0,0.0,0.0,0.0,0.0,0.0,-3.569,-3.4532,-3.33,-3.2409,-3.1706,-3.1264,-3.0954,-3.1008,-3.176,-3.206,-3.2215,-3.2587,-3.2669,-3.2669,-3.2669,-3.2669,0.0,-3.2669,-3.2669,-3.2669,-3.2669,0.0,-3.2669,0.0,-3.2809,0.0,0.0,0.0,0.0,0.0,-3.8384,0.0,0.0,0.0,0.0,0.0,0.0,0.0,0.0,-4.3791,-4.4895,-4.5472,-4.6024,-4.6313,-4.6313,-4.6313,-4.6313,-4.6313,-4.6313,-4.6313,-4.6313,-4.6313,-4.6313,-4.6434,0.0,0.0,0.0,-4.7527,-4.7749,-4.7808,-4.8127,-4.8185,-4.8133,-4.7689,-4.7074,-4.6408,0.0,0.0,0.0,0.0,0.0,0.0,0.0,-3.8549,-3.8863,-3.8863,-3.906,-3.9285,-3.9656,-3.7952,-3.685,0.0,0.0,0.0,0.0,0.0,0.0,0.0,0.0,0.0,0.0,0.0,0.0,-3.5505,-3.5293,0.0,0.0,0.0,0.0,0.0,0.0,0.0,0.0,0.0,0.0,0.0,0.0,0.0,0.0,0.0,0.0,0.0,0.0,0.0,0.0,0.0,0.0,-3.4141,-3.2611,-3.1721,-3.1264,-3.1106,0.0,0.0,-3.1909,-3.2287,-3.2628,-3.2659,-3.2669,-3.2669,-3.2669,0.0,-3.2669,-3.2669,-3.2669,-3.2669,-3.2669,-3.2669,-3.2669,0.0,0.0,-3.3726,0.0,0.0,0.0,0.0,0.0,0.0,0.0,0.0,0.0,0.0,0.0,0.0,0.0,-4.4234,-4.4895,-4.5472,-4.6024,-4.6313,-4.6313,-4.6313,-4.6313,-4.6313,-4.6313,-4.6313,-4.6313,-4.6313,-4.6494,-4.6746,0.0,0.0,0.0,-4.769,-4.788,-4.8185,-4.8185,-4.8185,-4.8172,-4.8133,-4.7414,-4.6473,0.0,0.0,0.0,0.0,0.0,0.0,-3.8594,-3.9029,-3.9472,-3.9938,-4.0199,-4.0488,-4.0972,-4.0125,-3.9297,0.0,0.0,0.0,0.0,0.0,0.0,0.0,0.0,0.0,0.0,0.0,-3.5904,-3.6141,-3.5913,0.0,0.0,0.0,0.0,0.0,0.0,-3.7678,0.0,0.0,0.0,0.0,0.0,0.0,0.0,0.0,0.0,0.0,0.0,0.0,0.0,0.0,0.0,0.0,-3.2117,-3.1259,0.0,0.0,-3.1335,-3.1536,-3.2261,-3.2535,-3.2669,-3.2669,-3.2669,-3.2669,-3.2669,0.0,-3.2669,-3.2669,-3.2669,-3.2669,-3.2669,-3.2669,-3.2669,0.0,0.0,0.0,0.0,0.0,0.0,0.0,0.0,0.0,0.0,0.0,0.0,0.0,0.0,0.0,0.0,-4.433,-4.4895,-4.5472,-4.6024,-4.6313,-4.6313,-4.6313,-4.6313,-4.6313,-4.6313,-4.6313,-4.6313,-4.6494,-4.6673,-4.6806,0.0,0.0,0.0,-4.7938,-4.8068,-4.8185,-4.8185,-4.8185,-4.8185,-4.8185,-4.7453,-4.6473,0.0,0.0,0.0,0.0,0.0,-3.8652,-3.9042,-3.9604,-4.0229,-4.083,-4.1142,-4.1464,-4.1868,-4.1757,-4.1278,-4.042,0.0,0.0,0.0,0.0,0.0,0.0,0.0,0.0,0.0,0.0,-3.6824,-3.6836,-3.6604,-3.6773,0.0,0.0,-3.7495,-3.79,0.0,0.0,0.0,0.0,0.0,0.0,0.0,0.0,0.0,0.0,0.0,0.0,0.0,0.0,0.0,0.0,0.0,0.0,0.0,0.0,0.0,0.0,-3.1381,-3.1578,-3.2489,-3.2669,-3.2669,-3.2669,-3.2669,-3.2669,0.0,0.0,-3.2669,-3.2669,-3.2669,-3.2669,-3.2669,-3.2669,-3.2669,0.0,0.0,-3.3884,0.0,0.0,0.0,0.0,0.0,0.0,0.0,0.0,0.0,0.0,0.0,0.0,0.0,0.0,-4.4719,-4.546,-4.6024,-4.6313,-4.6313,-4.6313,-4.6313,-4.6313,-4.6313,-4.6373,-4.6434,-4.6686,-4.6913,0.0,0.0,0.0,0.0,-4.8127,-4.8185,-4.8185,-4.8185,-4.8081,-4.7924,-4.7924,-4.7205,-4.6225,0.0,0.0,0.0,0.0,0.0,0.0,-3.956,-4.0388,-4.11,-4.1354,-4.1729,-4.2087,-4.2351,-4.2392,-4.2392,-4.2377,0.0,0.0,0.0,0.0,0.0,0.0,0.0,0.0,0.0,0.0,-3.7529,-3.7679,-3.7471,-3.755,-3.79,-3.79,-3.79,-3.79,0.0,0.0,0.0,0.0,0.0,0.0,0.0,0.0,0.0,0.0,0.0,0.0,0.0,0.0,0.0,0.0,0.0,0.0,0.0,0.0,0.0,0.0,-3.1381,-3.1578,-3.2489,-3.2669,-3.2669,-3.2669,-3.2669,-3.2669,0.0,0.0,-3.2669,-3.2669,-3.2669,-3.2669,-3.2669,-3.2669,-3.2669,-3.2669,-3.332,0.0,0.0,0.0,0.0,0.0,0.0,0.0,0.0,0.0,0.0,0.0,0.0,0.0,0.0,0.0,-4.433,-4.5447,-4.6024,-4.6313,-4.6313,-4.6313,-4.6313,-4.6313,-4.6313,-4.6494,-4.6793,-4.6806,0.0,0.0,0.0,0.0,0.0,-4.8185,-4.8185,-4.8185,-4.8185,-4.7845,-4.7291,-4.7291,-4.6617,-4.5637,0.0,0.0,0.0,0.0,0.0,0.0,0.0,-4.1241,-4.1688,-4.2199,-4.2511,-4.2795,-4.297,-4.3025,-4.297,-4.2795,0.0,0.0,0.0,0.0,0.0,0.0,0.0,0.0,0.0,0.0,-3.8715,-3.8336,-3.8053,-3.7919,-3.79,-3.79,-3.79,-3.79,-3.79,-3.79,0.0,0.0,0.0,0.0,0.0,0.0,0.0,0.0,0.0,0.0,0.0,0.0,0.0,0.0,0.0,0.0,0.0,0.0,0.0,-3.1702,0.0,0.0,-3.2514,-3.2669,-3.2669,-3.2669,-3.2669,-3.2669,-3.2669,0.0,-3.2669,-3.2669,-3.2669,-3.2669,-3.2669,-3.2669,-3.2784,-3.3022,-3.3775,0.0,0.0,0.0,0.0,0.0,0.0,0.0,0.0,0.0,0.0,0.0,0.0,0.0,0.0,0.0,-4.4129,-4.4869,-4.5447,-4.5937,-4.6313,-4.6313,-4.6434,-4.6614,-4.6614,-4.678,-4.71,-4.729,0.0,0.0,0.0,0.0,0.0,-4.8185,-4.8185,-4.8146,-4.7754,-4.7492,-4.7283,-4.6891,-4.6277,-4.5568,0.0,0.0,0.0,0.0,0.0,0.0,0.0,-4.2624,-4.2923,-4.3183,-4.3382,-4.3439,-4.3319,-4.329,-4.325,-4.3115,0.0,0.0,0.0,0.0,0.0,0.0,0.0,0.0,-4.0702,-4.0172,-3.9486,-3.8711,-3.8498,-3.8194,-3.79,-3.79,-3.79,-3.79,-3.79,-3.79,0.0,0.0,0.0,0.0,0.0,0.0,-3.7155,0.0,0.0,0.0,0.0,0.0,0.0,0.0,0.0,0.0,0.0,0.0,0.0,0.0,-3.2246,-3.2308,0.0,-3.2669,-3.2669,-3.2669,-3.2669,0.0,0.0,0.0,-3.2669,-3.2669,-3.2669,-3.2737,-3.2851,-3.2908,-3.3022,-3.3296,-3.4206,0.0,0.0,0.0,0.0,0.0,0.0,0.0,0.0,0.0,0.0,0.0,0.0,0.0,0.0,0.0,-4.374,-4.4292,-4.5083,-4.5648,-4.5999,-4.632,-4.6614,-4.6806,-4.69,-4.7112,-4.7383,0.0,0.0,0.0,0.0,0.0,0.0,-4.8185,-4.8068,-4.7819,-4.7479,-4.7017,-4.6643,-4.629,-4.5794,-4.5284,0.0,0.0,0.0,0.0,0.0,0.0,0.0,0.0,-4.4568,-4.4154,-4.4269,-4.4152,-4.3499,-4.3394,-4.3364,-4.3364,0.0,0.0,0.0,0.0,0.0,0.0,0.0,0.0,-4.1381,-4.0659,-3.9823,-3.8863,-3.8666,-3.833,-3.79,-3.79,-3.79,-3.79,-3.79,-3.79,0.0,0.0,0.0,0.0,0.0,-3.7121,0.0,0.0,0.0,0.0,0.0,0.0,0.0,0.0,0.0,0.0,0.0,0.0,0.0,0.0,0.0,0.0,0.0,-3.2669,-3.2669,-3.2669,-3.2669,0.0,0.0,0.0,0.0,-3.2727,-3.2737,-3.2841,-3.3193,-3.325,-3.3363,-3.3681,-3.4666,0.0,0.0,0.0,0.0,0.0,0.0,0.0,0.0,0.0,0.0,0.0,0.0,0.0,0.0,0.0,0.0,-4.3727,-4.4852,-4.5468,-4.5544,-4.6357,-4.6755,-4.6853,-4.7112,-4.7383,-4.7749,0.0,0.0,0.0,0.0,0.0,0.0,-4.8133,-4.7819,-4.7265,-4.7187,-4.6508,-4.5568,-4.5529,-4.5205,-4.4668,0.0,0.0,0.0,0.0,0.0,0.0,0.0,0.0,0.0,0.0,-4.5024,-4.5005,-4.4855,-4.4392,-4.4077,0.0,0.0,0.0,0.0,0.0,0.0,0.0,0.0,0.0,-4.1324,-4.0631,-3.9736,-3.8679,-3.8395,-3.8135,-3.79,-3.79,-3.79,-3.79,-3.79,-3.79,0.0,0.0,0.0,0.0,-3.7062,-3.6734,0.0,0.0,0.0,0.0,-3.3461,-3.291,0.0,0.0,0.0,0.0,0.0,0.0,0.0,0.0,-3.2669,-3.2669,-3.2669,0.0,-3.2669,-3.2669,-3.2669,-3.2669,0.0,0.0,0.0,0.0,0.0,-3.325,-3.3816,-3.3861,-3.4142,-3.4836,-3.5835,-3.6996,0.0,0.0,0.0,0.0,0.0,0.0,0.0,0.0,0.0,0.0,0.0,0.0,0.0,0.0,0.0,-4.3162,-4.4068,-4.4965,-4.5813,-4.6011,-4.6573,-4.7468,-4.7573,-4.7749,-4.8055,0.0,0.0,0.0,0.0,0.0,-4.8146,-4.7715,-4.7453,-4.7187,-4.6312,-4.5859,-4.5516,-4.5101,-4.4798,-4.4668,0.0,0.0,0.0,0.0,0.0,0.0,0.0,0.0,0.0,0.0,0.0,0.0,0.0,0.0,0.0,0.0,0.0,0.0,0.0,0.0,0.0,0.0,0.0,-4.2199,-4.1339,-4.0574,-3.9706,-3.8756,-3.8395,-3.8089,-3.79,-3.79,-3.79,-3.79,-3.79,-3.7854,-3.7703,-3.7551,-3.7366,-3.7108,-3.6815,0.0,0.0,0.0,0.0,0.0,-3.3113,-3.2564,0.0,-3.1813,-3.195,-3.2232,0.0,0.0,0.0,0.0,-3.2784,-3.2908,-3.2908,-3.2851,-3.2669,-3.2669,-3.2851,-3.2908,-3.2908,0.0,0.0,0.0,0.0,0.0,-3.4568,-3.468,-3.5002,-3.5872,-3.6992,0.0,0.0,0.0,0.0,0.0,0.0,0.0,0.0,0.0,0.0,0.0,0.0,0.0,0.0,0.0,0.0,0.0,-4.3599,-4.4282,-4.5157,-4.5968,-4.6681,-4.7328,-4.7763,-4.7997,-4.8185,0.0,0.0,0.0,0.0,0.0,-4.7767,-4.7453,-4.6965,-4.643,-4.5816,-4.5454,-4.5125,-4.4839,-4.4668,-4.4668,0.0,0.0,0.0,0.0,0.0,0.0,0.0,0.0,0.0,0.0,0.0,0.0,0.0,0.0,0.0,0.0,0.0,0.0,0.0,0.0,0.0,0.0,0.0,-4.1966,-4.1311,-4.0343,-3.9543,-3.8863,-3.8381,-3.8057,-3.79,-3.79,-3.79,-3.79,-3.7854,-3.7703,-3.7505,-3.7413,-3.7108,-3.6709,-3.6675,0.0,0.0,0.0,0.0,0.0,0.0,0.0,0.0,-3.2222,-3.2242,-3.2163,-3.2545,0.0,0.0,0.0,0.0,0.0,-3.3306,-3.3182,-3.2944,-3.2841,-3.3079,-3.3363,-3.3363,0.0,0.0,0.0,0.0,0.0,0.0,-3.5697,0.0,0.0,0.0,0.0,0.0,0.0,0.0,0.0,0.0,0.0,0.0,0.0,0.0,0.0,0.0,0.0,0.0,0.0,0.0,0.0,-4.3351,-4.3746,-4.4298,-4.5871,-4.6738,-4.6829,-4.7677,-4.8054,-4.8068,-4.8146,0.0,0.0,0.0,0.0,-4.7265,-4.7082,-4.6443,-4.5568,-4.5477,-4.5125,-4.4668,-4.4668,-4.4668,-4.4668,0.0,0.0,0.0,0.0,0.0,0.0,0.0,0.0,0.0,0.0,0.0,0.0,0.0,0.0,0.0,0.0,0.0,0.0,0.0,0.0,0.0,-4.3029,-4.2241,-4.1493,-4.083,-3.9865,-3.9172,-3.8647,-3.8161,-3.7946,-3.79,-3.79,-3.79,-3.79,-3.7657,-3.7551,-3.7459,-3.7015,-3.6769,-3.6675,-3.6499,0.0,0.0,0.0,0.0,0.0,0.0,0.0,0.0,-3.2124,-3.2302,-3.2633,-3.2706,0.0,0.0,0.0,0.0,0.0,-3.3805,-3.4065,-3.4099,-3.3568,-3.3692,-3.3974,-3.3974,0.0,0.0,0.0,0.0,0.0,0.0,-3.7,-3.756,0.0,0.0,0.0,0.0,0.0,0.0,0.0,0.0,0.0,0.0,0.0,0.0,0.0,0.0,0.0,0.0,0.0,0.0,0.0,0.0,-4.398,-4.4277,-4.5089,-4.584,-4.656,-4.7135,-4.7466,-4.7479,-4.7963,-4.8185,0.0,0.0,0.0,-4.72,-4.6234,-4.5738,-4.5571,-4.502,-4.4759,-4.4668,-4.4668,-4.4668,-4.4668,0.0,0.0,0.0,0.0,0.0,0.0,0.0,0.0,0.0,0.0,0.0,0.0,0.0,0.0,0.0,0.0,0.0,0.0,0.0,0.0,0.0,-4.3157,-4.2249,-4.1217,-4.0112,-3.9336,-3.8724,-3.8395,-3.807,-3.79,-3.79,-3.79,-3.7808,-3.7657,-3.7564,-3.7353,-3.7062,-3.6815,-3.6628,-3.6534,0.0,0.0,0.0,0.0,0.0,0.0,0.0,0.0,0.0,0.0,-3.3004,-3.3182,-3.3182,0.0,0.0,0.0,0.0,0.0,-3.4669,-3.5212,-3.5642,-3.5521,-3.5256,-3.5058,-3.5212,-3.5598,0.0,0.0,0.0,0.0,0.0,0.0,0.0,0.0,0.0,0.0,0.0,0.0,0.0,0.0,0.0,0.0,0.0,0.0,0.0,0.0,0.0,0.0,0.0,0.0,0.0,0.0,0.0,0.0,-4.4313,-4.4723,-4.5317,-4.6029,-4.6604,-4.6878,-4.6878,-4.714,-4.7257,0.0,0.0,-4.6695,-4.6312,-4.5846,-4.5386,-4.5114,-4.4839,-4.4668,-4.4668,-4.4668,-4.4668,-4.4668,0.0,0.0,0.0,0.0,0.0,0.0,0.0,0.0,0.0,0.0,0.0,0.0,0.0,0.0,0.0,0.0,0.0,0.0,0.0,0.0,-4.4095,-4.3306,-4.2318,-4.1183,-3.998,-3.9261,-3.8806,-3.8609,-3.8241,-3.8031,-3.79,-3.7854,-3.7703,-3.7505,-3.7366,-3.7062,-3.6709,-3.6675,-3.6534,-3.6417,0.0,0.0,0.0,0.0,0.0,0.0,0.0,0.0,0.0,0.0,0.0,0.0,0.0,0.0,0.0,-3.4009,-3.4547,-3.519,-3.5642,-3.6417,-3.7078,-3.7311,-3.6773,-3.6231,-3.6449,-3.6785,-3.7227,-3.7631,0.0,0.0,0.0,0.0,0.0,0.0,0.0,0.0,0.0,0.0,0.0,0.0,0.0,0.0,0.0,0.0,0.0,0.0,0.0,0.0,0.0,0.0,0.0,0.0,0.0,0.0,-4.4367,-4.4626,-4.4903,-4.5428,-4.6003,-4.6277,-4.6277,-4.6421,-4.6473,-4.6473,-4.6342,-4.6029,-4.5568,-4.548,-4.514,-4.4668,-4.4668,-4.4668,-4.4668,-4.4668,-4.4668,-4.4668,0.0,0.0,0.0,0.0,0.0,0.0,0.0,0.0,0.0,0.0,0.0,0.0,0.0,0.0,0.0,0.0,0.0,0.0,0.0,0.0,-4.4587,-4.3536,-4.226,-4.1423,-4.1001,-4.0201,-3.981,-3.9762,-3.9,-3.8397,-3.79,-3.7657,-3.7505,-3.7459,-3.6968,-3.6722,-3.6675,-3.6499,-3.6405,-3.6455,-3.6923,0.0,0.0,0.0,0.0,0.0,0.0,0.0,0.0,0.0,0.0,0.0,0.0,0.0,-3.4536,-3.5102,-3.5477,-3.5916,-3.6742,-3.7453,-3.7986,-3.825,-3.7856,-3.7406,-3.7406,-3.7856,-3.8303,-3.8303,-3.8776,0.0,0.0,0.0,0.0,0.0,0.0,0.0,0.0,0.0,0.0,0.0,0.0,0.0,0.0,0.0,0.0,0.0,0.0,0.0,0.0,0.0,0.0,0.0,0.0,0.0,-4.4681,-4.4668,-4.4748,-4.4746,-4.5401,-4.5689,-4.5702,-4.6238,-4.6473,-4.6447,-4.5924,-4.5663,-4.5584,-4.5022,-4.4761,-4.4668,-4.4668,-4.4668,-4.4668,-4.4668,-4.4668,-4.4668,0.0,0.0,0.0,0.0,0.0,0.0,0.0,0.0,0.0,0.0,0.0,0.0,0.0,0.0,0.0,0.0,0.0,0.0,0.0,-4.5018,-4.4349,-4.3598,-4.2664,-4.2006,-4.1729,-4.0372,-3.9729,-3.9729,-3.9268,-3.8904,-3.8709,-3.8424,-3.804,-3.7552,-3.7349,-3.6969,-3.6499,-3.6452,-3.6606,-3.6933,-3.7098,-3.7392,0.0,0.0,0.0,0.0,0.0,0.0,0.0,0.0,-3.6165,-3.622,0.0,-3.5959,-3.6111,-3.62,-3.6677,-3.7281,-3.7761,-3.8356,-3.8893,-3.9154,-3.905,-3.8816,-3.8659,-3.8776,-3.8998,-3.9154,-3.9374,-3.9642,0.0,0.0,0.0,0.0,0.0,0.0,0.0,0.0,0.0,0.0,0.0,0.0,0.0,0.0,0.0,0.0,0.0,0.0,0.0,0.0,0.0,0.0,0.0,0.0,0.0,-4.4668,-4.4668,-4.4668,-4.4903,-4.502,-4.502,-4.5297,-4.5388,-4.5375,-4.5166,-4.502,-4.4994,-4.4759,-4.4668,-4.4668,-4.4668,-4.4668,-4.4668,-4.4668,-4.4668,-4.4668,0.0,0.0,0.0,0.0,0.0,0.0,0.0,0.0,0.0,0.0,0.0,0.0,0.0,0.0,0.0,0.0,0.0,0.0,-4.4787,-4.4308,-4.379,-4.3293,-4.2631,-4.2155,-4.198,-4.0785,-4.0148,-4.0148,-3.966,-3.932,-3.9055,-3.8825,-3.8365,-3.7851,-3.7741,-3.743,-3.6933,-3.6933,-3.7098,-3.7462,-3.7651,-3.8004,0.0,0.0,0.0,0.0,0.0,0.0,0.0,0.0,0.0,0.0,0.0,0.0,0.0,0.0,-3.772,-3.8303,-3.8631,-3.905,-3.9478,-3.9633,0.0,0.0,-3.9478,-3.9426,-3.9478,-3.9645,-3.9835,-4.0174,-4.0902,0.0,0.0,0.0,0.0,0.0,0.0,0.0,0.0,0.0,0.0,0.0,0.0,0.0,0.0,0.0,0.0,0.0,0.0,0.0,0.0,0.0,0.0,0.0,0.0,-4.4668,-4.4668,-4.4668,-4.4668,-4.4668,-4.4668,-4.4668,-4.4668,-4.4668,-4.4668,-4.4668,-4.4668,-4.4668,-4.4668,-4.4668,-4.4668,-4.4668,-4.4668,-4.4668,-4.4668,-4.4668,0.0,0.0,0.0,0.0,0.0,0.0,0.0,0.0,0.0,0.0,0.0,0.0,0.0,0.0,0.0,0.0,0.0,0.0,-4.4026,-4.3505,-4.2991,-4.2511,-4.1993,-4.1696,-4.1696,-4.1411,-4.1261,-4.1311,-4.0439,-3.9574,-3.8802,-3.8545,-3.8434,-3.8372,-3.8114,-3.8015,-3.8002,-3.8002,-3.8002,-3.8065,-3.8642,-3.8692,-3.8424,0.0,0.0,0.0,0.0,0.0,0.0,0.0,-3.8198,0.0,0.0,0.0,0.0,0.0,-3.8579,-3.8893,-3.9206,-3.9478,-3.9697,0.0,0.0,0.0,-3.9697,-3.9697,-3.9697,-3.9697,-4.0149,-4.0865,-4.2011,-4.2213,0.0,0.0,0.0,0.0,0.0,0.0,0.0,0.0,0.0,0.0,0.0,0.0,0.0,0.0,0.0,0.0,0.0,0.0,0.0,0.0,0.0,0.0,0.0,-4.4668,-4.4668,-4.4668,-4.4668,-4.4668,-4.4668,-4.4668,-4.4668,-4.4668,-4.4668,-4.4668,-4.4668,-4.4668,-4.4668,-4.4668,-4.4668,-4.4668,-4.4668,-4.4668,-4.4668,-4.4668,0.0,0.0,0.0,0.0,0.0,0.0,0.0,0.0,0.0,0.0,0.0,0.0,0.0,0.0,0.0,0.0,0.0,0.0,-4.297,-4.2617,-4.236,-4.2226,-4.1696,-4.1411,-4.1411,-4.0959,-4.0858,-4.1047,-4.0362,-3.9943,-3.9689,-3.9449,-3.9095,-3.8768,-3.8668,-3.8391,-3.8002,-3.8002,-3.8241,-3.863,-3.8856,-3.9044,-3.9292,0.0,0.0,0.0,0.0,0.0,0.0,0.0,0.0,0.0,0.0,0.0,0.0,-3.905,-3.9218,-3.9426,-3.953,-3.9645,0.0,-3.9697,0.0,0.0,0.0,-3.9697,0.0,0.0,-4.1015,-4.1823,-4.215,0.0,0.0,0.0,0.0,0.0,0.0,0.0,0.0,0.0,0.0,0.0,0.0,0.0,0.0,0.0,0.0,0.0,0.0,0.0,0.0,0.0,0.0,0.0,0.0,0.0,-4.4668,-4.4668,-4.4668,-4.4668,-4.4668,-4.4668,-4.4668,-4.4668,-4.4668,-4.4668,-4.4668,-4.4668,-4.4668,-4.4668,-4.4668,-4.4668,-4.4668,-4.4668,-4.4668,-4.4668,0.0,0.0,0.0,0.0,0.0,0.0,0.0,0.0,0.0,0.0,-4.5201,-4.4787,0.0,0.0,0.0,0.0,0.0,0.0,0.0,-4.1944,-4.1733,-4.1634,-4.1198,-4.0959,-4.0959,-4.0542,-4.044,-4.058,-4.0275,-4.0032,-3.9929,-3.9788,-3.9521,-3.9195,-3.9195,-3.9007,-3.868,-3.868,-3.8881,-3.9195,-3.9195,-3.9396,-3.9685,0.0,0.0,0.0,0.0,0.0,0.0,0.0,0.0,0.0,0.0,0.0,0.0,-3.953,-3.9581,-3.9697,-3.9697,0.0,0.0,-3.9697,-3.9697,-3.9747,-3.9973,0.0,0.0,0.0,0.0,-4.2275,-4.2502,0.0,0.0,0.0,0.0,0.0,0.0,0.0,0.0,0.0,0.0,0.0,0.0,0.0,0.0,0.0,0.0,0.0,0.0,0.0,0.0,0.0,0.0,0.0,0.0,0.0,0.0,-4.4668,-4.4843,-4.4897,-4.4897,-4.4789,-4.4668,-4.4668,-4.4668,-4.4668,-4.4668,-4.4668,-4.4789,-4.4897,-4.4897,-4.4951,-4.5059,-4.5059,-4.5059,-4.5059,0.0,0.0,0.0,0.0,0.0,0.0,0.0,0.0,0.0,0.0,-4.4167,-4.3743,0.0,0.0,0.0,0.0,0.0,0.0,0.0,0.0,-4.1147,-4.0896,-4.0605,-4.0453,-4.0453,-4.0185,-4.0083,-4.0083,-4.0083,-3.9929,-3.9697,-3.9697,-3.9697,-3.9697,-3.9697,-3.9697,-3.9697,-3.9697,-3.9697,-3.9697,-3.9697,-3.9697,-3.9697,-3.9697,0.0,0.0,0.0,0.0,0.0,0.0,0.0,0.0,0.0,0.0,0.0,-3.9697,-3.9697,-3.9697,-3.9697,0.0,0.0,0.0,0.0,0.0,-4.0388,-4.0563,-4.0752,-4.125,0.0,0.0,0.0,0.0,0.0,0.0,0.0,0.0,0.0,0.0,0.0,0.0,0.0,0.0,0.0,0.0,0.0,0.0,0.0,0.0,0.0,0.0,0.0,0.0,0.0,0.0,0.0,0.0,0.0,0.0,-4.5072,-4.5234,-4.5234,-4.4951,-4.4789,-4.4789,-4.4789,-4.4789,-4.4789,-4.4789,-4.4951,-4.5287,-4.5287,-4.5448,-4.5649,-4.5649,-4.5595,-4.5595,0.0,0.0,0.0,0.0,0.0,0.0,0.0,0.0,0.0,0.0,0.0,0.0,0.0,0.0,0.0,0.0,0.0,0.0,0.0,0.0,-4.0846,-4.0605,-4.0338,-4.0083,-3.989,-3.9839,-3.9788,-3.9788,-3.9788,-3.9736,-3.9697,-3.9697,-3.9697,-3.9697,-3.9697,-3.9697,-3.9697,-3.9697,-3.9697,-3.9697,-3.9697,-3.9697,-3.9697,-3.9697,-3.9697,0.0,0.0,0.0,0.0,0.0,0.0,0.0,-3.9697,-3.9697,-3.9697,-3.9697,-3.9697,-3.9697,0.0,-3.9697,0.0,0.0,0.0,0.0,0.0,-4.0852,-4.1317,0.0,0.0,0.0,0.0,0.0,0.0,0.0,0.0,0.0,0.0,0.0,0.0,0.0,0.0,0.0,0.0,0.0,0.0,0.0,0.0,0.0,0.0,0.0,0.0,0.0,0.0,0.0,-4.4668,-4.4668,-4.4843,0.0,-4.5193,-4.5448,-4.5808,-4.5542,-4.5435,-4.5435,-4.5435,-4.5435,-4.5435,-4.5435,-4.5595,-4.5808,-4.5808,-4.5861,-4.5914,-4.5914,-4.5755,-4.5595,0.0,0.0,0.0,0.0,0.0,0.0,0.0,0.0,0.0,0.0,0.0,0.0,0.0,0.0,0.0,0.0,0.0,0.0,0.0,0.0,0.0,-4.0147,-3.9993,-3.9839,-3.9697,-3.9697,-3.9697,-3.9697,-3.9697,-3.9697,-3.9697,-3.9697,-3.9697,-3.9697,-3.9697,-3.9697,-3.9697,-3.9697,-3.9697,-3.9697,-3.9697,-3.9697,-3.9697,-3.9697,-3.9697,-3.9697,-3.9697,0.0,0.0,0.0,0.0,0.0,0.0,0.0,-3.9697,-3.9697,-3.9697,-3.9697,0.0,0.0,0.0,0.0,0.0,0.0,0.0,0.0,0.0,0.0,0.0,0.0,0.0,0.0,0.0,0.0,0.0,0.0,0.0,0.0,0.0,0.0,0.0,0.0,0.0,0.0,0.0,0.0,0.0,0.0,0.0,0.0,0.0,0.0,0.0,0.0,-4.4668,-4.4843,-4.5018,-4.518,-4.5702,-4.6428,-4.7143,-4.648,-4.6257,-4.6348,-4.6348,-4.6348,-4.6348,-4.6348,-4.6572,-4.678,-4.678,-4.6884,-4.6988,-4.6846,-4.6651,-4.6403,0.0,0.0,0.0,0.0,0.0,0.0,0.0,0.0,0.0,0.0,0.0,0.0,0.0,0.0,0.0,0.0,0.0,0.0,0.0,0.0,0.0,0.0,-3.9697,-3.9697,-3.9697,-3.9697,-3.9697,-3.9697,-3.9697,-3.9697,-3.9697,-3.9697,-3.9697,-3.9697,-3.9697,-3.9697,-3.9697,-3.9697,-3.9697,-3.9697,-3.9697,-3.9697,-3.9697,-3.9697,-3.9697,-3.9697,-3.9697,-3.9697,-3.9697,-3.9697,0.0,0.0,0.0,0.0,-3.9697,-3.9697,-3.9697,-3.9697,0.0,0.0,0.0,0.0,0.0,0.0,0.0,0.0,0.0,0.0,0.0,0.0,0.0,0.0,0.0,0.0,0.0,0.0,0.0,0.0,0.0,0.0,0.0,0.0,0.0,0.0,0.0,0.0,0.0,0.0,0.0,0.0,0.0,0.0,0.0,-4.4843,-4.4938,-4.5221,-4.5395,-4.5555,-4.6637,-4.7708,-4.8681,-4.7759,-4.7424,-4.7499,-4.7499,-4.7499,-4.7499,-4.7499,-4.768,-4.7962,-4.7962,-4.8064,-4.8229,-4.7953,-4.7661,-4.7301,0.0,0.0,0.0,0.0,0.0,0.0,0.0,0.0,0.0,0.0,-4.1361,-4.1248,0.0,0.0,0.0,0.0,0.0,0.0,-4.0185,0.0,0.0,-3.9697,-3.9697,-3.9697,-3.9697,-3.9697,-3.9697,-3.9697,-3.9697,-3.9697,-3.9697,-3.9697,-3.9697,-3.9697,-3.9697,-3.9697,-3.9697,-3.9697,-3.9697,-3.9697,-3.9697,-3.9697,-3.9697,-3.9697,-3.9697,-3.9697,-3.9697,-3.9697,-3.9697,-3.9697,-3.9697,0.0,0.0,0.0,-3.9697,-3.9697,-3.9697,-3.9697,0.0,0.0,0.0,0.0,0.0,0.0,0.0,0.0,0.0,0.0,0.0,0.0,0.0,0.0,0.0,0.0,0.0,0.0,0.0,0.0,0.0,0.0,0.0,0.0,0.0,0.0,0.0,0.0,0.0,0.0,0.0,0.0,-4.4843,-4.5126,-4.5126,0.0,-4.5795,-4.5848,-4.6284,-4.7029,-4.8092,-4.893,-4.9522,-4.962,-4.9248,-4.8596,-4.8596,-4.8596,-4.8596,-4.8596,-4.8774,-4.9065,-4.9065,-4.898,-4.8745,-4.8495,-4.8106,-4.7559,0.0,0.0,0.0,0.0,0.0,0.0,0.0,0.0,0.0,0.0,0.0,-4.0946,0.0,0.0,0.0,-4.0287,-4.0287,-4.0134,-3.989,-3.9788,-3.9835,-4.0136,-4.0162,-4.03,-4.0614,-4.0614,-4.0614,-4.0614,-4.0312,-4.0162,-4.0149,-3.9835,-3.9697,-3.9697,-3.9697,-3.9697,-3.9697,-3.9697,-3.9697,-3.9697,-3.9839,-3.9929,-3.9929,-4.0096,-4.0147,-4.0147,-4.0147,-4.0044,-3.9929,-3.9929,-4.0041,-4.0162,-4.0162,0.0,0.0,0.0,-4.0614,0.0,0.0,0.0,0.0,0.0,0.0,0.0,0.0,0.0,0.0,0.0,0.0,0.0,0.0,0.0,0.0,0.0,0.0,0.0,0.0,0.0,0.0,0.0,0.0,0.0,0.0,0.0,0.0,0.0,0.0,0.0,0.0,-4.4897,-4.5072,-4.518,-4.5502,0.0,-4.6218,-4.6546,-4.7325,-4.8431,-4.9164,-4.98,-5.0331,-5.0585,-5.0346,-4.9752,-4.9752,-4.9752,-4.9752,-4.9752,-4.9863,-4.999,-4.999,-4.9892,-4.9746,-4.9488,-4.9044,-4.8531,0.0,0.0,0.0,0.0,0.0,0.0,0.0,0.0,0.0,0.0,0.0,0.0,0.0,0.0,0.0,0.0,-3.9981,-3.9929,-3.9697,-3.9823,-4.0086,-4.0501,-4.0651,-4.0862,-4.1275,-4.1288,-4.1288,-4.1288,-4.0874,-4.0651,-4.0513,-4.0099,-3.9823,-3.9697,-3.9697,-3.9697,-3.9697,-3.9697,-3.9736,-3.9839,-4.0083,-4.0275,-4.0427,-4.0694,-4.0936,-4.1116,-4.1065,-4.099,-4.0952,-4.0798,-4.0885,-4.1031,-4.0925,-4.1162,0.0,0.0,0.0,0.0,0.0,0.0,0.0,0.0,0.0,0.0,0.0,0.0,0.0,0.0,0.0,0.0,0.0,0.0,0.0,0.0,0.0,0.0,0.0,0.0,0.0,0.0,0.0,0.0,0.0,0.0,0.0,0.0,0.0,0.0,-4.4843,-4.5167,-4.5448,-4.5595,-4.6112,-4.6624,-4.704,-4.7671,-4.8545,-4.962,-4.9994,-5.0475,-5.0917,-5.112,-5.0994,-5.0677,-5.0677,-5.0677,-5.0677,-5.0677,-5.0677,-5.0677,-5.0677,-5.0629,-5.0534,-5.0279,-4.9926,-4.9473,0.0,0.0,0.0,0.0,0.0,0.0,0.0,0.0,0.0,0.0,0.0,-4.0402,-4.0121,-4.0121,-4.0032,-3.9736,-3.9749,-3.9697,-3.9697,-4.0187,-4.0488,-4.0513,-4.0962,0.0,-4.1288,-4.1288,-4.1288,-4.1288,-4.1263,-4.0974,-4.0513,-4.0488,-4.0199,-3.9697,-3.9697,-3.9697,-3.9697,-3.9697,-3.9839,-4.007,-4.0351,-4.0782,-4.1272,-4.1534,-4.2126,-4.2854,-4.2552,-4.2858,-4.3216,-4.2645,-4.2461,-4.2435,-4.2184,-4.1958,-4.1783,0.0,0.0,0.0,0.0,0.0,0.0,0.0,0.0,0.0,0.0,0.0,0.0,0.0,0.0,0.0,0.0,0.0,0.0,0.0,0.0,0.0,0.0,0.0,0.0,0.0,0.0,0.0,0.0,0.0,0.0,0.0,0.0,0.0,-4.518,-4.5649,-4.6165,-4.6676,-4.7219,-4.7934,-4.8745,-4.9537,-5.0149,-5.0453,-5.0632,-5.0917,-5.1167,-5.1167,-5.1182,-5.1167,-5.1167,-5.1167,-5.1167,-5.1167,-5.1167,-5.1167,-5.1167,-5.1011,-5.0775,-5.0534,-5.0294,-4.999,0.0,0.0,0.0,0.0,0.0,0.0,0.0,0.0,0.0,0.0,0.0,0.0,0.0,-3.9839,-3.9788,-3.9697,-3.9697,-3.9697,-3.9697,-4.0212,-4.0676,-4.0974,-4.1568,-4.2032,-4.2384,-4.2396,-4.2221,-4.1869,-4.1517,-4.1012,-4.0513,-4.0162,-3.9885,-3.9697,-3.9697,-3.9697,-3.9697,-3.989,-4.0134,-4.0428,-4.145,-4.2187,-4.2764,-4.3588,-4.4208,-4.4584,-4.4484,-4.437,-4.4256,-4.4001,-4.3844,-4.3651,-4.34,-4.3246,-4.3067,-4.2671,-4.2506,-4.2396,-4.2396,0.0,0.0,0.0,0.0,0.0,0.0,0.0,0.0,0.0,0.0,0.0,0.0,0.0,0.0,0.0,0.0,0.0,0.0,0.0,0.0,0.0,0.0,0.0,0.0,0.0,0.0,0.0,0.0,0.0,-4.5702,-4.6442,-4.7002,-4.7322,-4.805,-4.8817,-4.9634,-5.025,-5.0585,-5.0695,-5.0917,-5.112,-5.1214,-5.1214,-5.1214,-5.1214,-5.1214,-5.1214,-5.1214,-5.1214,-5.1214,-5.1214,-5.1214,-5.112,-5.1073,-5.0994,-5.079,-5.0537,0.0,0.0,0.0,0.0,0.0,0.0,0.0,0.0,-4.0287,-4.0121,0.0,0.0,0.0,0.0,-3.9697,-3.9697,-3.9697,-3.9697,-3.9697,-4.0388,-4.0953,-4.1263,-4.2032,-4.2577,-4.2753,-4.2753,-4.2434,-4.1882,-4.1517,-4.1012,-4.0513,-4.0136,-3.9925,-3.9839,-4.0044,-4.0044,-4.0006,-4.0236,-4.0746,-4.1409,-4.2534,-4.3516,-4.4365,-4.537,-4.6042,-4.6469,-4.6441,-4.637,-4.6204,-4.5903,-4.5721,-4.5479,-4.4982,-4.4636,-4.4148,-4.3364,-4.3129,-4.3141,-4.303,-4.2974,0.0,0.0,0.0,0.0,0.0,0.0,0.0,0.0,0.0,0.0,0.0,0.0,0.0,0.0,0.0,0.0,0.0,0.0,0.0,0.0,0.0,0.0,0.0,0.0,0.0,0.0,0.0,0.0,-4.6519,-4.7363,-4.8078,-4.8539,-4.9213,-4.9815,-5.0456,-5.0775,-5.0917,-5.0964,-5.112,-5.1214,-5.1214,-5.1214,-5.1214,-5.1214,-5.1214,-5.1214,-5.1214,-5.1214,-5.1214,-5.1214,-5.1214,-5.1214,-5.1214,-5.1214,-5.1073,-5.0917,0.0,0.0,0.0,0.0,0.0,0.0,0.0,0.0,-4.007,-4.007,0.0,0.0,0.0,0.0,0.0,-3.9697,-3.9697,-3.9697,-3.9697,-4.0714,-4.1263,-4.1263,-4.2371,-4.2698,-4.22,-4.22,-4.1882,-4.1263,-4.1263,-4.0974,-4.0488,-4.0488,-4.0356,-4.0134,-4.0681,-4.0795,-4.0618,-4.0871,-4.1776,-4.3095,-4.367,-4.473,-4.607,-4.6889,-4.7722,-4.8446,-4.8374,-4.8764,-4.9213,-4.8338,-4.8035,-4.7869,-4.704,-4.6046,-4.4871,-4.378,-4.3449,-4.3338,0.0,0.0,0.0,0.0,0.0,0.0,0.0,0.0,0.0,0.0,0.0,0.0,0.0,0.0,0.0,0.0,0.0,0.0,0.0,0.0,0.0,0.0,0.0,0.0,0.0,0.0,0.0,0.0,0.0,-4.7078,-4.7615,-4.8467,-4.9453,-5.0501,-5.0695,-5.0964,-5.1214,-5.1214,-5.1214,-5.1214,-5.1214,-5.1214,-5.1214,-5.1214,-5.1214,-5.1214,-5.1214,-5.1214,-5.1214,-5.1214,-5.1214,-5.1214,-5.1214,-5.1214,-5.1214,-5.1214,-5.1214,-5.1214,0.0,0.0,0.0,0.0,0.0,-3.9903,-3.9903,-3.9839,-3.9788,0.0,0.0,0.0,-3.9697,-3.9697,-3.9697,-3.9697,-3.9697,-3.9697,-3.9697,-4.035,-4.0752,-4.0752,-4.1794,-4.2133,-4.158,-4.1957,-4.1693,-4.0752,-4.0752,-4.0463,0.0,0.0,-4.0287,-4.044,-4.1147,-4.2007,-4.2891,-4.2741,-4.3183,-4.3993,-4.5379,-4.668,-4.7821,-4.8682,-4.9373,-4.9934,-4.9919,-4.9877,-4.9829,-4.962,-4.9128,-4.8417,-4.696,-4.6046,-4.5315,-4.4559,-4.4177,-4.4026,-4.3971,0.0,0.0,0.0,0.0,0.0,0.0,0.0,0.0,0.0,0.0,0.0,0.0,0.0,0.0,0.0,0.0,0.0,0.0,0.0,0.0,0.0,0.0,0.0,0.0,0.0,0.0,0.0,0.0,-4.8179,-4.8517,-4.9488,-5.0279,-5.068,-5.0979,-5.112,-5.1214,-5.1214,-5.1214,-5.1214,-5.1214,-5.1214,-5.1214,-5.1214,-5.1214,-5.1214,-5.1214,-5.1214,-5.1214,-5.1214,-5.1214,-5.1214,-5.1214,-5.1214,-5.1214,-5.1214,-5.1214,-5.1214,0.0,0.0,0.0,0.0,0.0,-3.9697,-3.9697,-3.9697,-3.9697,0.0,0.0,0.0,-3.9697,-3.9697,-3.9697,-3.9697,-3.9697,-3.9697,-3.9697,-4.0212,-4.0513,-4.0513,-4.1354,-4.1555,-4.0962,-4.1304,-4.1053,-4.0174,-4.0266,-4.0154,0.0,-4.0377,-4.0732,-4.106,-4.2318,-4.3402,-4.4358,-4.5015,-4.5419,-4.5734,-4.6869,-4.7948,-4.9016,-4.9747,-5.0279,-5.0662,-5.0757,-5.071,-5.0552,-5.0408,-4.9863,-4.9029,-4.7805,-4.696,-4.6323,-4.5609,-4.5194,-4.4951,-4.4681,-4.4396,-4.411,-4.4203,0.0,0.0,0.0,0.0,0.0,0.0,0.0,0.0,0.0,0.0,0.0,0.0,0.0,0.0,0.0,0.0,0.0,0.0,0.0,0.0,0.0,0.0,0.0,0.0,-4.8078,-4.898,-4.9669,-5.0361,-5.0852,-5.0964,-5.112,-5.1214,-5.1214,-5.1214,-5.1214,-5.1214,-5.1214,-5.1214,-5.1214,-5.1214,-5.1065,-5.0764,-5.0764,-5.0661,-5.0406,-5.0406,-5.072,-5.1214,-5.1214,-5.1214,-5.1214,-5.1214,-5.1214,-5.1214,0.0,0.0,-3.9697,-3.9697,-3.9697,-3.9697,-3.9697,-3.9697,-3.9697,0.0,-3.9697,-3.9697,-3.9697,-3.9697,-3.9697,-3.9697,-3.9697,-3.9697,-3.9697,-4.0162,-4.0425,-4.0425,-4.0953,-4.0937,-4.0438,-4.0488,-4.0249,0.0,0.0,-4.0211,-4.0326,-4.1112,-4.1702,-4.2143,0.0,0.0,-4.5461,-4.7253,-4.796,-4.7856,-4.8066,-4.8836,0.0,-5.0342,-5.0647,-5.0855,-5.112,-5.1214,-5.1167,-5.0902,-5.0346,-4.9669,-4.9071,-4.8388,-4.7657,-4.6843,-4.6401,-4.606,-4.5515,-4.5355,-4.5248,-4.4992,-4.4938,0.0,-4.5234,-4.5287,0.0,0.0,0.0,0.0,0.0,0.0,0.0,0.0,0.0,0.0,0.0,0.0,0.0,0.0,0.0,0.0,0.0,0.0,0.0,-4.7647,-4.8545,-4.9571,-5.076,-5.1058,-5.1214,-5.1214,-5.1214,-5.1214,-5.1214,-5.1214,-5.1184,-5.1109,-5.1109,-5.1065,-5.1005,-5.1005,-5.0676,-5.0091,-5.0091,-4.9808,-4.9314,-4.9314,-5.0002,-5.1109,-5.1109,-5.1154,-5.1214,-5.1214,-5.1214,-5.1214,0.0,-3.9697,-3.9697,-3.9697,-3.9697,-3.9697,-3.9697,-3.9697,-3.9697,-3.9697,-3.9697,-3.9697,-3.9697,-3.9697,-3.9697,-3.9697,-3.9697,-3.9697,-3.9697,-3.9798,-3.986,-3.986,-4.0388,-4.0425,-3.9873,-4.0287,-4.0249,-3.9697,0.0,0.0,-4.1505,-4.2268,-4.3312,-4.447,-4.5252,-4.6287,-4.7464,0.0,0.0,-4.9285,-4.9348,-4.9776,-5.039,-5.0647,-5.0917,-5.112,-5.1167,-5.1214,-5.1167,-5.0902,-5.06,-5.0198,-4.9459,-4.8966,-4.8545,-4.7962,-4.7606,-4.7349,-4.7246,-4.6857,-4.644,-4.6401,-4.6243,0.0,-4.5901,-4.5861,0.0,0.0,0.0,0.0,0.0,0.0,0.0,0.0,0.0,0.0,0.0,0.0,0.0,0.0,0.0,0.0,0.0,0.0,-4.7081,-4.7939,-4.9389,-5.0471,-5.1073,-5.1167,-5.1214,-5.1214,-5.1214,-5.1214,-5.1214,-5.1214,-5.0945,-5.039,-5.039,-5.0152,-4.9689,-4.9689,-4.9614,-4.9464,-4.9464,-4.9434,-4.9314,-4.9314,-4.9733,-5.039,-5.039,-5.0704,-5.1214,-5.1214,-5.1214,-5.1214,-3.9697,-3.9697,-3.9697,-3.9697,-3.9697,-3.9697,-3.9697,-3.9697,-3.9697,-3.9697,-3.9697,-3.9736,-3.989,-3.989,-3.9942,-4.0096,-4.0096,-4.0044,-3.9929,-3.989,-3.9839,-3.9697,-3.9961,-3.9973,-3.9697,-4.0104,-4.0294,-4.0294,0.0,0.0,0.0,-4.3875,-4.4837,-4.5536,-4.6791,-4.7749,-4.8466,0.0,-4.9712,-5.0086,-4.9926,0.0,-5.0534,-5.0728,-5.0964,-5.1214,-5.1214,-5.1214,-5.1167,-5.1058,-5.0822,-5.06,-5.0187,-4.9703,-4.9242,-4.898,-4.8631,-4.828,-4.828,-4.8064,-4.7833,-4.7819,-4.7615,0.0,0.0,-4.7053,0.0,0.0,0.0,0.0,0.0,0.0,0.0,0.0,0.0,0.0,0.0,0.0,0.0,0.0,0.0,0.0,0.0,0.0,-4.7773,-4.9029,-5.0072,-5.079,-5.1167,-5.1214,-5.1214,-5.1214,-5.1214,-5.1214,-5.1214,-5.0885,-5.0524,-5.0196,-4.9898,-4.9583,-4.9314,-4.9314,-4.9134,-4.882,-4.882,-4.8596,-4.8282,-4.8282,-4.8671,-4.9299,-4.9628,-4.9957,-5.0242,-5.0242,-5.0242,-5.0242,-3.9672,-3.9697,-3.9697,-3.9697,-3.9697,-3.9697,-3.9697,-3.9697,-3.9697,-3.9697,-3.9697,-3.9788,-4.0083,-4.0134,-4.0287,-4.0542,-4.0593,-4.0542,-4.0275,-4.0236,-4.0032,-3.9788,-3.9788,-3.9838,-3.9951,-4.0235,-4.0708,-4.1321,0.0,0.0,0.0,0.0,-4.6329,-4.6701,-4.8283,-4.901,-4.9197,0.0,0.0,-5.0501,0.0,-5.0375,-5.0581,-5.079,-5.1011,-5.1214,-5.1214,-5.1214,-5.1214,-5.1214,-5.1058,-5.0855,-5.0807,-5.0379,-4.9912,-4.9878,-4.9537,-4.9207,-4.9207,-4.9207,-4.9178,-4.9085,-4.8951,-4.8795,0.0,0.0,0.0,0.0,0.0,0.0,0.0,0.0,0.0,0.0,0.0,0.0,0.0,0.0,0.0,0.0,0.0,0.0,0.0,0.0,-4.8517,-4.999,-5.0537,-5.0917,-5.1167,-5.1214,-5.1154,-5.0988,-5.0988,-5.0975,-5.084,-5.0316,-4.9941,-4.9807,-4.9329,-4.906,-4.8925,-4.8925,-4.8596,-4.8102,-4.8102,-4.7803,-4.7309,-4.7309,-4.7623,-4.8162,-4.8865,-4.9209,-4.9314,-4.9314,-4.9314,-4.9314,-3.9597,-3.9697,-3.9697,-3.9697,-3.9697,-3.9697,-3.9697,-3.9697,-3.9697,-3.9697,-3.9697,-3.9788,-4.0083,-4.0287,-4.0542,-4.0846,-4.1071,-4.1071,-4.0833,-4.0593,-4.0338,-4.0083,-4.0032,-4.026,-4.0754,-4.1325,-4.2022,-4.2866,-4.3693,0.0,0.0,0.0,0.0,0.0,-4.9489,0.0,0.0,0.0,-5.0501,0.0,-5.0632,-5.0713,0.0,-5.1073,-5.1167,-5.1214,-5.1214,-5.1214,-5.1214,0.0,-5.1167,-5.112,0.0,-5.076,-5.0632,-5.0471,-5.0357,-5.0294,-5.0294,-5.0294,-5.0246,-5.0023,-4.9926,-4.9746,-4.8994,0.0,-4.8645,-4.8128,0.0,0.0,0.0,0.0,0.0,0.0,0.0,0.0,0.0,0.0,0.0,0.0,0.0,0.0,0.0,0.0,0.0,-5.0038,-5.0537,-5.0917,-5.1167,-5.1214,-5.0945,-5.0315,-5.03,-5.0077,-4.9539,-4.9464,-4.9075,-4.8506,-4.8431,-4.8087,-4.7534,-4.7534,-4.7489,-4.7414,-4.7414,-4.7369,-4.7309,-4.7309,-4.7354,-4.7474,-4.8132,-4.8805,-4.9314,-4.9314,-4.9314,-4.9314,-3.9584,-3.9697,-3.9697,-3.9697,-3.9697,-3.9697,-3.9697,-3.9697,-3.9697,-3.9697,-3.9697,-3.9839,-4.03,-4.0681,-4.1134,-4.1584,-4.198,-4.2029,-4.1634,-4.1484,-4.1328,-4.1055,-4.1222,-4.1492,-4.1903,-4.2631,-4.3319,-4.4018,-4.5204,-4.6229,0.0,0.0,0.0,0.0,-5.0154,0.0,-5.0695,0.0,-5.0914,0.0,0.0,0.0,0.0,-5.1167,-5.1214,-5.1214,-5.1214,-5.1214,-5.1214,0.0,-5.1214,0.0,0.0,0.0,0.0,-5.0695,-5.0567,-5.0548,-5.0647,-5.0695,-5.0695,-5.0757,0.0,0.0,-5.0091,0.0,-4.9537,0.0,0.0,0.0,0.0,0.0,0.0,0.0,0.0,0.0,0.0,0.0,0.0,0.0,0.0,0.0,0.0,0.0,0.0,0.0,0.0,-5.0894,-5.0614,-5.0599,-5.0346,-4.9703,-4.9673,-4.9553,-4.9314,-4.8925,-4.8566,-4.8282,-4.7893,-4.7578,-4.7309,-4.7309,-4.7309,-4.7309,-4.7309,-4.7309,-4.7309,-4.7309,-4.7309,-4.7339,-4.7608,-4.7878,-4.8132,-4.8132,-4.8132,-4.8132,-3.9358,-3.9584,-3.9697,-3.9697,-3.9697,-3.9697,-3.9697,-3.9697,-3.9749,-3.9788,-3.9788,-4.0044,-4.0656,-4.1185,-4.172,-4.2275,-4.2763,-4.2922,-4.2471,-4.2521,-4.2405,-4.207,-4.2496,-4.2902,-4.3154,-4.405,-4.4808,-4.5543,-4.6634,-4.7528,0.0,0.0,-4.9815,-5.0009,0.0,-5.0855,-5.0917,0.0,-5.1214,-5.1214,-5.1214,-5.1214,-5.1214,-5.1214,-5.1214,-5.1244,-5.1424,-5.1483,-5.1513,-5.1693,-5.1753,0.0,-5.1543,0.0,-5.114,0.0,-5.079,-5.071,-5.087,0.0,0.0,0.0,0.0,0.0,0.0,0.0,0.0,0.0,-4.9878,0.0,0.0,0.0,-4.9282,-4.9282,0.0,0.0,0.0,0.0,0.0,0.0,0.0,0.0,0.0,0.0,0.0,0.0,-5.0947,0.0,-5.0226,-5.0196,-4.9853,-4.906,-4.9045,-4.8955,-4.8775,-4.8252,-4.8012,-4.8012,-4.7534,-4.7309,-4.7309,-4.7309,-4.7309,-4.7309,-4.7309,-4.7309,-4.7309,-4.7309,-4.7309,-4.7309,-4.7309,-4.7309,-4.7309,-4.7309,-4.7309,-4.7309,-3.8831,-3.932,-3.9697,-3.9697,-3.9697,-3.9697,-3.9697,-3.9697,-3.9788,-4.0032,-4.007,-4.0389,-4.1211,-4.1733,-4.2275,-4.2838,-4.3293,-4.3471,-4.3273,-4.3577,-4.3494,-4.2995,-4.3782,-4.4358,-4.4649,-4.5492,-4.6458,-4.7578,-4.7883,-4.8603,0.0,0.0,-5.0105,-5.076,-5.0807,-5.0964,-5.1167,-5.1214,-5.1214,-5.1214,-5.1214,-5.1214,-5.1214,0.0,-5.1214,-5.1304,-5.1947,0.0,0.0,-5.2905,-5.3114,0.0,0.0,0.0,0.0,0.0,0.0,0.0,0.0,0.0,0.0,-5.1214,0.0,0.0,0.0,0.0,-5.0728,0.0,-5.0453,-5.0453,-5.0453,-5.0453,-5.0453,-5.0453,-5.0453,0.0,0.0,0.0,0.0,0.0,0.0,0.0,0.0,0.0,0.0,0.0,-5.0947,0.0,-5.0226,-5.0196,-4.9658,-4.8356,-4.8312,-4.8012,-4.7369,-4.7339,-4.7339,-4.7339,-4.7309,-4.7309,-4.7309,-4.7309,-4.7309,-4.7309,-4.7309,-4.7309,-4.7309,-4.7309,-4.7309,-4.7309,-4.7309,-4.7309,-4.7309,-4.7309,-4.7309,-4.7309,-3.8253,-3.9057,-3.9697,-3.9697,-3.9697,-3.9697,0.0,-3.9839,0.0,0.0,-4.0542,-4.0933,-4.1733,-4.2262,-4.2846,-4.3566,-4.4464,-4.4906,-4.4634,-4.5156,-4.5327,-4.4986,-4.5633,-4.6118,-4.6428,-4.7212,-4.7816,-4.8229,-4.8866,-4.9326,-4.9717,-5.0187,-5.057,-5.0807,0.0,-5.112,0.0,0.0,0.0,0.0,0.0,-5.1214,-5.1214,0.0,0.0,-5.1887,-5.2112,-5.2486,0.0,-5.3099,-5.3174,-5.3144,-5.292,-5.2845,-5.271,-5.2067,-5.1872,0.0,0.0,0.0,-5.1214,-5.1214,0.0,0.0,0.0,0.0,0.0,0.0,0.0,0.0,-5.0947,-5.0947,-5.0947,-5.0947,-5.0947,-5.0947,0.0,0.0,0.0,0.0,0.0,0.0,0.0,0.0,0.0,-5.0695,-5.1026,-5.0735,0.0,-4.9583,-4.8985,-4.7683,-4.7638,-4.7534,-4.7309,-4.7309,-4.7309,-4.7309,-4.7309,-4.7309,-4.7309,-4.7309,-4.7309,-4.7309,-4.7309,-4.7309,-4.7309,-4.7309,-4.7309,-4.7309,-4.7309,-4.7309,-4.7309,-4.7309,-4.7309,-4.7309,-3.8278,-3.9057,-3.9697,-3.9697,-3.9697,0.0,0.0,0.0,0.0,0.0,-4.1147,0.0,-4.2422,0.0,-4.3457,-4.4087,-4.5195,-4.5718,-4.5467,-4.6353,-4.6757,-4.6413,-4.7225,-4.7684,-4.7736,-4.8395,-4.8795,-4.8795,-4.9291,-4.9683,-4.9975,-5.0456,-5.0775,-5.0964,0.0,-5.1214,-5.1214,0.0,-5.1214,0.0,0.0,-5.1214,0.0,0.0,-5.1828,-5.2261,0.0,-5.3189,-5.3578,-5.3817,-5.3892,-5.3847,-5.3623,-5.3548,-5.3414,-5.274,-5.2546,-5.2456,-5.2037,-5.1753,0.0,-5.1573,-5.1394,0.0,-5.1214,0.0,0.0,0.0,0.0,0.0,-5.1214,-5.1214,-5.1214,-5.1214,-5.1214,-5.1214,0.0,-5.1214,0.0,0.0,0.0,0.0,0.0,0.0,-5.0807,-5.0807,-5.1058,-5.0646,0.0,0.0,-4.8715,-4.7339,-4.7309,-4.7309,-4.7309,-4.7309,-4.7309,-4.7309,-4.7309,-4.7309,-4.7309,-4.7309,-4.7309,-4.7309,-4.7309,-4.7309,-4.7309,-4.7309,-4.7309,-4.7309,-4.7309,-4.7309,-4.7309,-4.7309,-4.7309,-4.7309,-3.8806,-3.932,-3.9697,0.0,-3.9697,0.0,0.0,0.0,-4.0808,0.0,-4.1944,-4.2422,-4.3211,-4.3757,-4.4134,-4.4411,-4.5486,-4.6058,-4.5808,-4.7227,-4.7862,-4.7306,-4.8581,-4.9108,-4.8595,-4.9108,-4.9355,-4.9369,-4.9355,-4.9761,-5.0501,-5.0501,-5.0772,-5.1214,-5.1214,0.0,-5.1214,-5.1214,-5.1214,-5.1214,-5.1214,-5.1244,-5.1334,-5.1992,0.0,-5.2471,-5.3743,-5.4236,-5.4356,-5.4985,-5.5194,-5.5089,-5.4461,-5.4266,-5.4117,-5.3428,-5.3234,-5.3219,-5.3189,-5.2725,-5.2247,-5.2247,0.0,0.0,0.0,0.0,-5.1274,0.0,0.0,0.0,0.0,-5.1214,-5.1214,-5.1214,-5.1214,-5.1214,-5.1214,-5.1214,-5.1214,0.0,0.0,0.0,0.0,-5.0807,-5.0807,-5.0807,-5.1043,-5.0616,0.0,0.0,0.0,-4.7339,-4.7309,-4.7309,-4.7309,-4.7309,-4.7309,-4.7309,-4.7309,-4.7309,-4.7309,-4.7309,-4.7309,-4.7309,-4.7309,-4.7309,-4.7309,-4.7309,-4.7309,-4.7309,-4.7309,-4.7309,-4.7309,-4.7309,-4.7309,-4.7309,-3.8894,-3.932,-3.9697,0.0,-3.9697,-3.9788,0.0,0.0,0.0,0.0,-4.2105,-4.2679,-4.3423,-4.4007,-4.449,-4.4894,-4.6232,0.0,-4.6952,-4.8224,-4.8913,-4.8765,-4.9303,-4.9634,-4.9683,-5.0004,-5.0101,-4.9892,-5.0101,-5.0309,-5.0501,0.0,0.0,-5.1214,0.0,0.0,-5.1214,-5.1214,-5.1214,-5.1214,-5.1214,-5.1513,0.0,0.0,-5.3249,-5.3743,-5.4087,-5.4521,-5.497,-5.5134,-5.5194,-5.5164,-5.4999,-5.494,-5.4805,-5.4147,-5.3937,-5.3832,-5.3324,-5.3054,-5.292,-5.292,-5.28,-5.268,0.0,0.0,0.0,0.0,0.0,0.0,0.0,0.0,-5.1214,-5.1214,-5.1214,-5.1214,-5.1214,-5.1214,0.0,-5.1214,0.0,0.0,0.0,-5.112,-5.112,-5.112,-5.0719,-5.0137,0.0,0.0,0.0,-4.7339,-4.7309,-4.7309,-4.7309,-4.7309,-4.7309,-4.7309,-4.7309,-4.7309,-4.7309,-4.7309,-4.7309,-4.7309,-4.7309,-4.7309,-4.7309,-4.7309,-4.7309,-4.7309,-4.7309,-4.7309,-4.7309,-4.7309,-4.7309,-4.7309,-3.9182,0.0,0.0,-3.9697,0.0,0.0,-4.0083,0.0,0.0,-4.1733,-4.2239,0.0,-4.3662,-4.4162,-4.4583,-4.5078,-4.6516,0.0,-4.7386,0.0,0.0,-4.9488,-4.9844,-5.0135,-5.0294,-5.0519,-5.0519,-5.0294,-5.0294,-5.039,-5.0501,0.0,0.0,0.0,0.0,-5.1073,0.0,-5.1214,-5.1214,-5.1214,-5.1214,0.0,0.0,-5.2935,-5.3608,-5.4251,-5.4536,-5.488,-5.5194,-5.5194,-5.5194,-5.5194,-5.5194,-5.5194,-5.5119,-5.4745,-5.464,-5.4551,-5.4162,-5.3847,-5.3623,-5.3623,-5.3414,-5.3174,-5.3174,-5.289,-5.2546,0.0,0.0,0.0,0.0,0.0,0.0,-5.1214,-5.1214,-5.1214,-5.1214,-5.1214,0.0,0.0,-5.1214,0.0,0.0,0.0,-5.1214,-5.1214,-5.0569,0.0,0.0,0.0,0.0,0.0,-4.7309,-4.7309,-4.7309,-4.7309,-4.7309,-4.7309,-4.7309,-4.7309,-4.7309,-4.7309,-4.7309,-4.7309,-4.7309,-4.7309,-4.7309,-4.7309,-4.7309,-4.7309,-4.7309,-4.7309,-4.7309,-4.7309,-4.7309,-4.7309,-3.9597,0.0,0.0,0.0,0.0,0.0,0.0,-4.0287,0.0,-4.1881,0.0,-4.2798,-4.3798,-4.4162,-4.4537,-4.5078,0.0,-4.739,-4.7466,-4.8876,-4.9732,-4.9732,-5.0246,-5.0501,-5.0548,-5.0728,-5.0742,-5.0534,-5.0294,-5.0294,-5.0501,0.0,0.0,0.0,0.0,0.0,0.0,-5.1214,-5.1214,0.0,-5.1214,-5.1663,-5.2396,-5.2965,-5.3668,-5.4416,-5.4985,-5.5194,-5.5194,-5.5194,-5.5194,-5.5194,-5.5194,-5.5194,-5.5194,-5.5194,-5.5194,-5.5194,-5.5194,-5.4775,-5.4341,-5.4341,-5.3892,-5.3443,-5.3443,-5.3369,-5.3129,-5.2471,-5.2261,0.0,0.0,0.0,0.0,-5.1214,-5.1214,-5.1214,0.0,-5.1214,-5.1214,-5.1214,0.0,0.0,0.0,0.0,0.0,0.0,0.0,0.0,0.0,0.0,0.0,0.0,-4.7309,0.0,-4.7309,0.0,-4.7309,-4.7309,-4.7309,-4.7309,-4.7309,-4.7309,-4.7309,-4.7309,-4.7309,-4.7309,-4.7309,-4.7309,-4.7309,-4.7309,-4.7309,-4.7309,-4.7309,-4.7309,-4.7309,-4.7309,-3.9672,0.0,0.0,0.0,0.0,-3.9749,-3.9736,-3.9981,-4.0491,-4.1311,-4.1647,-4.2226,-4.3321,-4.3818,-4.4369,-4.5032,-4.6516,0.0,0.0,0.0,0.0,-5.0038,-5.0342,-5.0581,-5.0728,-5.1011,-5.1011,-5.0728,-5.0519,-5.0453,-5.0501,0.0,0.0,0.0,0.0,0.0,-5.1214,-5.1214,0.0,-5.1214,-5.1214,-5.1932,-5.3025,-5.3144,-5.3952,-5.5029,-5.5149,-5.5194,-5.5194,-5.5194,-5.5194,-5.5194,-5.5194,-5.5194,-5.5194,-5.5194,-5.5194,-5.5194,-5.5194,-5.5104,-5.5014,-5.5014,-5.4925,-5.4835,-5.4835,-5.4416,-5.3832,-5.3144,-5.2576,-5.2007,-5.1334,0.0,0.0,0.0,0.0,0.0,0.0,0.0,0.0,-5.1214,0.0,-5.1214,0.0,0.0,0.0,0.0,0.0,0.0,0.0,0.0,0.0,0.0,0.0,0.0,0.0,0.0,0.0,-4.7309,-4.7309,-4.7309,-4.7309,-4.7309,-4.7309,-4.7309,-4.7309,-4.7309,-4.7309,-4.7309,-4.7309,-4.7309,-4.7309,-4.7309,-4.7309,-4.7309,-4.7309,-4.7309,0.0,0.0,-3.9697,0.0,0.0,0.0,0.0,-3.9788,0.0,-4.0808,-4.101,-4.1498,-4.2568,-4.2991,-4.3553,-4.4462,-4.6092,-4.72,-4.7579,-4.8924,-4.9829,-5.0086,-5.0342,-5.0567,-5.0807,-5.1058,-5.1058,-5.0807,-5.0614,-5.0453,-5.0294,0.0,0.0,0.0,0.0,-5.1073,0.0,0.0,0.0,-5.1214,-5.1214,-5.1798,-5.271,-5.3054,-5.3803,-5.473,-5.5074,-5.5194,-5.5194,-5.5194,-5.5194,-5.5194,-5.5194,-5.5194,-5.5194,-5.5194,-5.5194,-5.5194,-5.5194,-5.5194,-5.5194,-5.5194,-5.5194,-5.5194,-5.5194,-5.494,-5.4521,-5.3847,-5.3174,-5.2411,-5.1409,-5.1214,0.0,0.0,0.0,0.0,0.0,0.0,-5.1214,-5.1214,-5.1214,-5.1214,0.0,0.0,0.0,0.0,0.0,0.0,0.0,0.0,0.0,0.0,0.0,0.0,0.0,0.0,0.0,-4.7309,-4.7309,-4.7309,-4.7309,-4.7309,-4.7309,-4.7309,-4.7309,-4.7309,-4.7309,-4.7309,-4.7309,-4.7309,-4.7309,-4.7309,-4.7309,-4.7309,-4.7309,-4.7309,0.0,-3.9697,0.0,0.0,-3.9697,0.0,-3.9697,-3.9697,-3.9839,-4.0351,-4.0389,-4.0795,-4.1819,-4.2213,-4.2833,-4.3837,-4.549,-4.6723,-4.7376,-4.8697,-4.9635,-4.9975,-5.0294,-5.0471,-5.0632,-5.0979,-5.0964,-5.0728,-5.0581,-5.0342,0.0,-4.9829,0.0,0.0,0.0,0.0,0.0,0.0,-5.1214,-5.1214,-5.1214,-5.1618,-5.2276,-5.2935,-5.3608,-5.4296,-5.4955,-5.5194,-5.5194,-5.5194,-5.5194,-5.5194,-5.5194,-5.5194,-5.5194,-5.5194,-5.5194,-5.5194,-5.5194,-5.5194,-5.5194,-5.5194,-5.5194,-5.5194,-5.5194,-5.5194,-5.4999,-5.4341,-5.3548,-5.2621,-5.1439,-5.1214,0.0,0.0,0.0,0.0,0.0,0.0,0.0,0.0,-5.1214,-5.1214,-5.1214,0.0,0.0,0.0,0.0,-5.0107,-4.9359,-4.882,0.0,0.0,0.0,0.0,-4.7309,0.0,-4.7309,0.0,-4.7309,-4.7309,-4.7309,-4.7309,-4.7309,-4.7309,-4.7309,-4.7309,-4.7309,-4.7309,-4.7309,-4.7309,-4.7309,-4.7309,-4.7309,-4.7309,-4.7309,-4.7309,0.0,0.0,0.0,0.0,0.0,0.0,0.0,-3.9697,-3.9788,-4.0083,-4.0134,-4.0478,-4.1272,-4.1819,-4.2555,-4.3553,-4.4973,-4.6239,-4.7347,-4.8277,-4.9074,-4.9703,-4.999,-5.0135,-5.0183,-5.0585,-5.0742,0.0,-5.0501,-5.0342,0.0,0.0,0.0,0.0,0.0,0.0,0.0,-5.1214,-5.1214,-5.1214,-5.1214,-5.1618,-5.2276,-5.2935,-5.3608,-5.4296,-5.4955,-5.5194,-5.5194,-5.5194,-5.5194,-5.5194,-5.5194,-5.5194,-5.5194,-5.5194,-5.5194,-5.5194,-5.5194,-5.5194,-5.5194,-5.5194,-5.5194,-5.5194,-5.5194,-5.5194,-5.4999,-5.4341,-5.3189,-5.2067,-5.1349,-5.1214,-5.1214,0.0,0.0,0.0,0.0,0.0,-5.1214,-5.1214,0.0,0.0,0.0,0.0,0.0,0.0,0.0,-5.0586,-4.9374,-4.9254,0.0,-4.7339,0.0,-4.7309,-4.7309,-4.7309,0.0,-4.7309,-4.7309,-4.7309,-4.7309,-4.7309,-4.7309,-4.7309,-4.7309,-4.7309,-4.7309,-4.7309,-4.7309,-4.7309,-4.7309,-4.7309,-4.7309,-4.7309,-4.7309,-4.7309,0.0,0.0,0.0,0.0,0.0,0.0,0.0,-3.9697,-3.9736,-3.9839,-3.9839,-4.0032,-4.0529,-4.1084,-4.172,-4.2639,-4.4118,-4.5515,-4.6679,-4.7706,-4.858,-4.9213,-4.9634,-4.9878,-4.9878,-5.0375,-5.0519,0.0,0.0,0.0,0.0,0.0,0.0,0.0,0.0,-5.1058,-5.1214,-5.1214,-5.1214,-5.1214,-5.1214,-5.1379,-5.1678,-5.2336,-5.301,-5.3683,-5.4356,-5.4865,-5.5194,-5.5194,-5.5194,-5.5194,-5.5194,-5.5194,-5.5194,-5.5194,-5.5194,-5.5194,-5.5194,-5.5194,-5.5194,-5.5194,-5.5194,-5.5194,-5.5194,-5.5194,-5.5119,-5.485,-5.3728,-5.2471,-5.1409,-5.1214,-5.1214,0.0,0.0,0.0,0.0,0.0,0.0,-5.1214,0.0,-5.1214,0.0,0.0,0.0,0.0,0.0,0.0,-4.9898,-4.9479,0.0,-4.7923,0.0,-4.7309,-4.7309,-4.7309,-4.7309,-4.7309,-4.7309,-4.7309,-4.7309,-4.7309,-4.7309,-4.7309,-4.7309,-4.7309,-4.7309,-4.7309,-4.7309,-4.7309,-4.7309,-4.7309,-4.7309,-4.7309,-4.7309,-4.7309,-3.9697,0.0,-3.9697,0.0,-3.9697,-3.9697,-3.9697,-3.9697,-3.9697,-3.9697,-3.9697,-3.9788,-3.9981,-4.044,-4.1084,-4.1782,-4.324,-4.4588,-4.5831,-4.6985,-4.7918,-4.8595,-4.919,0.0,-4.9585,-5.0038,-5.0183,-4.999,-5.0038,0.0,0.0,0.0,0.0,0.0,-5.06,-5.0837,-5.0994,-5.1073,-5.1073,-5.1073,-5.1167,-5.1214,-5.1289,-5.1947,-5.2486,-5.301,-5.3892,-5.4506,-5.494,-5.5119,-5.5194,-5.5194,-5.5194,-5.5194,-5.5194,-5.5194,-5.5194,-5.5194,-5.5194,-5.5194,-5.5194,-5.5194,-5.5194,-5.5194,-5.5194,-5.5194,-5.5074,-5.4685,-5.3847,-5.277,-5.1468,-5.1214,-5.1214,-5.1214,0.0,0.0,0.0,0.0,0.0,0.0,-5.1214,-5.1214,-5.1214,0.0,0.0,0.0,0.0,0.0,0.0,0.0,0.0,0.0,0.0,0.0,0.0,0.0,-4.7309,-4.7309,-4.7309,-4.7309,-4.7309,-4.7309,-4.7309,-4.7309,-4.7309,-4.7309,-4.7309,-4.7309,-4.7309,-4.7309,-4.7309,-4.7309,-4.7309,-4.7309,-4.7309,-4.7309,-3.9697,-3.9697,-3.9697,-3.9697,-3.9697,-3.9697,-3.9697,-3.9697,-3.9697,-3.9697,-3.9697,-3.9697,-3.9697,-4.0198,-4.0744,-4.1272,-4.2262,-4.3457,-4.4912,-4.6031,-4.704,0.0,0.0,-4.9058,-4.9305,-4.9585,-4.9717,-4.9717,0.0,0.0,-4.9717,0.0,0.0,-5.0135,-5.039,-5.0501,-5.0501,-5.0728,-5.0807,-5.0807,-5.1073,-5.1214,-5.1289,-5.1947,-5.2202,-5.2396,-5.3728,-5.4221,-5.4326,-5.497,-5.5194,-5.5194,-5.5194,-5.5194,-5.5194,-5.5194,-5.5194,-5.5194,-5.5194,-5.5194,-5.5194,-5.5194,-5.5194,-5.5194,-5.5194,-5.5194,-5.4805,-5.3473,-5.3189,-5.277,-5.1468,-5.1214,-5.1214,-5.1214,0.0,0.0,0.0,0.0,0.0,-5.1214,-5.1214,-5.1214,-5.1214,0.0,0.0,0.0,0.0,0.0,0.0,0.0,0.0,-4.8312,-4.7653,0.0,-4.7309,-4.7309,-4.7309,-4.7309,-4.7309,-4.7309,-4.7309,-4.7309,-4.7309,-4.7309,-4.7309,-4.7309,-4.7309,-4.7309,-4.7309,-4.7309,-4.7309,-4.7309,-4.7309,-4.7309,-4.7309,-4.7309,-3.9697,-3.9697,-3.9697,-3.9697,-3.9697,-3.9697,-3.9697,-3.9697,-3.9697,-3.9697,-3.9697,-3.9697,-3.9697,-4.0044,-4.0389,0.0,-4.1534,-4.2565,0.0,-4.4559,-4.5531,-4.6837,-4.7461,-4.7956,-4.8481,-4.9093,-4.9453,-4.9453,0.0,0.0,0.0,-4.9781,-4.9926,-5.0086,-5.0183,-5.0342,-5.0501,-5.0581,-5.0614,-5.0614,-5.0822,-5.0917,-5.0979,-5.1359,-5.1813,-5.2261,-5.268,-5.3428,-5.4236,-5.4461,-5.482,-5.5194,-5.5194,-5.5194,-5.5194,-5.5194,-5.5194,-5.5194,-5.5194,-5.5194,-5.5194,-5.5194,-5.5194,-5.5194,-5.5194,-5.5194,-5.4805,-5.3458,-5.3174,-5.277,-5.1468,-5.1214,-5.1214,-5.1214,0.0,0.0,0.0,0.0,0.0,-5.1214,-5.1214,-5.1214,0.0,-5.1214,0.0,0.0,0.0,0.0,0.0,0.0,0.0,0.0,-4.7878,0.0,-4.7309,-4.7309,-4.7309,-4.7309,-4.7309,-4.7309,-4.7309,-4.7309,-4.7309,-4.7309,-4.7309,-4.7309,-4.7309,-4.7309,-4.7309,-4.7309,-4.7309,-4.7309,-4.7309,-4.7309,-4.7309,-4.7309,-3.9697,-3.9697,-3.9697,-3.9697,-3.9697,-3.9697,-3.9697,-3.9697,-3.9697,-3.9697,-3.9697,-3.9697,-3.9697,-3.9839,0.0,-4.0338,-4.0997,-4.1792,-4.2684,-4.3485,-4.4356,-4.5372,-4.6164,-4.6882,-4.7474,0.0,0.0,-4.9009,-4.9389,-4.9537,-4.9537,-4.9634,-4.9781,-4.9926,-4.9926,-5.0038,-5.0198,-5.0294,-5.0342,-5.039,-5.06,-5.0695,-5.0695,-5.0979,-5.1312,-5.17,-5.2049,-5.274,-5.3533,-5.4042,-5.4476,-5.4865,-5.5119,-5.5194,-5.5194,-5.5194,-5.5194,-5.5194,-5.5194,-5.5194,-5.5194,-5.5194,-5.5194,-5.5194,-5.5194,-5.4999,-5.4506,-5.3399,-5.298,-5.2486,-5.1409,-5.1214,-5.1214,-5.1214,0.0,-5.1214,-5.1214,0.0,0.0,0.0,0.0,0.0,0.0,-5.1214,0.0,0.0,0.0,0.0,0.0,0.0,0.0,-4.9314,-4.7997,0.0,-4.7309,-4.7309,-4.7309,-4.7309,-4.7309,-4.7309,-4.7309,-4.7309,-4.7309,-4.7309,-4.7309,-4.7309,-4.7309,-4.7309,-4.7309,-4.7309,-4.7309,-4.7309,-4.7309,-4.7309,-4.7309,-4.7309,-3.9697,-3.9697,0.0,0.0,-3.9697,0.0,-3.9697,-3.9697,-3.9697,-3.9697,-3.9697,-3.9697,-3.9697,-3.9697,-3.9788,-4.0032,0.0,0.0,0.0,-4.2611,-4.3381,-4.367,-4.4776,0.0,-4.6298,-4.7105,-4.7883,-4.8481,-4.9009,-4.9256,-4.932,-4.9585,-4.9717,-4.9717,-4.9717,-4.9717,-4.9732,-4.999,-5.0086,-5.0086,-5.0342,-5.0453,-5.0486,-5.068,-5.0807,-5.0929,-5.1807,-5.2157,-5.2396,-5.3638,-5.4102,-5.4251,-5.491,-5.5119,-5.5134,-5.5179,-5.5194,-5.5194,-5.5194,-5.5194,-5.5194,-5.5194,-5.5164,-5.5119,-5.5119,-5.461,-5.3937,-5.3249,-5.2621,-5.2007,-5.1334,-5.1214,-5.1214,-5.1214,-5.1214,-5.1214,-5.1214,0.0,0.0,0.0,0.0,0.0,0.0,-5.1214,-5.1214,0.0,0.0,0.0,0.0,0.0,-4.9314,-4.9314,-4.7997,-4.7309,-4.7309,-4.7309,-4.7309,-4.7309,-4.7309,-4.7309,-4.7309,-4.7309,-4.7309,-4.7309,-4.7309,-4.7309,-4.7309,-4.7309,-4.7309,-4.7309,-4.7309,-4.7309,-4.7309,-4.7309,-4.7309,-4.7309,0.0,0.0,-3.9697,-3.9697,-3.9697,-3.9697,-3.9697,-3.9697,-3.9697,-3.9697,-3.9697,-3.9697,-3.9697,-3.9697,-3.9749,-3.9788,-4.0083,-4.044,-4.0757,-4.1227,-4.1841,-4.2541,-4.3072,-4.3886,-4.5079,-4.5744,-4.6763,-4.8179,-4.8745,-4.9108,-4.932,-4.9585,-4.9717,-4.9717,-4.9717,-4.9717,-4.9717,-4.9781,-4.9781,-4.9829,-5.0086,-5.0183,-5.0231,-5.0471,-5.0647,-5.0822,-5.1033,-5.1563,-5.2247,-5.2576,-5.301,-5.3548,-5.4221,-5.4446,-5.4536,-5.5044,-5.5194,-5.5194,-5.5194,-5.5194,-5.5194,-5.5194,-5.482,-5.4446,-5.4446,-5.3907,-5.3234,-5.2561,-5.2306,-5.2007,-5.1334,-5.1214,-5.1214,-5.1214,-5.1214,-5.1214,-5.1214,-5.1214,0.0,0.0,-5.1214,-5.1214,-5.1214,-5.1214,-5.1214,0.0,0.0,0.0,0.0,0.0,-4.9314,-4.9314,-4.7997,-4.7309,-4.7309,-4.7309,-4.7309,-4.7309,-4.7309,-4.7309,-4.7309,-4.7309,-4.7309,-4.7309,-4.7309,-4.7309,-4.7309,-4.7309,-4.7309,-4.7309,-4.7309,-4.7309,-4.7309,-4.7309,-4.7309,-4.7309,-3.9697,-3.9697,-3.9697,-3.9697,-3.9697,-3.9697,-3.9697,-3.9697,-3.9697,-3.9697,-3.9697,-3.9697,-3.9697,-3.9697,-3.9697,-3.9697,-3.9929,-4.0173,-4.0287,-4.0593,-4.0937,-4.14,-4.1813,-4.2486,-4.3361,-4.4358,-4.5648,-4.7298,-4.8027,-4.8481,-4.8745,-4.9143,-4.934,-4.934,-4.934,-4.934,-4.934,-4.934,-4.9389,-4.9551,-4.9698,-4.9795,-4.9926,-5.0246,-5.0375,-5.0489,-5.0713,-5.114,-5.164,-5.2049,-5.2441,-5.2845,-5.3533,-5.3743,-5.3803,-5.4162,-5.47,-5.5194,-5.5194,-5.5194,-5.5119,-5.482,-5.4236,-5.3743,-5.3743,-5.3219,-5.2636,-5.2276,-5.1962,-5.1648,-5.1289,-5.1214,-5.1214,-5.1214,-5.1214,-5.1214,-5.1214,-5.1214,0.0,-5.1214,-5.1214,-5.1214,-5.1214,-5.1214,-5.1214,-5.1214,0.0,0.0,-5.1214,-4.9972,-4.9314,-4.9314,-4.7997,-4.7309,-4.7309,-4.7309,-4.7309,-4.7309,-4.7309,-4.7309,-4.7309,-4.7309,-4.7309,-4.7309,-4.7309,-4.7309,-4.7309,-4.7309,-4.7309,-4.7309,-4.7309,-4.7309,-4.7309,-4.7309,-4.7309,-4.7309,-3.9697,-3.9697,-3.9697,-3.9697,-3.9697,-3.9697,-3.9697,-3.9697,-3.9697,-3.9697,-3.9697,-3.9697,-3.9697,-3.9697,-3.9697,-3.9697,-3.9929,-4.0032,-4.0032,-4.0236,-4.0351,-4.0351,-4.0862,-4.1299,-4.1673,-4.3061,-4.4586,-4.6083,-4.705,-4.7657,-4.7976,-4.8545,-4.8745,-4.8745,-4.8745,-4.8745,-4.8745,-4.8745,-4.8945,-4.9207,-4.9256,-4.9453,-4.9683,-4.9941,-5.0038,-5.0183,-5.0585,-5.076,-5.0944,-5.1762,-5.2052,-5.2172,-5.283,-5.3039,-5.3054,-5.3159,-5.3997,-5.488,-5.488,-5.488,-5.4745,-5.4192,-5.3533,-5.3039,-5.3039,-5.2516,-5.2052,-5.2052,-5.1618,-5.1214,-5.1214,-5.1214,-5.1214,-5.1214,-5.1214,-5.1214,-5.1214,0.0,-5.1214,-5.1214,-5.1214,-5.1214,-5.1214,-5.1214,-5.1214,-5.1214,-5.1214,0.0,0.0,-4.9972,-4.9314,-4.9314,-4.7997,-4.7309,-4.7309,-4.7309,-4.7309,-4.7309,-4.7309,-4.7309,-4.7309,-4.7309,-4.7309,-4.7309,-4.7309,-4.7309,-4.7309,-4.7309,-4.7309,-4.7309,-4.7309,-4.7309,-4.7309,-4.7309,-4.7309,-4.7309,-3.9697,-3.9697,-3.9697,-3.9697,-3.9697,-3.9697,-3.9697,-3.9697,-3.9697,-3.9697,-3.9697,-3.9697,-3.9697,-3.9697,-3.9697,-3.9697,-3.9736,-3.9736,-3.9736,-3.98,-3.9839,-3.9839,-3.9927,-4.0283,-4.0999,-4.2704,-4.3925,-4.4626,-4.5934,-4.687,-4.7456,-4.7976,-4.8078,-4.7875,-4.7875,-4.7875,-4.7925,-4.8128,-4.838,-4.8645,-4.9108,-4.9305,-4.9404,-4.9683,-4.9878,-5.0135,-5.0438,-5.0647,-5.087,-5.124,-5.1379,-5.1483,-5.2142,-5.2351,-5.2456,-5.301,-5.3339,-5.3488,-5.3488,-5.3488,-5.3473,-5.3369,-5.2845,-5.2351,-5.2351,-5.1843,-5.1379,-5.1379,-5.1289,-5.1214,-5.1214,-5.1214,-5.1214,-5.1214,-5.1214,-5.1214,-5.1214,0.0,-5.1214,-5.1214,-5.1214,-5.1214,-5.1214,-5.1214,-5.1214,-5.1214,-5.1214,-5.1214,-5.1214,-4.9972,-4.9314,-4.9314,-4.7997,-4.7309,-4.7309,-4.7309,-4.7309,-4.7309,-4.7309,-4.7309,-4.7309,-4.7309,-4.7309,-4.7309,-4.7309,-4.7309,-4.7309,-4.7309,-4.7309,-4.7309,-4.7309,-4.7309,-4.7309,-4.7309,-4.7309,-4.7309,-3.9697,-3.9697,-3.9697,-3.9697,-3.9697,-3.9697,-3.9697,-3.9697,-3.9697,-3.9697,-3.9697,-3.9697,-3.9697,-3.9697,-3.9697,-3.9697,-3.9697,-3.9697,-3.9697,-3.9697,-3.9697,-3.9697,-3.9697,-4.0,-4.0646,-4.1639,-4.256,-4.3593,-4.4586,-4.5421,-4.6112,-4.6544,-4.6635,-4.6531,-4.6531,-4.6531,-4.6531,-4.6818,-4.7195,-4.7629,-4.8229,-4.8595,-4.8895,-4.9192,-4.9453,-4.9698,-4.999,-5.0216,-5.0504,-5.087,-5.0885,-5.0911,-5.1322,-5.1458,-5.1518,-5.1831,-5.2524,-5.3174,-5.3174,-5.292,-5.265,-5.265,-5.2157,-5.1678,-5.1678,-5.1439,-5.1214,-5.1214,-5.1214,-5.1214,-5.1214,-5.1214,-5.1214,-5.1214,-5.1214,0.0,0.0,-5.1214,-5.1214,-5.1214,-5.1214,-5.1214,-5.1214,-5.1214,-5.1214,-5.1214,-5.1214,-5.1214,-5.1214,-4.9972,-4.9314,-4.9314,-4.7997,-4.7309,-4.7309,-4.7309,-4.7309,-4.7309,-4.7309,-4.7309,-4.7309,-4.7309,-4.7309,-4.7309,-4.7309,-4.7309,-4.7309,-4.7309,-4.7309,-4.7309,-4.7309,-4.7309,-4.7309,-4.7309,-4.7309,-4.7309,-3.9697,-3.9697,-3.9697,-3.9697,-3.9697,-3.9697,-3.9697,-3.9697,-3.9697,-3.9697,-3.9697,-3.9697,-3.9697,-3.9697,-3.9697,-3.9697,-3.9697,-3.9697,-3.9697,-3.9697,-3.9697,-3.9697,-3.9697,-3.9885,-4.0325,-4.0648,-4.1392,-4.2511,-4.3316,-4.4041,-4.4741,-4.5102,-4.5248,-4.5208,-4.5208,-4.5208,-4.5262,-4.5569,-4.6046,-4.6596,-4.7181,-4.7708,-4.8243,-4.8545,-4.8845,-4.9157,-4.9438,-4.9683,-4.999,-5.0489,-5.0552,-5.0438,-5.0647,-5.076,-5.0807,-5.0807,-5.1727,-5.2725,-5.2725,-5.2351,-5.1977,-5.1977,-5.1588,-5.1214,-5.1214,-5.1214,-5.1214,-5.1214,-5.1214,-5.1214,-5.1214,-5.1214,-5.1214,-5.1214,0.0,0.0,0.0,-5.1214,-5.1214,-5.1214,-5.1214,-5.1214,-5.1214,-5.1214,-5.1214,-5.1214,-5.1214,-5.1154,-5.1005,-4.9898,-4.9179,-4.882,-4.7833,-4.7309,-4.7309,-4.7309,-4.7309,-4.7309,-4.7309,-4.7309,-4.7309,-4.7309,-4.7309,-4.7309,-4.7309,-4.7309,-4.7309,-4.7309,-4.7309,-4.7309,-4.7309,-4.7309,-4.7309,-4.7309,-4.7309,-4.7309,-3.9697,-3.9697,-3.9697,-3.9697,-3.9697,-3.9697,-3.9697,-3.9697,-3.9697,-3.9697,-3.9697,-3.9697,-3.9697,-3.9697,-3.9697,-3.9697,-3.9697,-3.9697,-3.9697,-3.9697,-3.9697,-3.9697,-3.9697,-3.971,-3.9747,-4.0249,-4.0709,-4.1034,-4.2396,-4.3257,-4.3643,-4.442,-4.4626,-4.4409,-4.4409,-4.4409,-4.4422,-4.4681,-4.5154,-4.5755,-4.6282,-4.6832,-4.7405,-4.7671,-4.8128,-4.8595,-4.8845,-4.9157,-4.9453,-4.999,-5.0135,-5.0183,-5.0438,-5.0647,-5.0807,-5.0807,-5.1086,-5.1364,-5.1364,-5.1334,-5.1289,-5.1289,-5.1259,-5.1214,-5.1214,-5.1214,-5.1214,-5.1214,-5.1214,-5.1214,-5.1214,-5.1214,-5.1214,-5.1214,0.0,0.0,-5.1214,-5.1214,-5.1214,-5.1214,-5.1214,-5.1214,-5.1214,-5.1214,-5.1214,-5.1214,-5.1214,-5.0945,-5.03,-4.9643,-4.8745,-4.7489,-4.7354,-4.7309,-4.7309,-4.7309,-4.7309,-4.7309,-4.7309,-4.7309,-4.7309,-4.7309,-4.7309,-4.7309,-4.7309,-4.7309,-4.7309,-4.7309,-4.7309,-4.7309,-4.7309,-4.7309,-4.7309,-4.7309,-4.7309,-4.7309,-3.9697,-3.9697,-3.9697,-3.9697,-3.9697,-3.9697,-3.9697,-3.9697,-3.9697,-3.9697,-3.9697,-3.9697,-3.9697,-3.9697,-3.9697,-3.9697,-3.9697,-3.9697,-3.9697,-3.9697,-3.9697,-3.9697,-3.9697,-3.9697,-3.9697,-3.9898,-4.0226,-4.0658,-4.1193,-4.1869,-4.2703,-4.3016,-4.3254,-4.3474,-4.3474,-4.3474,-4.353,-4.3793,-4.4123,-4.4585,-4.514,-4.5569,-4.6007,-4.6467,-4.6884,-4.7219,-4.7503,-4.7925,-4.838,-4.8866,-4.9065,-4.9227,-4.9829,-5.0168,-5.0456,-5.0917,-5.112,-5.1214,-5.1214,-5.1214,-5.1214,-5.1214,-5.1214,-5.1214,-5.1214,-5.1214,-5.1214,-5.1214,-5.1214,-5.1214,-5.1214,-5.1214,-5.1214,-5.1214,0.0,-5.1214,-5.1214,-5.1214,-5.1214,-5.1214,-5.1214,-5.1214,-5.1214,-5.1214,-5.1214,-5.1214,-5.1214,-5.0883,-5.0226,-4.9224,-4.8237,-4.7339,-4.7309,-4.7309,-4.7309,-4.7309,-4.7309,-4.7309,-4.7309,-4.7309,-4.7309,-4.7309,-4.7309,-4.7309,-4.7309,-4.7309,-4.7309,-4.7309,-4.7309,-4.7309,-4.7309,-4.7309,-4.7309,-4.7309,-4.7309,-4.7309,-3.9697,-3.9697,-3.9697,-3.9697,-3.9697,-3.9697,-3.9697,-3.9697,-3.9697,-3.9697,-3.9697,-3.9697,-3.9697,-3.9697,-3.9697,-3.9697,-3.9697,-3.9697,-3.9697,-3.9697,-3.9697,-3.9697,-3.9697,-3.9697,-3.9697,-3.9697,-3.9885,-4.0262,-4.0438,-4.0902,-4.1643,-4.1819,-4.2183,-4.2778,-4.2778,-4.2811,-4.303,-4.3184,-4.3474,-4.3764,-4.4123,-4.4505,-4.4884,-4.5315,-4.5675,-4.6019,-4.6191,-4.661,-4.7064,-4.7615,-4.7883,-4.8215,-4.8966,-4.9585,-5.0072,-5.0695,-5.0979,-5.1058,-5.1058,-5.112,-5.1214,-5.1214,-5.1214,-5.1214,-5.1214,-5.1214,-5.1214,-5.1214,-5.1214,-5.1214,-5.1214,-5.1214,-5.1214,-5.1214,-5.1214,-5.1214,-5.1214,-5.1214,-5.1214,-5.1214,-5.1214,-5.1214,-5.1214,-5.1214,-5.1214,-5.1214,-5.102,-5.048,-4.9673,-4.8581,-4.7773,-4.7309,-4.7309,-4.7309,-4.7309,-4.7309,-4.7309,-4.7309,-4.7309,-4.7309,-4.7309,-4.7309,-4.7309,-4.7309,-4.7309,-4.7309,-4.7309,-4.7309,-4.7309,-4.7309,-4.7309,-4.7309,-4.7309,-4.7309,-4.7309,-4.7309,-3.9697,-3.9697,-3.9697,-3.9697,-3.9697,-3.9697,-3.9697,-3.9697,-3.9697,-3.9697,-3.9697,-3.9697,-3.9697,-3.9697,-3.9697,-3.9697,-3.9697,-3.9697,-3.9697,-3.9697,-3.9697,-3.9697,-3.9697,-3.9697,-3.9697,-3.9697,-3.9697,-3.9697,-4.0237,-4.0513,-4.0526,-4.1025,-4.163,-4.22,-4.22,-4.2514,-4.2974,-4.2974,-4.3129,-4.3394,-4.3394,-4.3738,-4.4313,-4.4313,-4.4626,-4.5087,-4.5087,-4.5275,-4.5555,-4.615,-4.6739,-4.7308,-4.7911,-4.8817,-4.9732,-5.0038,-5.0394,-5.0807,-5.0807,-5.1011,-5.1182,-5.1214,-5.1214,-5.1214,-5.1214,-5.1214,-5.1214,-5.1214,-5.1214,-5.1214,-5.1214,-5.1214,-5.1214,-5.1214,-5.1214,-5.1214,-5.1214,-5.1214,-5.1214,-5.1214,-5.1214,-5.1214,-5.1214,-5.1214,-5.1214,-5.1214,-5.0554,-4.9658,-4.8356,-4.7653,-4.7309,-4.7309,-4.7309,-4.7309,-4.7309,-4.7309,-4.7309,-4.7309,-4.7309,-4.7309,-4.7309,-4.7309,-4.7309,-4.7309,-4.7309,-4.7309,-4.7309,-4.7309,-4.7309,-4.7309,-4.7309,-4.7309,-4.7309,-4.7309,-4.7309,-4.7309,-3.9697,-3.9697,-3.9697,-3.9697,-3.9697,-3.9697,-3.9697,-3.9697,-3.9697,-3.9697,-3.9697,-3.9697,-3.9697,-3.9697,-3.9697,-3.9697,-3.9697,-3.9697,-3.9697,-3.9697,-3.9697,-3.9697,-3.9697,-3.9697,-3.9697,-3.9697,-3.9697,-3.9697,-3.986,-4.0136,-4.0513,-4.0676,-4.1065,-4.158,-4.158,-4.1882,-4.2451,-4.2451,-4.2678,-4.3141,-4.3141,-4.3252,-4.3419,-4.3572,-4.378,-4.3945,-4.419,-4.4409,-4.4709,-4.5087,-4.5569,-4.6257,-4.7373,-4.8252,-4.893,-4.9424,-4.9766,-5.0057,-5.0264,-5.0519,-5.0772,-5.1135,-5.1214,-5.1214,-5.1214,-5.1214,-5.1214,-5.1214,-5.1214,-5.1214,-5.1214,-5.1214,-5.1214,-5.1214,-5.1214,-5.1214,-5.1214,-5.1214,-5.1214,-5.1214,-5.1214,-5.1214,-5.1214,-5.1214,-5.102,-5.0524,-4.9494,-4.8701,-4.8312,-4.7653,-4.7309,-4.7309,-4.7309,-4.7309,-4.7309,-4.7309,-4.7309,-4.7309,-4.7309,-4.7309,-4.7309,-4.7309,-4.7309,-4.7309,-4.7309,-4.7309,-4.7309,-4.7309,-4.7309,-4.7309,-4.7309,-4.7309,-4.7309,-4.7309,-4.7309,-4.7309,-3.9697,-3.9697,-3.9697,-3.9697,-3.9697,-3.9697,-3.9697,-3.9697,-3.9697,-3.9697,-3.9697,-3.9697,-3.9697,-3.9697,-3.9697,-3.9697,-3.9697,-3.9697,-3.9697,-3.9697,-3.9697,-3.9697,-3.9697,-3.9697,-3.9697,-3.9697,-3.9697,-3.9697,-3.9697,-3.9873,-4.0187,-4.0187,-4.0488,-4.0962,-4.0962,-4.1317,-4.1831,-4.1831,-4.2158,-4.2703,-4.2703,-4.2841,-4.303,-4.3184,-4.324,-4.3295,-4.3487,-4.3653,-4.3806,-4.4123,-4.4668,-4.5422,-4.6465,-4.7205,-4.7745,-4.8086,-4.8589,-4.91,-4.936,-4.9732,-5.0135,-5.0504,-5.0822,-5.1058,-5.1167,-5.1214,-5.1214,-5.1214,-5.1214,-5.1214,-5.1214,-5.1214,-5.1214,-5.1214,-5.1214,-5.1214,-5.1214,-5.1214,-5.1214,-5.1214,-5.1214,-5.1214,-5.1214,-5.0943,-5.0451,-4.9538,-4.873,-4.8177,-4.7908,-4.7519,-4.7309,-4.7309,-4.7309,-4.7309,-4.7309,-4.7309,-4.7309,-4.7309,-4.7309,-4.7309,-4.7309,-4.7309,-4.7309,-4.7309,-4.7309,-4.7309,-4.7309,-4.7309,-4.7309,-4.7309,-4.7309,-4.7309,-4.7309,-4.7309,-4.7309,-4.7309,-3.9697,-3.9697,-3.9697,-3.9697,-3.9697,-3.9697,-3.9697,-3.9697,-3.9697,-3.9697,-3.9697,-3.9697,-3.9697,-3.9697,-3.9697,-3.9697,-3.9697,-3.9697,-3.9697,-3.9697,-3.9697,-3.9697,-3.9697,-3.9697,-3.9697,-3.9697,-3.9697,-3.9697,-3.9697,-3.9697,-3.9697,-3.9697,-3.9961,-4.0438,-4.0438,-4.0752,-4.1213,-4.1213,-4.158,-4.2137,-4.2137,-4.2384,-4.2836,-4.2886,-4.2898,-4.2911,-4.2961,-4.2974,-4.303,-4.3283,-4.3945,-4.4722,-4.5208,-4.5781,-4.6269,-4.6269,-4.6998,-4.7869,-4.8122,-4.8703,-4.9213,-4.9473,-5.0091,-5.0665,-5.1026,-5.112,-5.1167,-5.1167,-5.1167,-5.1214,-5.1214,-5.1214,-5.1214,-5.1214,-5.1214,-5.1214,-5.1214,-5.1214,-5.1214,-5.1214,-5.1214,-5.1214,-5.1214,-5.0524,-4.9628,-4.8371,-4.8237,-4.7938,-4.7339,-4.7309,-4.7309,-4.7309,-4.7309,-4.7309,-4.7309,-4.7309,-4.7309,-4.7309,-4.7309,-4.7309,-4.7309,-4.7309,-4.7309,-4.7309,-4.7309,-4.7309,-4.7309,-4.7309,-4.7309,-4.7309,-4.7309,-4.7309,-4.7309,-4.7309,-4.7309,-4.7309,-3.9697,-3.9697,-3.9697,-3.9697,-3.9697,-3.9697,-3.9697,-3.9697,-3.9697,-3.9697,-3.9697,-3.9697,-3.9697,-3.9697,-3.9697,-3.9697,-3.9697,-3.9697,-3.9697,-3.9697,-3.9697,-3.9697,-3.9697,-3.9697,-3.9697,-3.9697,-3.9697,-3.9697,-3.9697,-3.9697,-3.9697,-3.9697,-3.976,-3.9873,-3.9873,-4.0174,-4.0701,-4.0701,-4.1015,-4.1517,-4.1517,-4.158,-4.1743,-4.217,-4.2389,-4.2451,-4.2879,-4.2974,-4.303,-4.3283,-4.3696,-4.4107,-4.4463,-4.4763,-4.5087,-4.5342,-4.5861,-4.6478,-4.6739,-4.7424,-4.8114,-4.8288,-4.8703,-4.9213,-5.012,-5.0632,-5.0902,-5.0902,-5.1058,-5.1214,-5.1214,-5.1214,-5.1214,-5.1214,-5.1214,-5.1214,-5.1214,-5.1214,-5.1214,-5.1214,-5.1214,-5.1214,-5.1214,-5.0167,-4.9149,-4.8341,-4.7803,-4.7459,-4.7309,-4.7309,-4.7309,-4.7309,-4.7309,-4.7309,-4.7309,-4.7309,-4.7309,-4.7309,-4.7309,-4.7309,-4.7309,-4.7309,-4.7309,-4.7309,-4.7309,-4.7309,-4.7309,-4.7309,-4.7309,-4.7309,-4.7309,-4.7309,-4.7309,-4.7309,-4.7309,-4.7309,-3.9697,-3.9697,-3.9697,-3.9697,-3.9697,-3.9697,-3.9697,-3.9697,-3.9697,-3.9697,-3.9697,-3.9697,-3.9697,-3.9697,-3.9697,-3.9697,-3.9697,-3.9697,-3.9697,-3.9697,-3.9697,-3.9697,-3.9697,-3.9697,-3.9697,-3.9697,-3.9697,-3.9697,-3.9697,-3.9697,-3.9697,-3.9697,-3.9697,-3.9697,-3.9697,-3.9848,-4.0124,-4.0124,-4.0438,-4.094,-4.094,-4.105,-4.1313,-4.1656,-4.1769,-4.1806,-4.2095,-4.2359,-4.264,-4.2793,-4.3093,-4.35,-4.3653,-4.3848,-4.411,-4.4274,-4.4696,-4.5288,-4.5648,-4.6243,-4.678,-4.7129,-4.7438,-4.8064,-4.9424,-4.9912,-5.0139,-5.0394,-5.071,-5.0899,-5.0964,-5.112,-5.1214,-5.1214,-5.1214,-5.1214,-5.1214,-5.1214,-5.1214,-5.1214,-5.1214,-5.0975,-5.0346,-4.9389,-4.8521,-4.7863,-4.7504,-4.7309,-4.7309,-4.7309,-4.7309,-4.7309,-4.7309,-4.7309,-4.7309,-4.7309,-4.7309,-4.7309,-4.7309,-4.7309,-4.7309,-4.7309,-4.7309,-4.7309,-4.7309,-4.7309,-4.7309,-4.7309,-4.7309,-4.7309,-4.7309,-4.7309,-4.7309,-4.7309,-4.7309,-4.7309,-3.9697,-3.9697,-3.9697,-3.9697,-3.9697,-3.9697,-3.9697,-3.9697,-3.9697,-3.9697,-3.9697,-3.9697,-3.9697,-3.9697,-3.9697,-3.9697,-3.9697,-3.9697,-3.9697,-3.9697,-3.9697,-3.9697,-3.9697,-3.9697,-3.9697,-3.9697,-3.9697,-3.9697,-3.9697,-3.9697,-3.9697,-3.9697,-3.9697,-3.9697,-3.9697,-3.9697,-3.9697,-3.9697,-3.9961,-4.0375,-4.0375,-4.0651,-4.1012,-4.1112,-4.115,-4.1163,-4.125,-4.163,-4.2074,-4.2074,-4.2321,-4.2698,-4.2698,-4.2914,-4.3199,-4.3199,-4.3661,-4.4245,-4.4709,-4.51,-4.5488,-4.5954,-4.6257,-4.6818,-4.8352,-4.8902,-4.9213,-4.9766,-5.0183,-5.0471,-5.076,-5.1011,-5.1214,-5.1214,-5.1214,-5.1214,-5.1214,-5.1214,-5.1214,-5.1214,-5.1124,-5.0541,-4.9269,-4.8655,-4.8012,-4.7354,-4.7309,-4.7309,-4.7309,-4.7309,-4.7309,-4.7309,-4.7309,-4.7309,-4.7309,-4.7309,-4.7309,-4.7309,-4.7309,-4.7309,-4.7309,-4.7309,-4.7309,-4.7309,-4.7309,-4.7309,-4.7309,-4.7309,-4.7309,-4.7309,-4.7309,-4.7309,-4.7309,-4.7309,-4.7309,-4.7309,-3.9697,-3.9697,-3.9697,-3.9697,-3.9697,-3.9697,-3.9697,-3.9697,-3.9697,-3.9697,-3.9697,-3.9697,-3.9697,-3.9697,-3.9697,-3.9697,-3.9697,-3.9697,-3.9697,-3.9697,-3.9697,-3.9697,-3.9697,-3.9697,-3.9697,-3.9697,-3.9697,-3.9697,-3.9697,-3.9697,-3.9697,-3.9697,-3.9697,-3.9697,-3.9697,-3.9697,-3.9697,-3.9697,-3.9735,-3.981,-3.981,-3.9848,-3.9973,-4.0438,-4.0626,-4.0689,-4.1112,-4.1326,-4.1388,-4.1388,-4.1438,-4.1514,-4.1514,-4.1936,-4.2368,-4.2368,-4.2916,-4.356,-4.3615,-4.4068,-4.4476,-4.4585,-4.4789,-4.5207,-4.5954,-4.7167,-4.8324,-4.8859,-4.9576,-5.0235,-5.0713,-5.1011,-5.1214,-5.1214,-5.1214,-5.1214,-5.1214,-5.1214,-5.1214,-5.1214,-5.0674,-4.9807,-4.8551,-4.8341,-4.8012,-4.7354,-4.7309,-4.7309,-4.7309,-4.7309,-4.7309,-4.7309,-4.7309,-4.7309,-4.7309,-4.7309,-4.7309,-4.7309,-4.7309,-4.7309,-4.7309,-4.7309,-4.7309,-4.7309,-4.7309,-4.7309,-4.7309,-4.7309,-4.7309,-4.7309,-4.7309,-4.7309,-4.7309,-4.7309,-4.7309,-4.7309,-3.9697,-3.9697,-3.9697,-3.9697,-3.9697,-3.9697,-3.9697,-3.9697,-3.9697,-3.9697,-3.9697,-3.9697,-3.9697,-3.9697,-3.9697,-3.9697,-3.9697,-3.9697,-3.9697,-3.9697,-3.9697,-3.9697,-3.9697,-3.9697,-3.9697,-3.9697,-3.9697,-3.9697,-3.9697,-3.9697,-3.9697,-3.9697,-3.9697,-3.9697,-3.9697,-3.9697,-3.9697,-3.9697,-3.9697,-3.9697,-3.9697,-3.9697,-3.9722,-3.9961,-4.0061,-4.0086,-4.0337,-4.0614,-4.0824,-4.0824,-4.1025,-4.1288,-4.1288,-4.1505,-4.1706,-4.1706,-4.1978,-4.2263,-4.2439,-4.2723,-4.3015,-4.3486,-4.3659,-4.3898,-4.4507,-4.5408,-4.6478,-4.7694,-4.8438,-4.9085,-4.9654,-5.0057,-5.0346,-5.0346,-5.0346,-5.0408,-5.0552,-5.0614,-5.0576,-5.0488,-4.9534,-4.8775,-4.8341,-4.7952,-4.7623,-4.7324,-4.7309,-4.7309,-4.7309,-4.7309,-4.7309,-4.7309,-4.7309,-4.7309,-4.7309,-4.7309,-4.7309,-4.7309,-4.7309,-4.7309,-4.7309,-4.7309,-4.7309,-4.7309,-4.7309,-4.7309,-4.7309,-4.7309,-4.7309,-4.7309,-4.7309,-4.7309,-4.7309,-4.7309,-4.7309,-4.7309]}]]